GFSSW_850_dewp_000.txt.gz
Dewpoint
-17 -15 -13 -11 -10 -9 -7 -7 -7 -7 -6 -5 -5 -6 -7 -7 -5 -5 -5 -4 -10 -13 -12 -3 8 10 9 8 8 8 6 5 5 7 7 8 8 10 11 13 13 12 12 13 14
-18 -18 -18 -18 -16 -14 -12 -10 -8 -8 -8 -7 -6 -5 -6 -6 -7 -7 -4 -12 -12 -13 -4 6 6 9 5 2 4 6 6 4 2 4 7 8 8 11 12 12 12 13 13 13 14
-17 -17 -17 -17 -18 -18 -17 -15 -12 -10 -8 -8 -7 -6 -6 -6 -5 -7 -6 -11 -12 -12 0 1 -1 4 -3 -6 -2 2 6 4 4 4 6 7 8 10 9 11 10 13 13 14 14
-15 -15 -16 -16 -17 -17 -17 -17 -17 -14 -11 -8 -8 -8 -7 -7 -7 -10 -7 -7 -7 -10 0 -1 -5 -3 -9 -7 -6 1 1 1 3 5 6 7 8 9 9 8 9 11 13 14 14
-16 -16 -15 -16 -16 -16 -16 -16 -17 -17 -15 -11 -9 -9 -9 -1 -6 -8 -8 -8 -9 -9 -4 -5 -9 -8 -9 -7 -6 -2 -2 -2 -0 4 5 7 8 8 9 10 10 12 14 14 14
-17 -17 -16 -16 -15 -16 -16 -16 -16 -17 -17 -15 -12 -11 -10 -5 -8 -8 -5 -6 -0 -2 -5 -7 -9 -10 -10 -8 -5 -4 -4 -3 -1 4 6 8 9 9 9 9 12 13 14 14 14
-17 -18 -18 -17 -16 -16 -16 -16 -16 -16 -17 -18 -16 -14 -6 -5 -6 -8 -7 -1 2 -1 -5 -7 -9 -11 -10 -7 -5 -4 -0 4 3 5 7 8 11 10 10 11 13 13 14 14 14
-19 -18 -18 -19 -18 -17 -16 -16 -16 -16 -16 -19 -17 -8 -0 -3 -7 -3 0 -0 -5 1 -2 -5 -8 -8 -10 -5 -4 -2 -0 4 5 6 8 8 7 9 10 12 13 13 14 14 14
-21 -21 -19 -19 -19 -19 -17 -16 -16 -16 -17 -17 -5 -1 -1 -1 -1 0 0 -3 -3 -2 -4 -6 -7 -6 -8 -4 -1 -0 3 2 8 7 9 9 7 8 10 11 12 13 13 13 14
-21 -22 -22 -20 -20 -20 -19 -18 -16 -14 -9 -2 3 6 1 -4 1 -2 1 -5 -4 -2 -3 -6 -6 -7 -6 -5 1 2 2 2 4 8 9 9 7 10 10 11 10 13 13 13 13
-22 -22 -24 -23 -21 -21 -20 -19 -0 2 0 -1 -5 -2 -5 -4 -3 -3 -1 -6 -7 -5 -8 -9 -9 -8 -6 -4 -3 -1 2 2 2 6 8 8 7 8 11 11 10 12 13 13 12
-20 -20 -24 -24 -23 -21 -18 -11 -7 -11 -10 -12 -11 -10 -9 -7 -6 -8 -4 -3 -7 -6 -8 -10 -9 -10 -10 -6 -4 -1 1 2 2 6 7 6 8 7 8 11 10 11 12 13 13
-20 -20 -23 -26 -24 -17 -21 -7 -12 -15 -9 -12 -11 -10 -8 -8 -6 -6 -6 -4 -5 -7 -9 -8 -12 -12 -10 -8 -3 -1 1 2 4 7 7 6 8 7 6 9 10 10 10 12 13
-19 -21 -22 -26 -16 -23 -7 -14 -18 -16 -8 -9 -7 -5 -2 -4 -4 -5 -7 -6 -6 -6 -8 -11 -13 -12 -10 -7 -5 -0 -2 -0 3 6 9 7 8 5 5 9 10 11 10 10 12
-18 -20 -21 -22 -25 -16 -12 -21 -19 -6 -3 -7 -6 -3 -2 -2 -4 -3 -7 -8 -6 -6 -7 -7 -12 -10 -10 -9 -8 -2 -3 -1 0 5 6 8 9 5 5 6 8 10 10 10 9
-16 -19 -20 -18 -23 -24 -21 -23 -6 -2 -3 -8 -5 -4 -3 -4 -5 -3 -5 -7 -8 -7 -6 -7 -11 -12 -11 -12 -9 -6 -3 -1 0 2 7 6 6 4 3 6 3 6 9 10 9
-15 -17 -19 -20 -11 -25 -23 -11 -7 -6 -8 -8 -7 -6 -7 -8 -6 -5 -4 -4 -5 -1 -2 -6 -9 -13 -14 -10 -11 -6 -1 4 5 5 5 4 6 4 -1 -1 0 -2 4 9 9
-13 -15 -17 -21 -24 -25 -15 -14 -6 -9 -9 -8 -7 -6 -5 -8 -8 -6 -4 -5 -7 -5 -4 -3 -5 -9 -12 -12 -7 -5 -2 2 6 4 3 2 5 2 -0 -2 -3 -2 2 7 9
-13 -13 -10 -19 -11 -10 -7 -13 -11 -11 -10 -12 -11 -7 -6 -7 -8 -6 -5 -5 -7 -6 -3 -4 -3 -10 -12 -12 -11 -5 -2 -3 0 -0 0 -1 2 -1 -2 0 -0 1 3 5 8
-10 -4 -6 -6 -5 1 -8 -11 -15 -17 -13 -9 -7 -9 -7 -9 -7 -7 -7 -7 -7 -7 -6 -4 -1 -7 -9 -11 -11 -9 -5 -1 -0 6 5 1 1 2 1 -1 -4 -0 3 5 7
-2 -6 -6 -5 3 -0 -6 -12 -15 -18 -17 -11 -11 -10 -8 -8 -7 -7 -7 -7 -7 -7 -4 -4 -3 -6 -7 -8 -9 -8 -6 -2 -2 -0 3 4 1 -2 -1 -1 -2 -4 2 3 6
-1 -7 -6 2 -1 -6 -6 -10 -11 -14 -19 -18 -14 -14 -11 -8 -6 -6 -6 -7 -7 -7 -3 -3 -2 -1 -8 -11 -13 -10 -5 -3 0 5 1 0 -1 -6 -4 -4 -5 -5 -6 -5 4
-1 -6 -7 -4 -7 -10 -8 -8 -9 -9 -14 -15 -17 -15 -14 -10 -6 -8 -9 -11 -10 -6 -4 -4 -1 1 -1 -10 -11 -10 -9 -6 -3 -2 5 2 0 -6 -5 -4 -4 1 1 1 7
-1 -7 -9 -2 -6 -3 -3 -2 -4 -9 -9 -12 -12 -12 -14 -10 -9 -7 -6 -10 -7 -8 1 -0 -4 -1 -1 -2 -8 -7 -10 -10 -7 -1 0 -1 -1 -3 -5 -3 -5 -4 1 3 8
-2 -6 -1 -6 -3 1 1 -0 -2 -5 -7 -7 -7 -6 -8 -7 -7 -6 -6 -5 -4 -3 1 4 5 1 -2 -4 -6 -7 -9 -10 -8 -7 -1 -2 -2 -3 -3 -4 -5 -7 -5 3 8
0 -1 1 -1 -2 -3 -4 -3 -2 -5 -4 -3 -3 -7 -8 -5 -5 -6 -7 -6 -6 -4 -3 -0 6 4 3 -1 -3 -4 -6 -9 -10 -9 -8 -6 -4 -6 -6 -6 -6 -7 -7 3 8
0 -0 -1 -4 -6 -4 -5 -5 -4 -2 -3 -5 -3 -1 -1 -2 -3 -3 -2 -1 -1 -1 0 3 4 7 6 1 0 2 -2 -5 -8 -10 -8 -6 -6 -7 -7 -5 -4 -5 0 3 7

GFSSW_850_dewp_006.txt.gz
Dewpoint
-16 -16 -17 -17 -17 -17 -17 -17 -15 -13 -10 -9 -8 -9 -9 -7 -6 -6 -7 -5 -2 -8 -11 7 8 8 5 4 5 6 6 8 7 4 1 2 2 5 8 8 11 12 12 13 15
-14 -14 -15 -16 -16 -16 -16 -17 -18 -18 -16 -12 -10 -9 -9 -10 -9 -7 -12 -5 -4 -6 -13 0 5 6 2 3 4 4 8 8 7 4 2 1 2 4 6 7 8 11 12 13 14
-17 -16 -15 -14 -14 -15 -16 -16 -16 -17 -18 -18 -14 -11 -11 -9 -7 -3 -4 -5 -6 -7 -9 -4 0 1 1 2 2 4 8 5 5 4 3 1 2 2 5 7 8 12 13 13 14
-17 -17 -18 -17 -16 -14 -14 -15 -15 -16 -17 -17 -18 -16 -14 -11 -3 -2 -8 -9 -11 -12 -4 -4 -3 -1 -0 2 1 1 3 4 3 1 4 1 2 2 4 5 8 11 13 13 13
-20 -20 -19 -18 -18 -18 -17 -15 -14 -15 -15 -16 -17 -18 -17 -1 -1 -5 -5 -7 -11 -13 -2 -2 -4 -1 -1 -0 -1 -3 2 2 -0 0 2 1 2 2 2 5 7 9 12 13 13
-21 -21 -21 -21 -20 -19 -19 -18 -16 -14 -14 -15 -16 -17 -18 -5 -6 -5 -5 -4 -4 -5 -3 -1 -5 -2 -3 -3 -2 -4 -3 -2 -2 -2 0 4 3 2 2 4 7 9 11 12 13
-19 -20 -22 -22 -22 -21 -19 -18 -19 -16 -14 -14 -15 -17 -4 -9 -5 -7 -5 -2 -3 -2 -6 -3 -5 -5 -4 -5 -5 -5 -3 -3 -3 -3 0 2 4 4 3 3 6 9 9 11 12
-17 -18 -19 -21 -22 -22 -21 -19 -19 -19 -15 -14 -15 -15 -2 -12 -6 -4 -6 -4 -5 -3 -5 -7 -7 -7 -6 -7 -7 -6 -4 -1 -2 -2 -1 2 6 2 4 4 5 8 9 9 11
-15 -17 -17 -19 -20 -22 -21 -19 -18 -19 -16 -15 -12 -1 -2 -6 -4 -4 -5 -7 -8 -7 -5 -6 -8 -10 -9 -7 -5 -4 -1 -1 -1 -1 -0 1 8 5 4 5 5 7 8 9 10
-12 -15 -17 -17 -19 -20 -21 -19 -18 -13 -8 -5 -3 5 2 -3 -3 -6 -6 -7 -6 -7 -8 -6 -7 -7 -9 -6 -2 -2 -1 -1 -0 1 -1 2 11 9 7 4 5 5 7 9 9
-8 -11 -14 -16 -18 -22 -22 -16 -0 4 6 3 1 -4 -7 -3 -6 -4 -4 -5 -7 -9 -5 -5 -5 -4 -4 -6 -5 -5 -1 -1 -1 2 1 5 13 13 8 7 4 6 5 7 9
-4 -8 -11 -14 -17 -21 -13 -2 -8 -8 -10 -11 -6 -1 -1 -5 -5 -4 -7 -5 -8 -6 -6 -8 -6 -9 -7 -6 -5 -3 -2 -0 -1 2 3 2 11 10 9 7 5 4 5 6 7
-3 -6 -9 -11 -16 -2 -5 -10 -8 -9 -10 -12 -12 -13 -7 -4 -6 -9 -7 -5 -9 -8 -5 -6 -10 -12 -9 -6 -4 -3 -2 -1 -1 1 1 1 3 7 7 5 5 5 5 5 6
-5 -7 -9 -11 -8 -6 -8 -6 -10 -11 -8 -10 -12 -13 -13 -13 -12 -12 -11 -8 -6 -8 -10 -7 -10 -12 -11 -7 -5 -2 -5 -4 -2 3 6 3 7 9 6 8 6 5 5 5 6
-7 -8 -10 -11 -11 -14 -7 -8 -9 -9 -3 -10 -12 -12 -14 -13 -12 -12 -13 -12 -10 -9 -8 -9 -9 -10 -11 -9 -7 -4 -5 -4 -3 -0 6 7 7 6 7 8 8 7 6 6 6
-8 -8 -9 -10 -3 -8 -10 -7 -9 -6 -3 -8 -9 -9 -11 -13 -10 -9 -13 -12 -10 -11 -8 -8 -12 -11 -12 -13 -10 -8 -5 -4 -4 -1 4 4 6 6 7 7 5 6 6 6 6
-6 -9 -9 -10 -8 -6 -6 -9 -7 -4 -8 -8 -8 -7 -7 -7 -9 -7 -7 -7 -7 -6 -5 -7 -8 -12 -12 -12 -12 -10 -6 1 2 2 3 1 7 8 6 5 4 7 7 7 7
-5 -7 -10 -7 -3 -9 -6 -8 -3 -6 -7 -9 -10 -8 -6 -6 -7 -8 -6 -6 -8 -8 -6 -4 -5 -9 -12 -12 -10 -10 -7 -0 5 4 2 1 3 4 5 4 4 6 8 5 7
-6 -4 -6 -4 -4 -3 -4 -8 -5 -5 -8 -8 -9 -9 -7 -8 -9 -8 -6 -6 -9 -9 -4 -7 -5 -9 -11 -11 -13 -10 -7 -8 -2 -2 1 -0 -1 -2 -1 4 5 2 0 1 6
-2 1 -1 -4 -5 -5 -4 -3 -8 -10 -10 -10 -7 -8 -7 -7 -8 -8 -7 -7 -7 -10 -10 -7 -4 -9 -9 -11 -11 -12 -10 -7 -5 4 5 1 3 4 3 4 5 5 3 -2 -1
1 -1 -5 -6 -5 -2 -2 -4 -6 -8 -9 -8 -8 -9 -9 -8 -8 -7 -8 -9 -10 -8 -9 -9 -5 -6 -7 -7 -8 -10 -9 -9 -7 -3 2 5 3 1 6 5 5 3 -1 -3 -2
-0 -2 -6 -3 -2 -2 -1 -3 -5 -6 -7 -8 -9 -10 -10 -10 -7 -7 -6 -8 -10 -10 -7 -8 -7 -2 -6 -8 -10 -10 -8 -9 -5 3 -2 0 1 -4 2 2 -1 -0 -2 -3 -3
-0 -3 -5 -6 -3 -5 -6 -5 -5 -4 -4 -5 -6 -9 -11 -11 -6 -8 -8 -11 -11 -10 -8 -8 -4 0 -3 -6 -7 -8 -10 -10 -10 -6 2 2 1 -3 -1 1 1 -0 -2 -1 -2
1 -2 -6 -7 -7 -7 -6 -6 -7 -9 -8 -7 -5 -5 -7 -8 -10 -8 -9 -10 -11 -10 -4 -5 -5 0 -1 -1 -5 -3 -7 -8 -9 -7 -4 -3 1 0 2 2 1 -0 -2 -2 -4
0 -2 -4 -1 -3 -2 2 0 -0 -1 -5 -3 -1 -2 -3 -4 -7 -9 -11 -11 -11 -8 -4 -6 1 -2 -4 -5 -5 -5 -6 -8 -6 -5 -3 -5 -3 1 1 2 2 -3 -3 -3 -2
2 -1 1 -1 -4 -5 -5 -1 -2 -1 -3 -3 -0 -0 -1 2 3 4 -0 -3 -6 -8 -7 -8 1 -0 0 -4 -4 -3 -5 -8 -8 -7 -6 -6 -5 -6 -4 -4 2 -2 -2 -1 -3
1 1 2 1 -3 -5 -7 -7 -3 -5 -4 -4 -5 -2 1 1 1 0 -1 -3 -3 -2 -1 -1 -2 4 4 -1 -2 -0 -2 -4 -7 -10 -8 -6 -5 -5 -4 -0 1 2 -1 -0 -2

GFSSW_850_dewp_009.txt.gz
Dewpoint
-16 -15 -14 -14 -15 -16 -16 -16 -16 -17 -17 -16 -13 -11 -10 -9 -12 -12 -10 -15 -10 -9 -5 -7 4 -2 10 12 12 11 13 14 12 8 3 4 9 11 11 14 14 14 14 15 15
-17 -17 -17 -16 -14 -14 -15 -15 -16 -16 -16 -17 -18 -16 -14 -11 -10 -12 -19 -16 -7 -2 -3 -6 3 8 7 7 4 5 11 10 7 6 3 3 9 10 12 13 14 14 15 14 15
-19 -19 -18 -18 -18 -17 -16 -14 -14 -15 -15 -16 -17 -18 -18 -15 -12 -8 -5 -9 -4 -4 -4 -5 -5 1 5 5 2 3 7 6 5 5 2 3 3 6 10 13 13 14 15 15 16
-18 -19 -20 -20 -19 -18 -18 -18 -16 -15 -15 -15 -16 -17 -17 -18 -4 -3 -5 -8 -8 -8 -7 -5 -6 -5 -0 2 1 3 3 4 5 4 3 2 2 6 6 11 12 14 15 16 16
-16 -17 -18 -20 -20 -20 -19 -18 -18 -18 -15 -14 -14 -15 -17 -11 -8 -9 -5 -6 -8 -10 -11 -5 -5 -5 -1 -0 -0 1 2 2 3 4 2 2 2 6 6 11 13 13 14 15 15
-13 -14 -16 -17 -18 -20 -20 -20 -18 -18 -18 -17 -15 -15 -17 -2 -13 -4 -6 -4 -5 -7 -13 -6 -4 -4 -2 -1 -1 -2 -1 2 1 1 4 4 2 5 8 12 13 13 13 14 15
-6 -10 -13 -15 -17 -17 -18 -20 -20 -18 -18 -19 -17 -16 -15 -14 -11 -3 -4 -5 -4 -3 -4 -4 -2 -1 -4 -2 -2 -3 -2 -3 -2 -2 1 4 8 4 7 10 13 13 13 13 14
-4 -5 -7 -11 -15 -15 -16 -17 -20 -19 -18 -19 -17 -15 -9 -12 -13 -9 -3 -5 -3 -3 -3 -7 -4 -3 -4 -5 -4 -3 -5 -3 -3 -2 -2 4 10 7 5 9 11 12 13 13 13
-2 -4 -5 -7 -12 -14 -15 -15 -19 -18 -18 -18 -15 -9 4 -6 -6 -11 -6 -5 -4 -4 -3 -4 -6 -6 -7 -5 -3 -5 -3 -3 -2 -2 1 3 7 3 3 8 9 11 11 12 13
-3 -3 -4 -6 -9 -14 -15 -17 -15 -4 -1 -3 -3 6 -4 -6 -4 -6 -5 -4 -6 -7 -7 -6 -5 -5 -6 -6 -2 -3 -2 -3 -1 -0 2 6 7 7 4 5 9 9 10 11 12
-3 -3 -4 -6 -8 -14 -16 -15 -4 -1 4 5 3 -5 -10 -7 -4 -4 -5 -6 -7 -9 -5 -7 -4 -3 -5 -8 -6 -5 -4 -3 -3 1 3 9 9 8 5 6 7 9 9 10 11
-5 -5 -5 -5 -7 -14 -9 -4 -6 -9 -8 -9 -10 -3 -0 -1 -0 -5 -5 -6 -6 -3 -6 -6 -3 -5 -6 -6 -7 -5 -3 -2 -3 1 3 9 10 7 5 4 5 7 9 9 10
-9 -8 -7 -6 -9 -4 -4 -7 -8 -10 -9 -10 -11 -11 -12 -4 0 -2 -5 -5 -4 -4 -6 -5 -4 -5 -6 -5 -4 -5 -3 -2 -1 -0 2 9 12 10 6 5 6 7 7 9 9
-10 -9 -9 -8 -6 -7 -8 -6 -8 -10 -7 -8 -11 -13 -12 -11 -7 -3 -4 -5 -5 -5 -7 -5 -6 -7 -7 -8 -7 -2 -4 -4 -3 -1 4 5 11 12 9 11 11 9 6 7 9
-4 -6 -9 -9 -7 -7 -9 -7 -9 -8 -1 -8 -10 -13 -13 -13 -10 -4 -4 -6 -5 -4 -8 -8 -5 -5 -7 -10 -10 -4 -4 -4 -3 -2 6 5 6 8 9 11 11 9 6 6 7
-5 -7 -7 -9 -9 -7 -6 -9 -7 -4 -1 -7 -12 -12 -12 -13 -12 -12 -6 -8 -10 -6 -6 -6 -9 -11 -8 -9 -12 -10 -5 -3 -3 -2 2 5 5 8 8 11 11 7 6 5 6
-6 -8 -8 -7 -10 -7 -8 -7 -4 -3 -6 -6 -8 -9 -12 -11 -12 -12 -11 -10 -9 -8 -7 -9 -8 -8 -11 -8 -11 -11 -8 -1 1 2 3 -1 5 8 5 5 6 7 6 6 6
-3 -9 -11 -9 -9 -7 -3 -4 -1 -4 -6 -7 -8 -8 -7 -10 -11 -12 -9 -10 -11 -10 -6 -5 -5 -7 -8 -10 -9 -11 -10 -4 3 3 2 -0 2 3 3 5 5 6 7 6 6
-3 -9 -13 -15 -6 -3 -1 1 -4 -5 -6 -6 -7 -6 -5 -6 -5 -9 -7 -9 -11 -11 -5 -6 -5 -7 -8 -9 -11 -9 -9 -11 -6 -1 2 -0 -1 -2 3 3 4 5 6 6 5
-2 -1 -14 -7 -2 -2 -1 0 -4 -8 -7 -6 -4 -6 -4 -6 -5 -4 -6 -7 -6 -8 -8 -6 -1 -6 -8 -10 -10 -11 -10 -8 -8 -3 1 -0 1 3 2 5 6 6 6 4 4
0 0 -13 -5 -5 -1 0 -1 -3 -5 -6 -5 -4 -4 -5 -5 -6 -6 -6 -6 -8 -7 -9 -9 -7 -6 -6 -7 -8 -8 -10 -10 -8 -7 -2 2 1 -1 2 6 7 5 4 4 4
1 -0 -18 -8 -3 -4 -2 -2 -3 -3 -3 -3 -4 -3 -3 -4 -4 -6 -7 -8 -9 -8 -6 -8 -7 -4 -5 -7 -9 -10 -8 -10 -4 -4 -2 -4 -2 -2 -5 4 5 4 3 1 1
1 -0 -8 -4 -3 -2 -4 -4 -4 -5 -6 -5 -3 -3 -3 -2 -1 -4 -5 -10 -11 -9 -6 -6 -6 -2 -2 -6 -8 -7 -9 -8 -11 -5 -3 2 -2 -7 -7 -1 -1 1 3 2 -0
2 -1 -4 -3 -4 -4 -1 1 1 -1 -2 -3 -3 -2 -1 0 -1 -0 -2 -6 -11 -11 -3 1 -5 -4 -2 -2 -4 -1 -6 -8 -9 -8 -8 -7 -7 -5 -2 3 3 2 -0 -2 0
1 0 -3 1 0 -1 -0 2 -0 -1 -3 -4 -0 1 -0 3 2 2 3 2 0 -1 -3 -5 -3 -5 -4 -4 -5 -7 -4 -7 -7 -9 -6 -8 -8 -7 -6 4 4 1 1 -2 -1
1 0 1 -0 -1 -2 -2 -4 -4 -6 -2 -2 -1 1 -0 4 4 5 3 3 3 -0 -0 -1 1 2 2 -2 -5 -5 -5 -4 -8 -8 -7 -7 -6 -5 -6 -7 4 2 -2 -4 -0
0 1 2 1 -2 -2 -2 -3 -1 -3 -2 -3 -1 -2 1 -1 -0 2 0 -1 -0 2 1 -0 3 5 1 0 0 0 -5 -4 -3 -7 -7 -5 -8 -7 -5 -3 1 1 1 -3 -4

GFSSW_850_dewp_012.txt.gz
Dewpoint
-18 -18 -17 -17 -17 -16 -14 -14 -15 -15 -15 -16 -16 -17 -17 -12 -9 -10 -12 -19 -15 -12 -8 -1 6 7 15 16 15 14 12 12 12 11 10 12 13 13 14 14 14 14 14 14 14
-17 -18 -19 -19 -18 -17 -18 -17 -15 -15 -15 -15 -15 -16 -17 -18 -13 -11 -13 -11 -18 -14 -9 -5 -0 5 11 11 15 12 12 11 8 8 9 11 12 13 14 14 14 15 14 14 15
-14 -15 -16 -18 -19 -19 -19 -18 -18 -17 -16 -15 -15 -15 -16 -17 -16 -9 -7 -6 -19 -13 -2 -1 -3 4 9 8 7 7 8 7 7 7 9 12 13 13 14 14 14 15 15 15 15
-7 -11 -13 -15 -16 -18 -19 -20 -19 -18 -18 -17 -16 -15 -15 -16 -12 -3 -6 -7 -13 -7 -2 -2 -1 -4 -4 -1 -0 3 2 4 5 4 7 10 12 13 13 13 14 13 14 15 15
-5 -6 -7 -10 -13 -15 -16 -18 -20 -20 -19 -18 -18 -17 -15 -15 -15 -11 -8 -7 -7 -6 -6 -6 -3 -5 -4 -4 -2 1 0 1 3 4 4 5 10 13 12 13 14 15 15 15 15
-0 -3 -5 -7 -8 -12 -14 -14 -16 -19 -20 -19 -18 -19 -17 -9 -13 -13 -6 -9 -5 -8 -9 -9 -5 -6 -5 -3 -1 -1 -1 -2 0 4 4 3 6 8 12 14 15 15 15 16 15
-1 -1 -2 -5 -7 -8 -10 -13 -14 -16 -19 -20 -18 -19 -17 -12 -12 -4 -4 -5 -5 -5 -5 -7 -12 -4 -3 -2 -3 -2 -2 -3 -4 0 4 4 9 13 13 14 15 15 15 15 15
-3 -3 -3 -3 -5 -7 -8 -10 -14 -15 -18 -19 -18 -17 -13 -12 -10 -11 -13 -5 -3 -2 -6 -5 -10 -7 -3 -1 -4 -5 -5 -3 -5 -3 4 4 10 12 13 14 15 15 15 16 15
-5 -5 -5 -4 -4 -6 -7 -10 -15 -17 -16 -14 -13 -10 -6 -10 -7 -9 -11 -4 -5 -5 -2 -3 -6 -4 -4 -5 -4 -4 -2 -3 -4 -4 5 6 8 9 13 13 13 14 15 15 15
-7 -7 -7 -6 -5 -6 -6 -13 -10 -2 2 2 -0 2 -9 -10 -4 -7 -11 -4 -6 -5 -2 -2 -3 -4 -5 -4 -2 -2 -3 -4 -3 -5 3 6 7 7 13 13 13 13 13 13 15
-7 -11 -10 -8 -6 -6 -9 -10 -6 -3 -4 -4 -0 -8 -11 -7 -8 -5 -7 -7 -7 -5 -5 -6 -4 -1 -3 -5 -6 -5 -4 -3 -4 -4 5 6 6 6 10 12 13 13 13 13 13
-4 -7 -10 -10 -8 -8 -5 -6 -3 -3 -4 -9 -8 -6 -8 -7 -1 -2 -6 -7 -5 -5 -7 -5 -4 -5 -5 -6 -6 -6 -5 -4 -5 -4 3 7 6 6 8 9 11 12 12 13 13
-6 -7 -7 -10 -7 -7 -4 -5 -5 -6 -8 -11 -10 -9 -9 -9 -2 -2 -1 -4 -6 -5 -5 -5 -5 -6 -4 -4 -4 -6 -6 -6 -3 -4 3 8 9 8 6 7 8 10 11 12 12
-5 -7 -8 -8 -7 -8 -7 -6 -8 -7 -7 -8 -10 -11 -11 -11 -6 -9 -2 -5 -4 -5 -4 -4 -7 -6 -5 -3 -4 -3 -6 -6 -5 -2 1 7 10 11 9 7 6 9 9 10 11
-7 -10 -9 -8 -8 -9 -7 -7 -8 -7 -1 -6 -10 -12 -11 -11 -11 -9 -5 -3 -3 -4 -5 -4 -5 -6 -3 -4 -5 -5 -6 -4 -3 -2 -0 3 8 8 9 9 10 8 8 9 10
-6 -10 -11 -11 -10 -6 -7 -8 -7 -6 -2 -6 -10 -12 -11 -12 -12 -9 -6 -3 -6 -4 -5 -5 -8 -6 -5 -7 -6 -8 -8 -4 -3 -2 2 5 7 6 11 8 8 7 8 8 9
-5 -9 -15 -12 -14 -10 -8 -7 -6 -2 -7 -5 -6 -9 -11 -11 -12 -12 -3 -2 -2 -3 -2 -3 -4 -7 -9 -7 -7 -9 -8 -4 -1 0 2 -1 5 5 6 7 7 7 6 7 8
-4 -8 -16 -21 -20 -13 -3 -6 -2 -5 -6 -7 -6 -7 -9 -12 -12 -13 -10 -1 -3 -9 -6 -3 -2 -8 -9 -7 -7 -7 -9 -6 -2 1 1 -1 3 3 4 6 7 6 6 7 6
-4 -8 -18 -13 -9 -3 0 2 -3 -5 -5 -4 -5 -5 -5 -6 -6 -10 -11 -10 -6 -7 -7 -6 -6 -9 -10 -10 -8 -6 -8 -11 -6 -2 0 -0 -1 -2 -1 4 7 7 7 7 6
-3 -3 -20 -3 -3 -0 1 2 -2 -4 -5 -4 -3 -5 -1 -2 -3 -4 -6 -10 -10 -10 -11 -9 -5 -8 -10 -10 -10 -9 -10 -8 -7 -4 -3 -3 -0 0 -1 0 5 6 7 7 6
-2 1 -18 -6 -8 -1 2 1 -2 -5 -4 -2 -1 -0 -1 -1 -2 -2 -3 -8 -9 -10 -12 -11 -6 -6 -8 -8 -6 -6 -8 -8 -9 -8 -5 -1 -4 -5 -2 -0 3 6 7 6 6
-0 0 -11 -3 -3 -3 1 -1 -3 -3 -4 -3 -3 -2 -2 -2 -1 -1 -1 -4 -5 -4 -4 -10 -10 -6 -5 -8 -8 -7 -8 -9 -7 -6 -6 -8 -6 -6 -4 -3 3 5 5 7 7
0 1 -6 -3 -1 0 1 -0 -1 -1 -1 -1 -2 -2 -1 1 1 -0 0 -2 0 0 3 -0 -4 -3 -5 -7 -8 -6 -8 -10 -9 -8 -7 -2 -5 -7 -8 -7 1 4 5 5 6
0 1 -2 -2 -1 -1 0 1 0 -1 -3 -3 -3 -0 0 -0 1 3 3 2 0 0 1 -1 -2 -5 -3 -5 -6 -5 -6 -8 -10 -7 -7 -6 -5 -7 -7 -4 -1 2 3 4 3
0 0 -0 0 -0 -1 -2 -2 1 0 -3 -3 -2 -2 1 2 3 3 2 2 -0 0 -1 1 2 -2 -1 -4 -7 -6 -5 -7 -7 -9 -8 -8 -8 -9 -9 -7 -7 -11 2 3 2
1 1 1 0 -0 -2 -2 -2 2 1 -0 -2 -1 -1 -0 2 2 3 2 3 2 0 0 0 2 1 2 -1 -6 -5 -5 -5 -5 -7 -8 -9 -9 -10 -11 -11 -4 -4 -3 2 1
0 1 1 1 -1 -1 -1 -2 -2 -2 1 -1 -2 -1 -0 -0 -0 -1 -0 1 1 2 1 1 1 1 4 0 -4 -2 -4 -5 -6 -6 -7 -7 -8 -7 -7 -5 -4 -6 -6 -2 3

GFSSW_850_dewp_015.txt.gz
Dewpoint
-14 -15 -16 -18 -19 -19 -18 -18 -17 -17 -16 -15 -15 -15 -15 -17 -17 -14 -12 -19 -17 -7 -0 4 12 14 15 17 17 14 14 13 11 11 12 13 14 14 14 15 14 14 13 14 14
-7 -9 -13 -14 -16 -18 -19 -19 -18 -18 -18 -17 -15 -15 -15 -16 -16 -15 -11 -8 -12 -15 -9 4 13 16 17 17 16 14 13 12 8 8 12 13 13 14 14 14 14 14 14 14 15
-4 -6 -7 -7 -11 -14 -16 -17 -19 -19 -19 -18 -18 -16 -15 -15 -15 -13 -7 -5 -8 -15 -12 -9 7 15 13 10 15 14 14 10 8 6 11 12 13 13 14 14 14 14 15 15 15
-0 -0 -2 -5 -6 -8 -11 -14 -15 -17 -19 -20 -19 -18 -17 -15 -13 -4 -7 -7 -15 -16 -8 -2 1 9 4 9 10 7 9 11 7 4 12 12 13 13 13 13 13 10 12 15 16
-2 -2 -1 -1 -3 -6 -7 -9 -13 -14 -16 -19 -20 -19 -18 -16 -13 -10 -8 -6 -14 -15 -8 1 1 -1 -5 -4 -1 7 5 2 2 2 9 12 13 13 13 13 13 13 14 15 15
-3 -4 -4 -3 -2 -3 -6 -7 -9 -13 -14 -16 -19 -21 -19 -14 -11 -12 -14 -13 -6 -8 -3 -2 -4 -2 -5 -4 -3 -1 -1 -1 -1 -2 9 12 13 13 13 14 15 14 15 15 15
-3 -4 -5 -5 -4 -3 -3 -5 -7 -9 -14 -15 -17 -21 -19 -14 -12 -11 -8 -7 -11 -7 -5 -7 -8 -5 -6 -4 -3 -3 -1 -4 -3 -4 8 10 13 14 13 14 15 15 15 15 15
-5 -7 -7 -7 -6 -5 -3 -3 -7 -9 -13 -16 -18 -19 -15 -16 -15 -12 -8 -9 -8 -6 -6 -6 -5 -6 -3 -3 -3 -5 -5 -2 -4 -4 -1 8 11 11 14 15 15 15 15 15 15
-7 -7 -8 -8 -8 -7 -3 -5 -10 -12 -9 -6 -10 -12 -10 -13 -15 -14 -11 -10 -9 -4 -5 -2 -2 -4 -4 -2 -3 -4 -0 -2 -3 -5 5 5 9 13 14 15 15 15 15 15 15
-6 -8 -8 -8 -8 -7 -6 -8 -5 1 1 3 3 2 -7 -11 -1 -2 -6 -10 -7 -4 -2 -2 -4 -4 -4 -4 1 -2 -3 -4 -3 -4 4 6 8 13 14 14 15 15 15 15 16
-8 -7 -8 -9 -8 -7 -6 -5 -4 -2 -3 -4 0 -2 -7 -7 -7 -4 -3 -10 -9 -5 -2 -3 -1 -1 -3 -4 -5 -4 -4 -3 -4 -4 4 5 7 14 14 14 15 15 15 15 15
-12 -14 -14 -11 -9 -6 -7 -5 -4 -3 -2 -6 -7 -7 -9 -7 -5 -6 -1 -9 -6 -4 -5 -4 -2 -2 -3 -4 -4 -5 -4 -4 -5 -5 -1 4 6 13 13 13 14 15 15 15 15
-13 -14 -15 -18 -9 -6 -7 -5 -6 -5 -4 -8 -8 -8 -8 -8 -4 -7 -4 -9 -5 -3 -5 -3 -5 -5 -4 -3 -4 -4 -4 -4 -5 -4 -2 7 9 9 13 13 13 13 14 14 14
-13 -15 -15 -18 -12 -12 -6 -7 -7 -5 -7 -8 -10 -11 -9 -8 -3 -9 -5 -7 -5 -4 -5 -5 -7 -5 -4 -3 -3 -2 -5 -6 -6 -4 -2 6 10 9 10 14 13 13 13 13 13
-10 -15 -15 -14 -13 -15 -7 -7 -8 -6 1 -4 -10 -11 -10 -9 -10 -6 -9 -2 -3 -5 -4 -3 -4 -5 -4 -5 -4 -3 -5 -4 -3 -3 -2 -0 6 6 8 10 10 11 12 13 13
-8 -12 -14 -11 -13 -12 -14 -9 -6 -7 -2 -6 -10 -11 -10 -11 -12 -6 -6 -2 -4 -4 -5 -5 -6 -6 -5 -6 -6 -5 -5 -7 -3 -2 1 -2 1 1 10 8 8 7 9 11 12
-6 -10 -14 -11 -11 -14 -16 -6 -6 -4 -7 -4 -5 -6 -7 -11 -11 -8 -4 -2 -2 -1 -1 -3 -4 -8 -7 -5 -5 -5 -6 -2 -3 -0 -0 -3 3 -0 3 7 6 7 7 9 9
-4 -9 -15 -6 -1 -12 -10 -6 -4 -5 -6 -5 -4 -5 -6 -5 -10 -9 -4 -2 -2 -5 -2 -0 -0 -4 -7 -5 -4 -5 -5 -2 -2 0 -1 -2 2 1 1 3 6 5 6 6 8
-4 -11 -10 -2 -3 -1 -1 -2 -4 -5 -4 -3 -4 -3 -2 -3 -4 -3 -5 -3 -2 -7 -4 -1 -1 -7 -5 -8 -7 -6 -4 -7 -6 -2 -2 -1 -2 -3 -2 1 5 6 6 7 7
-3 -7 -5 -4 -3 -3 1 1 -2 -4 -4 -3 -2 -1 1 -1 -2 -1 -2 -6 -5 -3 -8 -7 -5 -8 -8 -7 -8 -7 -8 -6 -7 -2 -2 -3 -2 -2 -1 -2 4 7 6 6 7
-2 -2 -8 -4 -3 -0 2 1 -1 -3 -4 -2 -1 -0 -1 -0 -1 -1 -1 -2 -0 -0 -3 -6 -7 -7 -8 -8 -6 -7 -6 -8 -7 -6 -4 -3 -4 -6 -2 -1 0 4 6 6 7
-0 -1 -5 -5 -3 -2 0 -0 -1 -2 -2 -2 -3 -2 -1 0 0 -1 -1 -1 0 1 4 1 -6 -5 -6 -8 -10 -9 -8 -7 -5 -5 -6 -6 -5 -7 -5 -4 -2 -2 1 2 1
0 1 -3 -1 0 -2 -2 -2 -1 -1 -1 -2 -1 -2 -1 0 1 2 2 1 0 1 4 3 1 -4 -6 -8 -8 -7 -7 -8 -8 -8 -5 -5 -5 -9 -7 -5 -5 -1 -0 -5 -3
1 0 -1 -1 -1 -1 -0 -2 0 -0 -2 -3 -3 -1 0 -0 1 2 2 1 -0 -0 2 0 1 0 -1 -4 -5 -5 -6 -7 -7 -5 -5 -6 -7 -7 -7 -6 -7 -4 -6 -5 -0
0 -1 0 0 -0 -0 -1 -2 1 2 1 -2 -2 -1 1 2 3 2 1 2 0 0 -0 0 2 0 1 -0 -1 -2 -5 -7 -6 -7 -6 -6 -8 -9 -6 -6 -7 -9 -9 -7 3
0 1 0 0 -1 -1 -2 -1 0 -1 1 2 -0 -2 -1 1 1 2 1 3 2 0 0 -0 3 1 1 -1 -0 -1 -5 -5 -7 -7 -8 -8 -7 -9 -9 -9 -9 -10 -11 -7 1
1 0 1 1 0 -0 -1 -1 -1 -2 -0 1 -2 -2 -2 -1 0 -1 -0 -0 -0 1 0 1 2 2 3 0 1 1 -3 -5 -6 -7 -7 -6 -8 -10 -10 -9 -9 -11 -12 -10 -12

GFSSW_850_dewp_018.txt.gz
Dewpoint
-5 -6 -7 -10 -13 -15 -16 -18 -19 -19 -18 -17 -16 -15 -15 -14 -14 -15 -13 -14 -14 -12 2 7 11 13 15 17 17 16 15 14 11 13 12 15 14 14 14 14 14 13 13 13 13
0 -0 -2 -5 -6 -8 -11 -14 -16 -18 -19 -18 -18 -17 -16 -15 -14 -12 -11 -12 -13 -13 1 8 14 15 16 17 17 15 14 13 9 9 12 14 14 14 15 14 14 14 13 12 13
-0 -1 -1 -1 -1 -4 -6 -8 -12 -14 -16 -18 -19 -19 -18 -17 -15 -13 -7 -5 -9 -13 -1 6 14 15 16 15 16 15 16 11 9 8 8 13 14 14 14 14 14 15 14 13 13
-2 -3 -4 -4 -3 -2 -3 -6 -7 -11 -13 -15 -18 -20 -19 -18 -11 -6 -7 -7 -4 -12 -6 10 16 16 12 14 14 12 11 13 10 8 11 13 13 14 14 13 12 13 12 13 13
-2 -3 -4 -5 -6 -5 -4 -3 -5 -7 -9 -13 -15 -18 -20 -18 -14 -11 -7 -8 -4 -6 -6 4 15 13 6 6 10 11 9 7 6 5 4 12 13 13 14 13 13 14 13 14 13
-5 -6 -6 -7 -7 -7 -6 -4 -4 -5 -7 -10 -14 -16 -20 -16 -13 -12 -11 -11 -11 -8 -4 -1 9 10 -2 -5 4 -0 3 5 1 -1 3 12 13 13 13 13 14 14 15 14 14
-6 -7 -7 -7 -7 -7 -6 -6 -4 -3 -6 -8 -13 -15 -18 -17 -14 -11 -10 -13 -10 -14 -3 -1 -2 -1 -2 -4 -5 -3 -1 -2 -2 -2 7 11 14 14 13 14 14 14 15 15 14
-10 -9 -8 -8 -8 -8 -6 -6 -3 -3 -6 -11 -15 -16 -15 -17 -17 -16 -7 -9 -9 -8 -13 -7 -2 -2 -4 -4 -4 -4 -4 -1 -3 -1 6 12 14 13 13 14 14 14 15 15 15
-15 -16 -17 -16 -12 -9 -6 -6 -6 -7 -6 -4 -8 -15 -13 -14 -16 -16 -14 -6 -8 -7 -4 -3 -2 -2 -3 -3 -2 -3 0 -2 -2 -5 3 12 10 12 13 14 15 14 15 15 15
-16 -17 -19 -21 -19 -7 -6 -6 -3 2 3 2 4 -1 -7 -8 -3 -10 -14 -12 -11 -5 -2 0 -1 -2 -3 -2 -3 0 -2 -3 -2 -3 7 10 7 12 14 14 15 15 15 15 15
-16 -17 -18 -22 -22 -6 -7 -5 -4 -2 -3 2 2 -1 -6 -9 -3 -4 -2 -11 -10 -7 -1 -2 -1 -0 -3 -4 -3 -2 -3 -2 -4 -5 1 6 9 14 14 14 14 15 15 15 15
-15 -15 -16 -21 -22 -7 -5 -5 -5 -3 -1 -5 -5 -4 -4 -3 -6 -4 -2 -8 -6 -3 -3 -3 1 -1 -4 -4 -4 -4 -3 -3 -5 -6 -5 -4 2 14 14 14 14 14 15 15 15
-16 -15 -14 -19 -21 -15 -6 -6 -6 -3 -2 -6 -6 -6 -5 -6 -4 -7 -3 -8 -6 -4 -3 -2 -3 -2 -2 -3 -3 -3 -3 -3 -3 -5 -5 3 6 7 14 14 14 14 14 15 15
-15 -13 -12 -15 -16 -17 -7 -7 -10 -3 -5 -6 -9 -9 -8 -7 -4 -7 -5 -7 -5 -5 -4 -4 -5 -3 -3 -2 -3 -1 -5 -5 -5 -5 -2 3 5 9 13 15 14 14 15 14 15
-16 -11 -9 -9 -11 -16 -11 -15 -8 -5 2 -4 -10 -10 -8 -7 -8 -6 -8 -6 -4 -4 -4 -3 -4 -4 -3 -4 -4 -2 -5 -5 -4 -4 -3 1 1 2 12 15 14 13 14 14 14
-17 -13 -7 -8 -10 -7 -14 -18 -4 -3 2 -5 -10 -10 -8 -9 -11 -6 -5 -2 -5 -4 -5 -3 -6 -5 -5 -6 -5 -5 -5 -6 -3 -2 0 -2 -0 1 10 13 14 13 13 13 13
-14 -11 -6 -2 -3 -3 -8 -10 -6 -2 -5 -4 -4 -6 -6 -8 -10 -6 -4 -2 -2 -1 -1 -3 -3 -6 -7 -5 -5 -5 -3 -0 -1 0 1 -3 0 -1 2 7 8 11 12 12 13
-11 -9 -6 -3 -4 -4 -7 -6 -3 -5 -6 -5 -4 -4 -4 -3 -4 -3 -4 -1 -3 -3 -1 -1 -0 -4 -6 -5 -4 -4 -4 0 1 -0 -1 -2 0 -1 -3 3 5 6 7 10 11
-9 -11 -5 -4 -4 -5 -1 -3 -4 -5 -4 -3 -3 -2 -1 -2 -3 -3 -3 -5 -2 -6 -1 -0 -0 -5 -6 -7 -6 -4 -3 -6 -5 -3 -3 -1 -2 -3 -1 -1 4 5 5 6 8
-5 -7 -5 -4 -4 -4 0 0 -1 -3 -3 -3 -1 -1 1 -0 -1 -1 -2 1 1 -1 -3 -5 -1 -6 -4 -7 -7 -7 -7 -3 -5 -1 -0 -2 -3 -0 -1 -0 0 5 6 6 6
-3 -3 -5 -5 -3 -0 -1 1 0 -1 -2 -1 -1 -0 -0 0 -1 -1 -1 1 0 2 0 0 -7 -6 -7 -4 -3 -5 -5 -6 -5 -4 -1 -2 -2 -4 -3 -0 -1 -1 3 3 5
-0 -1 -3 -2 -3 -2 -1 -3 0 -0 -2 -2 -2 -1 0 0 0 -1 2 2 -0 1 4 3 -2 -3 -5 -9 -7 -5 -5 -6 -3 -3 -6 -4 -4 -7 -7 -6 -2 -3 -3 -3 -1
1 0 -3 -3 -1 -1 -2 -3 -3 2 1 -2 -2 -1 -1 1 -0 2 1 1 -1 0 4 2 0 -2 -6 -8 -8 -8 -6 -6 -7 -6 -3 -3 -4 -9 -8 -5 -7 -4 -5 -2 -1
1 -0 -1 -1 -1 -1 -0 -1 -2 -1 2 1 -2 -1 1 1 0 1 2 0 -1 -0 2 0 1 -0 0 -2 -1 -1 -5 -7 -6 -4 -4 -4 -5 -7 -8 -5 -6 -7 -9 -9 -5
0 -2 -0 0 -1 -1 -1 -2 1 1 -0 2 2 -1 0 2 2 2 1 1 -1 1 -1 -0 1 0 0 0 -0 -0 -1 -2 -5 -6 -5 -6 -6 -6 -6 -5 -6 -12 -11 -9 -9
-0 0 1 0 -0 -1 -2 -2 -0 -2 0 1 3 2 -2 0 1 2 1 1 1 -0 -1 -0 2 1 2 -0 -1 0 -0 -1 -3 -4 -5 -6 -6 -8 -8 -10 -8 -9 -10 -9 -10
0 0 1 0 1 1 -1 -1 -2 -2 -2 0 2 -1 -1 -2 -0 -1 -1 -1 -1 1 -0 0 2 2 3 0 1 1 -3 -3 -4 -5 -6 -4 -6 -9 -8 -6 -6 -10 -11 -10 -10

GFSSW_850_dewp_021.txt.gz
Dewpoint
2 1 0 -0 -2 -5 -7 -10 -14 -17 -18 -17 -17 -16 -16 -15 -14 -13 -12 -12 -13 -13 -1 7 9 13 16 16 16 15 16 15 11 13 12 14 14 14 14 14 13 14 14 14 15
1 1 -0 -2 -2 -1 -2 -5 -8 -12 -14 -17 -18 -18 -17 -17 -15 -13 -10 -10 -12 -13 -5 7 14 15 16 16 16 15 15 13 10 10 7 13 13 14 14 13 13 14 14 14 15
-0 -1 -1 -2 -3 -4 -3 -1 -3 -7 -10 -13 -16 -18 -19 -18 -16 -11 -8 -8 -11 -13 -13 8 14 15 15 16 16 16 15 12 9 8 7 11 13 14 14 14 13 14 15 15 15
-5 -5 -5 -5 -6 -6 -6 -5 -2 -2 -6 -8 -13 -15 -18 -20 -11 -11 -7 -5 -6 -13 -9 15 15 14 13 15 15 16 14 12 9 8 8 11 13 13 14 13 12 14 14 15 15
-7 -7 -7 -7 -7 -7 -6 -6 -5 -3 -2 -6 -8 -13 -16 -18 -16 -11 -8 -10 -6 -7 8 13 14 13 11 13 13 15 10 9 8 7 5 7 12 12 14 13 13 14 14 14 14
-15 -15 -15 -14 -12 -10 -8 -7 -5 -4 -2 -3 -7 -10 -15 -15 -17 -13 -11 -11 -6 8 10 12 13 11 8 2 9 7 6 0 2 3 1 7 9 13 12 14 14 15 14 14 14
-17 -18 -19 -19 -19 -18 -14 -6 -4 -4 -2 -3 -5 -8 -12 -15 -17 -13 -12 -11 -10 -7 9 6 5 9 2 -2 -0 -1 -2 -3 -3 -2 -1 4 12 13 13 14 14 15 15 14 14
-17 -17 -18 -20 -21 -22 -6 -6 -6 -5 -4 -5 -8 -10 -10 -14 -15 -8 -6 -11 -9 -6 0 2 2 5 -1 -3 -4 -2 -2 -2 -4 -3 1 5 3 10 13 14 14 14 14 15 15
-17 -18 -19 -20 -21 -20 -7 -6 -4 1 -1 -3 -5 -11 -9 -13 -16 -16 -7 -10 -8 2 0 0 0 -0 -2 -3 -3 -3 -1 -1 -2 -3 5 8 3 6 13 13 14 14 14 14 15
-17 -18 -22 -23 -22 -16 -9 -5 -3 -2 4 3 2 -4 -9 -7 -12 -16 -10 -6 1 2 1 -1 -1 0 -2 -2 -2 -2 -2 -2 -0 -2 -0 7 7 8 13 13 14 14 14 14 14
-18 -18 -21 -24 -23 -14 -8 -5 -4 -1 -4 4 5 0 -2 -6 -0 -5 -15 -5 -5 -0 -1 -0 -1 1 -1 -3 -5 -5 -4 -2 -3 -4 2 5 7 9 13 13 13 14 14 14 14
-18 -17 -18 -25 -24 -14 -7 -6 -5 -4 -1 -6 -5 -3 -2 -2 -4 -1 -11 -11 -7 -3 -2 -0 0 -3 -3 -3 -3 -5 -4 -2 -3 -5 -4 -1 1 2 11 13 13 14 14 14 14
-15 -16 -16 -24 -21 -20 -11 -4 -7 -8 -0 -4 -5 -4 -5 -4 -3 -4 -7 -10 -7 -5 -4 -2 -3 -3 -2 -2 -3 -5 -6 -4 -2 -4 -5 -2 -1 2 10 12 13 14 14 14 14
-14 -13 -12 -20 -16 -18 -6 -4 -10 -6 -2 -4 -7 -6 -5 -5 -4 -5 -4 -7 -8 -5 -5 -5 -4 -2 -1 -1 -4 -5 -7 -6 -3 -2 0 -0 3 5 5 12 13 13 14 14 14
-13 -11 -10 -9 -9 -5 -5 -7 -11 -3 -5 -5 -9 -9 -6 -6 -7 -5 -6 -5 -7 -7 -4 -3 -2 -1 -1 -2 -3 -6 -6 -5 -4 -2 -2 -2 2 1 8 11 13 13 13 14 14
-13 -12 -9 -6 -5 -4 -5 -10 -4 -4 -2 -4 -10 -9 -6 -7 -9 -5 -5 -4 -6 -6 -6 -6 -5 -3 -3 -3 -3 -4 -3 -3 -2 -2 1 -1 -0 1 2 6 9 11 12 13 14
-9 -10 -6 -4 -4 -5 -5 -8 -4 -2 -5 -3 -4 -5 -5 -6 -8 -5 -4 -2 -2 -3 -2 -4 -4 -5 -5 -4 -4 -4 -3 -0 -1 -0 1 -2 0 1 -1 4 2 9 11 13 13
-10 -10 -5 -4 -5 -6 -4 -6 -2 -6 -4 -4 -3 -4 -4 -3 -5 -4 -4 -3 -3 -6 -5 -2 -1 -4 -6 -4 -4 -3 -4 -4 -0 -2 -3 0 1 -0 -2 -3 2 4 8 11 13
-9 -11 -4 -5 -8 -5 -3 -7 -4 -1 -1 -1 -3 -1 -2 -2 -3 -3 -3 -4 -2 -4 -3 -3 -3 -4 -5 -6 -6 -3 -1 -6 -5 -3 -3 -4 -3 -2 -2 -2 1 3 4 7 10
-7 -8 -4 -5 -3 -2 -3 -2 -0 -1 -1 -2 0 -1 1 -0 -1 -2 -1 1 -1 -0 -0 -2 0 -4 -4 -6 -6 -5 -5 -3 -4 -2 -2 -3 -1 -3 1 -0 -0 2 2 4 5
-6 -3 -4 -4 -4 -3 -1 -1 -2 -1 -0 -1 -1 -0 -1 0 -1 -1 2 -0 -0 1 1 -0 -2 -3 -3 -3 -3 -4 -3 -4 -5 -5 -6 -5 -7 -2 1 4 2 1 1 2 4
-2 -3 -4 -5 -5 -3 -3 -3 -3 -2 0 -1 -3 -1 -0 -0 -0 0 3 1 -2 1 3 1 -3 -1 -2 -4 -6 -5 -4 -3 -3 1 -4 -5 -7 -5 -4 -1 1 -1 -0 2 5
1 -0 -3 -3 -1 -1 -2 -2 -4 -1 0 2 -0 -1 -1 1 0 1 1 0 -2 1 3 0 1 2 -0 -4 -6 -3 -4 -4 -5 -4 0 -3 -6 -8 -4 -3 -4 -4 -3 -2 -0
0 -1 -2 -2 -1 -3 -2 -2 -2 -2 0 2 2 -2 -1 0 0 1 1 -1 -2 1 2 0 1 2 1 -0 -1 0 -4 -3 -4 -1 -2 -2 -5 -5 -4 -2 -3 -2 -2 -4 -8
-1 -1 -0 -1 -2 -2 -1 -1 -1 -1 -3 -1 3 3 1 1 0 1 0 -1 -2 -0 -2 -0 1 1 -0 -1 -1 -1 -2 -2 -2 -2 -0 -3 -3 -4 -4 -2 -3 -4 -2 -7 -8
1 -0 1 -0 -1 -1 -2 -2 -1 -2 -2 -2 3 1 1 3 -0 1 1 1 0 -1 -1 -1 0 2 0 -2 -2 -1 -2 -2 -2 -2 -3 -4 -3 -6 -5 -5 -3 -6 -6 -6 -7
-1 -0 1 1 -1 1 -2 -3 -2 -2 -2 -1 1 0 -1 -2 -2 -2 -2 -2 -2 -1 -0 0 1 2 0 -1 -1 0 -2 -2 -3 -3 -3 -2 -3 -5 -5 -3 -3 -3 -3 -4 -10

GFSSW_850_dewp_024.txt.gz
Dewpoint
2 2 1 -0 -1 -2 -2 -1 -4 -8 -11 -15 -17 -17 -17 -16 -16 -15 -13 -11 -12 -13 -9 14 15 15 14 14 15 14 13 11 9 10 10 12 12 13 13 13 12 13 13 14 15
-2 -2 -2 -3 -3 -3 -4 -4 -2 -2 -7 -10 -14 -16 -17 -17 -17 -15 -10 -10 -12 -13 6 12 14 14 13 12 13 13 12 9 7 6 6 9 11 13 12 12 12 13 13 15 15
-7 -7 -7 -6 -6 -6 -5 -5 -4 -3 -1 -5 -9 -13 -15 -18 -11 -11 -11 -10 -10 -12 5 10 10 11 9 11 12 11 12 8 7 6 6 7 11 12 11 12 11 13 14 15 15
-17 -17 -17 -16 -14 -11 -9 -7 -5 -4 -3 -2 -4 -8 -13 -17 -8 -4 -7 -6 -8 -3 5 8 10 10 9 11 10 12 10 10 7 6 5 4 9 12 11 10 11 13 14 14 14
-17 -18 -19 -20 -21 -21 -20 -15 -11 -5 -3 -3 -2 -5 -9 -5 -11 -12 -7 -8 -8 5 6 7 9 7 6 7 8 11 8 7 7 6 5 2 7 9 11 11 11 13 14 14 14
-19 -19 -20 -22 -21 -21 -23 -20 -8 -5 -4 -3 -3 -3 -7 -7 -14 -14 -11 -12 4 7 6 6 7 6 5 5 8 7 8 6 0 1 2 1 5 8 10 12 12 13 13 13 13
-20 -22 -24 -24 -24 -23 -23 -12 -6 -5 -4 -3 -3 -4 -1 -7 -14 -13 2 5 8 8 6 5 5 7 3 4 1 5 5 -1 -2 -1 -1 -1 2 8 9 12 13 13 13 13 13
-21 -23 -25 -25 -27 -26 -23 -12 -6 -5 -3 -4 -4 -5 -1 -6 -8 -13 1 6 9 8 4 5 6 6 2 -2 -3 -1 -1 1 -0 -1 -2 0 4 6 9 12 13 13 13 13 13
-21 -22 -25 -26 -27 -27 -16 -11 -5 -4 -3 -1 -5 1 -3 -8 -9 -10 2 4 8 6 5 5 5 3 3 2 -1 -3 1 2 2 -1 0 2 3 3 9 11 12 13 13 13 13
-21 -22 -24 -26 -26 -24 -17 -8 -5 -3 2 4 5 1 -3 -6 -6 -12 -0 -1 7 6 3 2 1 -3 -1 1 3 0 -0 -0 1 0 -0 1 4 2 7 9 10 13 13 13 13
-18 -21 -23 -26 -25 -17 -21 -2 1 4 0 3 3 -1 -1 -5 -2 -10 -8 -1 4 4 -1 -3 -3 -3 -5 -4 -4 -3 -2 -0 -1 -0 0 2 2 2 5 9 9 12 13 13 13
-16 -19 -22 -24 -23 -16 -10 -4 -2 -3 -3 -6 -6 -2 1 0 -1 -7 -9 -2 -3 2 -3 -3 -2 -6 -7 -8 -5 -4 -3 -2 -2 -2 -2 0 1 1 3 9 9 11 12 13 13
-15 -16 -22 -24 -20 -8 -2 -2 -1 -2 -3 -6 -5 -6 -4 -3 -3 -4 -10 -6 -3 -2 -4 -4 -5 -7 -7 -5 -4 -4 -3 -3 -2 -2 -3 -1 1 1 -2 3 7 9 11 12 13
-12 -13 -18 -23 -6 -7 -3 -2 -1 -2 -2 -9 -6 -5 -5 -4 -4 -4 -11 -8 -7 -3 -5 -5 -6 -5 -5 -4 -5 -4 -7 -6 -5 -2 2 -1 4 3 1 3 5 7 9 11 12
-11 -14 -17 -11 -6 -2 -2 -2 -2 0 -6 -6 -8 -7 -6 -4 -5 -5 -4 -13 -10 -7 -6 -4 -5 -5 -4 -4 -6 -6 -11 -8 -7 -5 -2 0 2 1 1 2 2 5 7 10 11
-10 -13 -14 -3 -1 -2 -2 -3 0 -2 -6 -5 -9 -8 -6 -5 -6 -5 -4 -10 -11 -8 -7 -6 -8 -7 -5 -6 -6 -7 -8 -9 -7 -6 -1 -0 1 2 1 2 1 4 7 10 11
-10 -12 -8 -7 -3 -3 -5 -1 -5 -6 -9 -3 -5 -6 -7 -7 -5 -6 -4 -3 -2 -3 -3 -5 -6 -6 -7 -4 -5 -5 -5 -2 -3 -3 -2 -2 -0 1 -1 -2 -0 1 2 9 10
-9 -11 -5 -4 -4 -5 -3 -5 -6 -8 -2 -4 -4 -4 -3 -6 -6 -7 -3 -2 -4 -4 -5 -3 -2 -6 -6 -4 -3 -3 -5 -6 -1 -5 -5 -4 0 -0 -2 -3 -3 -1 -1 5 10
-10 -4 -4 -5 -5 -2 -3 -8 -11 0 -1 -1 -3 -2 -3 -4 -4 -5 -5 -3 -4 -4 -2 -3 -3 -8 -7 -6 -6 -3 -2 -9 -8 -6 -5 -7 -5 -4 -4 -3 -3 -3 -2 0 8
-6 -3 -5 -5 -4 -2 -4 -7 -4 -4 -3 -3 -1 -2 1 -1 -1 -3 -5 -2 -3 -5 -3 -3 -1 -6 -7 -7 -7 -5 -6 -5 -7 -2 -1 -7 -4 -3 -3 -1 -2 -2 -2 -1 4
-3 -5 -5 -4 -5 -8 -7 -6 -6 -7 -4 -3 -1 -1 -1 -0 -1 -2 -1 -1 -1 -2 0 -2 -2 -3 -5 -4 -5 -5 -4 -5 -7 -7 -4 -4 -7 -7 -5 -2 -2 -2 -2 -1 2
-3 -7 -4 -4 -8 -7 -6 -5 -6 -7 -6 -3 -4 -4 -1 -1 -0 -0 1 0 -2 -0 1 -1 -2 1 -3 -6 -7 -7 -5 -5 -4 -1 -5 -5 -8 -10 -8 -7 -3 -4 -3 -2 -1
-2 -3 -4 -5 -5 -5 -6 -5 -6 -5 -3 -1 -0 -2 -3 -1 1 -0 1 -2 -2 0 2 0 -1 1 -0 -3 -4 -4 -5 -5 -6 -6 -0 -3 -7 -8 -5 -3 -2 -2 -2 -1 1
-2 -5 -6 -5 -4 -4 -3 -4 -5 -6 -5 -5 3 1 -0 -3 -2 0 -0 -2 -3 -2 1 1 0 1 1 -0 -2 -1 -4 -5 -5 -2 -4 -3 -5 -6 -7 -5 -4 -5 -4 -4 0
-1 -4 -2 -3 -3 -3 -3 -5 -4 -3 -5 -6 2 3 3 1 -2 -2 -1 -2 -3 -3 -3 -1 2 2 1 -0 -1 -3 -3 -4 -3 -3 -2 -4 -3 -5 -6 -5 -5 -5 -5 -5 -3
-1 -1 -1 -1 -2 -3 -4 -4 -4 -4 -4 -3 -2 -0 -1 4 1 2 -0 -1 -1 -2 -2 -3 2 1 2 -1 -1 -1 -2 -3 -3 -3 -3 -3 -3 -6 -6 -5 -5 -5 -5 -5 -5
2 1 1 -1 -2 -2 -3 -4 -2 -4 -4 -4 -4 -3 -3 -1 -1 -1 -3 -3 -3 -1 -1 -1 -1 2 2 -1 -1 1 -1 -2 -2 -3 -2 -1 -2 -4 -4 -4 -5 -6 -6 -6 -4

GFSSW_850_dewp_027.txt.gz
Dewpoint
-6 -6 -6 -5 -5 -4 -4 -4 -3 -2 -1 -5 -10 -13 -16 -17 -16 -15 -12 -7 -8 -12 -5 9 11 13 13 13 12 12 14 13 8 9 9 8 7 9 11 11 11 12 14 14 15
-17 -17 -16 -15 -13 -11 -9 -7 -6 -4 -3 -1 -4 -10 -12 -15 -16 -8 -8 -8 -9 -12 2 9 10 12 11 11 10 11 15 16 5 4 6 7 8 8 10 10 11 11 13 14 14
-18 -19 -20 -20 -21 -21 -21 -20 -14 -7 -5 -3 -1 -5 -9 -12 -3 -7 -7 -9 -10 -11 0 7 10 10 9 8 8 9 12 14 5 5 4 6 8 8 7 10 11 12 14 14 14
-22 -23 -23 -24 -23 -22 -22 -23 -24 -22 -13 -6 -3 -2 -6 -11 -5 2 -10 -9 -10 -8 -1 5 8 10 8 7 6 8 9 13 5 5 4 5 8 9 7 7 9 12 13 14 13
-24 -25 -26 -26 -27 -28 -27 -25 -24 -14 -6 -5 -4 -4 -4 -1 -8 -8 -9 -6 -5 -1 -2 4 6 8 7 5 6 7 7 7 7 6 4 3 5 9 8 7 8 12 13 13 13
-26 -27 -28 -28 -27 -27 -28 -28 -27 -14 -6 -5 -3 -4 -4 -2 -8 -10 -3 -9 0 3 -2 2 4 6 6 4 5 5 6 6 5 4 3 2 2 6 8 8 9 11 13 13 13
-27 -28 -28 -27 -28 -28 -29 -29 -25 -14 -6 -4 -3 -4 1 -1 -8 -14 -6 0 4 3 -1 1 2 5 5 4 3 4 5 6 6 2 2 2 2 6 8 10 10 12 12 12 12
-24 -25 -26 -26 -27 -28 -28 -27 -18 -11 -6 -4 -3 -4 2 -1 -2 -10 -4 0 3 4 1 1 1 3 4 2 2 4 4 7 3 1 0 1 3 2 7 10 10 11 11 12 12
-22 -23 -24 -25 -26 -27 -25 -20 -15 -9 -6 -3 -1 4 1 -2 -3 -4 -8 1 3 5 4 2 2 3 3 3 2 -0 3 4 3 0 0 1 4 5 6 9 10 11 11 11 12
-20 -22 -23 -24 -26 -27 -21 -14 -4 -0 6 6 6 3 1 -3 -4 -6 -8 -1 4 5 4 3 3 3 3 4 5 1 0 0 2 1 1 2 3 4 7 7 9 10 11 11 11
-19 -21 -22 -23 -26 -23 -11 -4 -1 5 6 3 2 -0 -2 -3 -5 -8 -8 -0 3 4 4 3 4 6 1 3 2 -1 -1 -1 -1 -1 0 2 4 2 3 6 6 9 11 11 11
-18 -20 -22 -22 -17 -8 -5 -5 -3 -3 -3 -6 -8 -7 -1 -2 -2 -8 -5 -2 -0 5 1 1 3 -0 -2 -5 -2 -1 0 -1 -2 -2 -0 2 3 0 1 4 6 8 10 11 11
-14 -18 -22 -24 -7 -6 -3 -4 -4 -3 -4 -9 -10 -10 -10 -1 -2 -3 -8 -5 -1 4 2 -2 -4 -6 -8 -8 -6 -4 -3 -2 -2 -2 -2 0 2 2 -0 2 6 7 9 10 11
-12 -14 -19 -23 -7 -5 -5 -5 -5 -3 -3 -11 -9 -9 -10 -7 -2 -2 -11 -7 -3 2 3 -2 -7 -7 -7 -8 -8 -7 -8 -6 -4 -2 2 -1 4 3 1 1 5 6 8 10 10
-13 -13 -18 -6 -2 -3 -5 -7 -5 -3 -4 -10 -8 -6 -8 -8 -7 -3 -8 -8 -5 -4 -1 -1 -6 -6 -5 -7 -9 -7 -9 -8 -6 -3 -1 0 3 3 1 1 0 2 5 8 9
-13 -13 -15 -6 -6 -6 -7 -7 -4 -2 -4 -8 -9 -7 -6 -8 -7 -5 -5 -10 -7 -6 -5 -5 -8 -8 -6 -8 -9 -8 -8 -9 -8 -7 -0 -1 1 3 1 1 0 1 1 5 7
-14 -9 -7 -3 -6 -8 -7 -8 -6 -6 -12 -3 -4 -7 -7 -5 -5 -5 -3 -8 -5 -3 -4 -5 -5 -7 -8 -6 -7 -7 -6 -4 -5 -5 -3 -4 -1 1 -1 -2 -1 -0 0 2 5
-13 -4 -3 -5 -8 -8 -7 -8 -5 -11 -3 -4 -3 -3 -2 -5 -5 -4 -3 -1 -8 -7 -6 -3 -2 -6 -8 -6 -5 -5 -6 -5 -2 -5 -7 -6 -1 -1 -3 -3 -3 -2 -1 3 5
-9 -6 -6 -8 -8 -8 -7 -8 -10 -7 -4 -4 -4 -2 -4 -4 -5 -3 -3 -2 -5 -8 -4 -3 -2 -6 -7 -8 -6 -4 -4 -9 -8 -9 -8 -9 -7 -6 -5 -4 -3 -2 -1 0 3
-2 -6 -6 -9 -7 -7 -7 -7 -5 -7 -8 -8 -3 -2 1 -1 -3 -3 -3 -5 -3 -6 -5 -3 -1 -5 -6 -7 -7 -5 -7 -5 -7 -2 -2 -6 -4 -5 -3 -2 -3 -1 -2 -1 0
-2 -9 -7 -8 -7 -10 -9 -8 -8 -10 -10 -8 -6 -3 -1 1 2 -1 -3 -3 -4 -3 -4 -3 -2 -2 -5 -5 -4 -5 -4 -5 -7 -8 -4 -2 -5 -8 -4 -3 -2 -2 -3 -2 -2
-4 -6 -6 -7 -10 -11 -8 -10 -9 -11 -9 -8 -5 -6 -3 -1 2 2 -0 0 -3 -1 0 -3 -2 1 -3 -6 -7 -6 -5 -4 -3 -0 -7 -6 -5 -8 -9 -7 -4 -3 -3 -3 -2
-2 -6 -8 -9 -8 -7 -9 -9 -8 -6 -8 -6 -5 -2 -0 -1 3 4 3 -1 -3 -1 2 -1 1 3 1 -4 -5 -5 -6 -6 -5 -6 -2 -5 -4 -7 -7 -7 -5 -4 -3 -3 -1
-2 -5 -7 -9 -9 -7 -6 -6 -7 -9 -8 -9 -2 -3 -1 -1 -3 1 3 -0 -3 -3 -0 1 2 2 2 0 -4 -3 -5 -6 -5 -2 -4 -4 -6 -5 -5 -3 -2 -3 -3 -2 -1
-2 -4 -4 -4 -6 -6 -6 -7 -4 -6 -8 -8 1 -1 -1 1 0 4 4 1 -3 -2 -1 -0 4 2 0 -2 -3 -4 -5 -6 -4 -4 -3 -5 -4 -5 -5 -3 -4 -4 -3 -2 -0
-0 -1 -3 -2 -4 -5 -4 -4 -7 -5 -6 -6 -5 -4 -5 0 1 2 3 1 2 -0 -1 -1 3 3 2 -1 -0 -0 -3 -4 -5 -5 -5 -5 -5 -6 -6 -6 -5 -5 -5 -4 -4
3 2 2 -1 -4 -3 -4 -5 -7 -6 -4 -5 -6 -6 -6 -4 -4 -5 -3 -3 -3 -2 -0 0 0 3 5 2 1 2 -1 -2 -4 -5 -5 -3 -4 -6 -5 -4 -4 -4 -4 -4 -5

GFSSW_850_dewp_030.txt.gz
Dewpoint
-20 -20 -20 -20 -21 -21 -21 -19 -15 -11 -8 -4 -2 -3 -9 -13 -16 -16 -14 -10 -8 -9 -11 6 4 11 13 14 14 14 16 17 16 12 13 7 10 11 10 11 12 14 14 15 15
-24 -25 -25 -25 -25 -25 -23 -23 -22 -23 -20 -11 -5 -2 -3 -9 -13 -15 -11 -10 -9 -7 -9 5 5 9 12 12 11 11 17 15 12 11 11 8 7 9 9 10 12 14 14 15 15
-27 -28 -28 -29 -29 -29 -29 -29 -28 -25 -24 -20 -9 -4 -3 -6 -5 -7 -7 -8 -9 -9 -4 3 4 8 10 10 9 9 15 10 10 10 6 7 6 8 8 10 13 14 14 14 15
-28 -29 -29 -29 -28 -29 -29 -29 -30 -28 -25 -11 -7 -5 -4 -6 -1 0 -7 -7 -9 -9 -3 0 5 7 9 8 7 8 12 12 11 10 4 9 9 6 8 9 12 14 14 14 15
-25 -26 -27 -27 -28 -28 -28 -29 -29 -30 -25 -14 -6 -5 -4 2 -4 -5 -8 -8 -8 -7 -2 -1 4 7 9 7 6 6 11 10 9 9 3 9 12 10 9 8 11 13 13 13 14
-25 -26 -26 -26 -27 -28 -28 -28 -29 -28 -20 -11 -4 -3 -4 2 -1 -3 -3 -9 -6 -5 -2 -2 1 6 7 7 5 5 5 8 9 9 4 2 9 9 9 7 11 12 13 13 13
-23 -24 -25 -26 -27 -28 -28 -28 -25 -21 -18 -10 -4 -0 2 -0 -2 -10 -4 -1 -2 -2 -3 -3 -1 3 6 6 5 3 5 5 5 5 3 1 2 6 9 8 9 12 13 12 12
-21 -23 -25 -26 -27 -28 -29 -26 -27 -14 -6 -12 -5 -1 2 1 -2 -4 -13 -3 -1 1 -2 -4 -2 1 3 5 5 4 3 7 5 5 2 1 3 7 8 8 9 11 12 12 12
-22 -23 -24 -25 -27 -27 -27 -15 -9 -6 -1 -3 2 4 2 0 0 -1 -8 -8 -1 2 1 -2 -2 -1 0 5 6 4 6 6 6 3 3 1 2 1 9 8 10 10 11 12 12
-21 -22 -23 -24 -26 -14 -9 -7 -4 -1 7 5 7 5 2 -0 -1 -1 -3 -7 -2 1 2 1 1 -0 1 3 8 6 5 3 6 4 2 1 2 4 6 12 10 11 10 11 11
-19 -19 -21 -24 -19 -7 -4 -6 -7 3 -4 2 3 0 -2 -1 -4 -4 -3 -8 -2 2 4 3 4 3 1 2 2 3 2 1 0 1 2 2 3 5 7 11 12 10 11 10 11
-19 -21 -22 -24 -13 -7 -5 -5 -7 -7 -6 -7 -7 -6 -1 0 -2 -5 -5 -7 -1 3 3 4 5 2 -0 0 2 2 3 0 -2 -3 -1 2 2 3 8 11 11 10 13 11 10
-17 -19 -20 -22 -10 -6 -6 -5 -8 -7 -6 -8 -10 -10 -10 -7 -3 -4 -6 -7 -3 2 5 5 3 1 1 2 0 2 2 1 -1 -3 -2 1 3 3 5 5 5 8 11 10 11
-17 -17 -18 -20 -8 -2 -7 -10 -10 -8 -6 -11 -12 -13 -12 -13 -8 -2 -7 -7 -2 1 4 4 1 0 1 1 -0 0 -0 -2 -1 -1 1 -2 3 5 3 3 4 5 8 9 11
-17 -17 -17 -5 -7 -3 -10 -11 -10 -7 -2 -11 -12 -8 -13 -14 -11 -6 -3 -7 -1 -2 1 4 1 -1 -2 -1 -4 -5 -8 -4 -4 -2 -1 -1 1 1 3 3 2 5 7 11 10
-15 -15 -9 -3 -3 -7 -10 -11 -9 -5 -5 -7 -7 -5 -8 -13 -13 -8 -3 -7 -3 -4 -3 2 -0 -4 -6 -7 -9 -10 -10 -9 -8 -5 1 -1 0 3 2 4 2 3 4 8 9
-13 -10 -5 -4 -5 -10 -10 -10 -9 -5 -12 -7 -4 -5 -4 -4 -11 -11 -2 -2 -4 -1 1 -0 1 -2 -7 -6 -8 -9 -8 -4 -3 -3 -2 -3 -0 2 -0 3 1 1 2 4 8
-12 -8 -5 -3 -10 -10 -10 -10 -6 -10 -4 -6 -7 -7 -4 -4 -5 -9 -5 -1 -7 -5 -2 0 0 -2 -7 -7 -5 -7 -8 -3 2 -1 -5 -5 -1 -1 -2 -3 -0 -1 -0 3 5
-8 -1 -4 -6 -11 -8 -8 -7 -2 -3 -6 -8 -9 -6 -2 -1 -1 -3 -5 -2 -5 -7 -0 -1 -1 -5 -6 -8 -7 -5 -4 -8 -7 -7 -6 -8 -7 -7 -4 -3 -2 -3 -1 1 3
-2 -0 -1 -6 -11 -8 -8 -8 -6 -9 -11 -11 -6 -7 -3 -4 -1 1 1 -5 -4 -7 -7 -3 -1 -5 -6 -7 -8 -6 -7 -4 -5 1 0 -6 -2 -3 -2 -1 -1 -0 -2 -0 2
0 -5 -7 -7 -9 -9 -9 -10 -9 -12 -11 -8 -8 -8 -4 3 1 2 2 1 -1 -4 -6 -7 -3 -4 -5 -4 -4 -5 -4 -5 -6 -5 -3 -1 -5 -4 0 0 0 -1 -2 -1 2
1 -2 -6 -9 -9 -12 -10 -10 -9 -6 -8 -10 -11 -9 -2 0 3 4 5 6 2 -1 0 -5 -5 -1 -1 -6 -7 -7 -4 -3 -1 2 -4 -2 -4 -6 -3 -2 -2 -2 -2 -2 -0
1 -3 -6 -9 -8 -9 -10 -11 -12 -5 -7 -9 -9 -7 -6 -2 3 4 5 4 1 0 2 1 1 2 2 -2 -5 -4 -5 -5 -4 -5 2 -2 -4 -6 -5 -2 -1 -2 -1 -1 -0
2 -1 -4 -5 -8 -7 -7 -9 -7 -6 -3 -9 -10 -6 -5 -3 -3 3 4 4 1 0 1 0 3 3 3 2 -2 -1 -4 -5 -4 -1 -2 -3 -2 -3 -4 -5 -1 -1 -2 -2 1
2 -1 -2 -2 -4 -5 -7 -5 -0 -4 -4 -10 -6 -4 -5 -4 -1 -1 0 -0 1 1 -1 0 5 2 -0 -1 -2 -4 -4 -4 -3 -2 -0 -3 -4 -1 0 -0 -1 -1 -0 -0 1
3 4 2 0 -2 -4 -5 -3 -4 -7 -9 -8 -6 -6 -8 -6 -2 -0 0 -0 4 0 -1 -0 4 4 4 0 -0 0 -4 -5 -5 -6 -5 -5 -5 -3 -1 -2 -0 -0 -1 -1 -0
2 1 2 0 -2 -2 -3 -5 -6 -6 -6 -8 -4 -7 -8 -8 -5 -7 -7 -6 -4 -2 -2 0 3 4 6 3 2 3 -1 -4 -5 -6 -6 -2 -2 -2 0 1 0 -3 -3 -3 -2

GFSSW_850_dewp_033.txt.gz
Dewpoint
-28 -29 -29 -29 -29 -29 -29 -29 -29 -29 -26 -24 -18 -5 -1 -4 -10 -12 -13 -12 -11 -10 -3 4 -2 6 13 16 15 15 17 16 17 14 12 12 12 12 14 14 14 14 16 16 15
-28 -29 -29 -29 -29 -29 -29 -29 -29 -29 -29 -26 -21 -12 -4 -1 -4 -10 -14 -12 -12 -9 -7 -2 5 4 12 14 15 15 17 16 13 12 12 12 12 11 14 14 15 16 16 15 15
-26 -27 -27 -27 -28 -28 -28 -28 -29 -29 -29 -28 -22 -8 -6 -3 -4 -11 -10 -13 -11 -9 -8 -8 4 4 9 12 12 13 15 13 11 10 12 12 12 12 14 15 16 16 16 16 16
-25 -26 -26 -27 -27 -28 -28 -29 -29 -29 -29 -28 -20 -8 -6 -4 1 -1 -8 -6 -10 -9 -8 -6 2 4 8 11 11 12 11 12 10 10 10 10 10 12 11 14 15 15 16 16 15
-25 -25 -26 -27 -28 -28 -29 -29 -29 -27 -24 -23 -16 -5 -6 -3 -2 -1 -6 -9 -7 -8 -8 -5 -2 4 6 9 9 9 12 9 7 9 9 9 10 10 13 14 15 15 15 15 15
-25 -25 -26 -27 -27 -28 -29 -29 -28 -27 -24 -13 -14 -4 -3 3 -3 -2 -6 -7 -9 -7 -7 -5 -1 2 5 7 9 7 10 9 9 8 9 9 8 11 14 14 14 15 15 15 15
-24 -25 -26 -27 -28 -28 -28 -25 -14 -12 -12 -7 -6 -7 3 -7 -3 -1 -3 -5 -8 -9 -8 -6 -1 -1 4 7 8 7 7 10 10 8 9 10 12 12 14 14 14 15 15 14 15
-24 -26 -26 -27 -28 -24 -16 -8 -7 -6 -4 -3 -2 -1 4 -20 -3 -2 -1 -1 -3 -4 -8 -6 -2 -2 -2 4 6 8 7 9 10 9 8 8 12 9 12 14 14 14 14 15 14
-22 -24 -26 -26 -27 -14 -6 -6 -7 -8 -1 4 2 4 5 -2 -2 -4 -4 -0 -1 -1 -1 -4 -3 -3 -3 3 5 6 9 7 5 4 5 4 8 9 10 12 13 13 13 14 14
-20 -22 -25 -25 -24 -10 -5 -5 -8 3 1 4 6 7 -3 -6 -0 -1 -8 -10 -3 -1 0 -2 -2 -2 -1 2 7 8 8 6 5 4 5 5 4 10 9 10 13 13 13 13 13
-19 -21 -25 -26 -22 -8 -6 -5 -8 -6 -7 -9 -9 -0 -4 0 -0 -1 -1 -4 -9 -2 3 2 2 2 0 0 2 5 7 5 4 3 4 5 4 10 13 15 14 12 13 13 12
-17 -19 -22 -26 -17 -5 -3 -8 -10 -10 -10 -11 -10 -8 -10 -3 -4 -1 -1 -2 -8 -1 1 3 5 1 0 -0 1 3 5 6 3 0 3 4 3 11 12 12 13 13 13 13 12
-15 -17 -20 -24 -12 -5 -5 -10 -11 -11 -10 -10 -11 -10 -9 -10 -8 -4 -2 -2 -8 -2 1 5 4 2 3 1 1 2 3 4 4 1 -2 2 4 12 11 10 11 10 11 13 12
-12 -15 -19 -15 -10 -7 -6 -11 -11 -11 -5 -9 -12 -11 -10 -10 -10 -6 -3 -3 -4 -4 1 4 3 4 4 3 1 3 1 2 3 3 3 -2 7 6 9 10 10 11 13 12 11
-6 -13 -17 -6 -5 -4 -8 -11 -11 -10 -4 -13 -7 -8 -9 -11 -14 -13 -3 -4 -3 -4 0 4 5 4 4 3 1 3 -0 1 2 3 1 1 4 4 7 10 11 12 13 13 13
-5 -8 -12 -9 -5 -8 -9 -10 -10 -6 -4 -11 -8 -9 -9 -10 -7 -13 -9 -5 -5 -4 -3 1 3 3 3 1 1 0 1 -2 0 1 2 -1 1 2 5 6 9 10 13 14 12
-5 -6 -8 -6 -8 -8 -9 -9 -7 -6 -8 -5 -6 -10 -9 -5 -3 -4 -10 -4 -2 -2 -2 0 1 2 -0 2 -1 -0 -1 -0 -1 1 1 -4 -0 0 1 3 3 8 12 11 9
-5 -5 -6 -3 -6 -6 -9 -6 -3 -8 -5 -8 -9 -10 -7 -5 -4 -2 -1 -5 -2 -5 1 3 2 0 1 -1 -2 -2 -3 -3 0 -0 -2 -5 -2 -1 -2 -2 1 4 9 9 9
-5 -3 -3 -2 -5 -8 -9 -4 -7 -6 -9 -10 -11 -9 -7 -7 -3 -1 1 2 -3 -4 -1 1 1 -2 -1 -2 -4 -4 -4 -8 -5 -2 -2 -4 -7 -7 -8 -5 -4 1 4 9 11
-3 -0 -4 -6 -7 -9 -6 -3 -8 -11 -10 -9 -6 -8 -6 -3 -0 0 2 2 6 2 -1 -4 -1 -1 -1 -1 -4 -5 -7 -5 -6 -0 0 -2 -4 -4 -7 -7 -5 -2 0 5 11
-2 1 -6 -8 -9 -9 -5 -8 -11 -13 -8 -8 -7 -7 -9 1 1 -0 2 3 4 3 1 1 -3 -5 -3 0 1 -5 -4 -6 -5 -3 0 3 -0 -7 -7 -6 -2 -4 -2 1 6
1 1 -3 -5 -7 -8 -8 -10 -11 -10 -5 -6 -5 -11 -6 -6 -2 -1 3 5 3 2 2 2 3 -2 -3 -3 -4 -5 -5 -6 -3 -2 -2 -3 -2 -2 -3 -6 -4 -4 -3 1 4
2 1 -1 -4 -4 -5 -6 -8 -10 -3 -3 -5 -4 -6 -9 -1 3 3 2 0 2 1 1 4 4 2 -2 -4 -5 -4 -6 -6 -4 -1 -0 -1 0 -2 0 -6 -2 -2 -3 -3 3
3 1 -0 -2 -3 -3 -3 -5 -4 -5 -4 -5 -7 -8 -4 -1 -2 2 1 -1 1 -0 1 2 3 4 3 -2 -2 -2 -4 -6 -3 -2 -2 -0 -2 -1 1 3 3 -0 -1 -3 3
1 1 2 2 1 -0 -1 -3 -3 -2 -4 -7 -6 -4 -4 -1 -4 1 -1 -2 -3 -1 0 0 3 4 4 1 0 -1 -3 -4 -4 -3 -1 -3 1 1 2 4 5 3 1 1 1
1 1 2 2 2 -1 -1 -0 -2 -3 -5 -5 -5 -5 -5 -3 -2 -1 -2 -3 -1 -1 -1 -2 3 4 7 2 1 1 -3 -4 -5 -4 -2 -4 -3 1 3 3 3 2 1 2 5
2 2 2 2 1 -0 -0 -1 -1 -2 -3 -5 -7 -7 -4 -4 -4 -5 -7 -8 -6 -4 -1 -1 0 4 7 5 4 5 2 -4 -4 -5 -4 -1 -2 2 4 3 2 0 -2 -2 -2

GFSSW_850_dewp_036.txt.gz
Dewpoint
-26 -26 -27 -27 -27 -28 -28 -28 -28 -28 -29 -30 -29 -24 -14 -3 -1 -4 -12 -12 -11 -10 -4 -8 4 10 15 17 17 16 14 15 14 16 15 15 14 15 15 15 15 15 15 13 12
-26 -26 -26 -27 -27 -27 -28 -28 -28 -29 -28 -29 -29 -26 -11 -8 -2 -1 -9 -14 -13 -12 -8 -3 -1 10 15 16 16 16 15 14 12 13 14 16 15 15 15 15 15 16 15 12 10
-25 -25 -26 -26 -27 -27 -28 -28 -29 -28 -25 -25 -27 -22 -15 -8 -3 -2 -8 -14 -15 -12 -10 -3 1 3 7 13 15 15 16 14 13 13 11 12 13 15 15 16 16 16 15 13 10
-25 -26 -27 -27 -28 -28 -28 -28 -28 -27 -24 -24 -18 -18 -8 -7 2 -3 -7 -5 -15 -11 -9 -8 4 4 5 10 12 14 14 14 12 11 10 10 13 15 14 15 15 14 14 13 14
-25 -27 -27 -28 -28 -29 -27 -22 -16 -10 -9 -13 -18 -10 -3 -6 -10 -2 -6 -7 -9 -9 -7 -7 -2 0 6 8 10 12 12 12 12 11 9 9 11 10 13 15 15 15 15 15 14
-24 -25 -27 -27 -28 -27 -19 -10 -6 -7 -7 -6 -7 -5 -2 1 -11 -5 -3 -4 -8 -10 -7 -7 -3 2 3 5 9 9 10 10 10 9 9 10 9 11 15 15 15 15 15 15 15
-21 -22 -25 -26 -27 -23 -10 -6 -6 -10 -8 -7 -4 -2 1 -20 -14 -1 -1 -3 -7 -9 -9 -9 -2 -0 1 5 4 6 9 9 10 9 9 9 10 15 15 15 16 15 15 15 15
-19 -19 -22 -25 -26 -20 -7 -5 -7 -5 -2 -1 3 4 -0 -24 -13 -10 -1 -1 1 -7 -8 -10 -8 -2 -1 0 -1 7 8 11 9 9 9 9 12 14 15 15 15 15 15 15 15
-15 -16 -18 -24 -25 -15 -5 -6 -10 -5 -2 -11 5 7 2 -7 -5 -1 -3 -1 2 -4 -7 -8 -7 -4 -2 -1 -0 4 8 9 9 9 9 10 10 14 15 15 15 15 15 15 15
-10 -14 -15 -20 -24 -9 -5 -10 -18 -9 -1 -6 6 6 -4 -8 -1 -0 -0 -1 2 -2 -3 -4 -5 -2 -1 -0 3 6 9 8 8 6 9 10 9 14 14 15 15 15 15 14 15
-7 -10 -13 -16 -22 -5 -5 -12 -11 -11 -13 -11 -12 -6 -8 -16 -16 -4 -1 -0 2 -1 0 -1 -1 0 -1 -1 0 3 6 7 6 4 4 6 12 15 14 14 15 15 15 14 14
-7 -7 -11 -14 -18 -6 -6 -10 -11 -11 -11 -14 -12 -11 -11 -10 -9 -8 -4 -1 -2 1 -0 3 2 -1 -0 -2 -0 2 3 6 6 5 3 5 11 13 14 14 14 14 14 14 14
-7 -6 -8 -13 -15 -9 -11 -11 -10 -11 -11 -11 -10 -10 -10 -9 -9 -11 -8 -2 -2 -3 0 4 3 1 1 1 1 1 2 3 6 4 2 3 12 12 12 13 14 14 14 14 13
-8 -7 -7 -11 -12 -12 -12 -10 -10 -9 -7 -7 -8 -9 -10 -10 -10 -7 -9 -6 -1 -4 -3 0 2 2 3 2 1 2 0 1 3 4 7 1 11 14 14 14 12 12 13 13 13
-10 -7 -7 -10 -11 -10 -9 -8 -8 -9 -9 -7 -8 -9 -12 -7 -6 -5 -5 -7 -2 -1 -5 -1 1 3 3 3 2 2 -0 0 2 4 3 4 3 14 14 14 12 11 11 12 13
-11 -6 -6 -9 -9 -10 -9 -8 -8 -7 -4 -8 -9 -10 -12 -9 -7 -4 -4 -3 -5 -3 -3 -5 0 1 3 2 3 1 1 1 2 2 6 4 2 2 15 13 11 10 10 10 13
-8 -5 -5 -7 -6 -8 -8 -7 -8 -6 -8 -7 -9 -10 -12 -7 -7 -4 -3 -0 1 0 0 -1 -2 -1 2 4 3 3 3 6 6 5 5 2 0 0 10 10 10 10 10 11 12
-9 -4 -4 -6 -6 -6 -5 -6 -3 -7 -6 -10 -8 -9 -8 -8 -5 -4 -3 -1 4 4 -1 0 1 -2 -1 4 5 4 3 6 8 4 3 -3 -1 -2 -3 6 7 9 9 12 12
-12 -3 -4 -6 -6 -6 -4 -4 -5 -9 -10 -8 -8 -7 -7 -4 -4 -2 -2 -0 2 3 6 0 -1 -3 -2 0 3 2 4 -2 -4 -4 -2 -3 -6 -8 -7 -7 3 10 11 12 12
-13 -2 -3 -4 -5 -7 -7 -3 -6 -12 -8 -8 -6 -6 -5 -2 -2 -1 -1 -2 0 1 2 3 3 -4 -3 -1 0 1 -4 -1 -4 -1 -0 -2 -4 -5 -7 -8 -6 8 11 12 13
-10 -0 -1 -2 -5 -8 -6 -6 -10 -6 -6 -5 -4 -3 -7 -4 -2 0 -1 -1 1 2 2 2 4 -0 -5 -0 1 0 -1 -4 -3 -3 -1 -0 -3 -7 -6 -6 -8 5 8 11 12
-4 2 -0 -1 -5 -7 -6 -7 -7 -4 -4 -6 -5 -5 -6 -0 -2 -2 -1 2 -1 1 4 2 5 7 0 -5 -4 -0 -2 -5 -4 -3 -2 -1 -3 -4 -7 -7 -8 -6 10 10 10
0 2 -1 -2 -0 -1 -3 -2 -5 -3 -3 -3 -4 -6 -6 0 1 1 1 -1 -0 1 5 5 6 7 1 -4 -5 -4 -0 -5 -6 -5 -3 -3 -3 -6 -6 -3 -3 -7 -1 8 9
2 2 1 -0 -0 -0 1 0 -1 -4 -4 -5 -5 -7 -5 -3 -1 0 1 -1 -2 -2 2 4 3 5 6 2 1 -3 -3 -3 -6 -3 -4 -4 -4 -4 -4 -2 -3 -7 -5 -0 8
2 1 2 2 1 1 1 0 1 0 -3 -5 -5 -4 -5 -3 -4 -0 -3 -3 -3 1 2 3 2 1 1 1 2 3 -1 -2 -4 -5 -3 -4 -4 -4 -3 3 1 -3 -2 4 9
2 2 1 1 2 1 -0 0 1 2 1 -2 0 -3 -7 -4 -2 -1 -3 -2 -1 -0 1 0 1 0 1 4 4 2 1 1 -5 -5 -4 -4 -4 -6 -2 3 4 5 3 6 10
1 2 2 2 2 2 1 0 0 -0 2 0 1 -1 -2 -3 -4 -3 -2 -2 -3 -0 1 0 -0 2 5 4 4 5 4 2 -4 -5 -5 -1 -4 1 5 10 10 1 5 8 10

GFSSW_850_dewp_039.txt.gz
Dewpoint
-26 -26 -26 -27 -27 -27 -28 -28 -28 -28 -28 -28 -28 -29 -28 -18 -9 -1 -4 -14 -12 -10 -2 -7 -7 2 16 16 17 15 14 16 14 15 15 15 15 15 16 15 15 15 12 13 13
-26 -26 -27 -27 -27 -28 -28 -27 -25 -25 -26 -26 -25 -26 -26 -22 -14 -9 -2 -3 -13 -10 -3 -9 -1 10 16 16 17 16 14 14 11 13 14 14 16 15 16 15 16 15 13 13 12
-25 -26 -27 -27 -27 -28 -25 -19 -13 -10 -10 -14 -18 -21 -21 -17 -12 -5 -5 -4 -6 -12 -7 -7 5 12 15 15 16 16 15 13 12 13 13 15 15 15 15 16 16 14 13 12 11
-23 -23 -25 -26 -26 -27 -20 -10 -7 -6 -8 -7 -7 -16 -14 -12 -5 -5 -6 -7 -5 -12 -11 -3 8 5 7 11 13 16 15 14 13 13 13 14 14 14 15 15 15 14 12 12 11
-19 -19 -21 -25 -26 -26 -17 -7 -7 -8 -12 -9 -10 -6 -9 -9 -19 -9 -4 -5 -7 -12 -11 0 3 4 6 7 10 14 14 13 14 14 13 11 14 15 15 15 15 13 12 11 14
-13 -15 -17 -21 -24 -24 -13 -7 -10 -15 -5 -12 -8 -5 -3 -3 -17 -2 -5 -1 -10 -12 -8 -1 3 1 3 5 10 10 12 12 12 11 11 10 14 13 15 15 15 13 12 12 14
-9 -12 -14 -17 -23 -23 -10 -8 -12 -18 -5 -8 -11 1 2 -14 -13 -0 -2 -2 -8 -13 -9 -9 -6 2 1 4 4 5 9 6 8 10 9 9 10 12 15 15 15 14 13 13 14
-9 -9 -11 -14 -20 -22 -10 -10 -17 -17 -3 -2 -9 4 0 -8 -14 -8 -6 2 -2 -11 -7 -9 -7 1 -0 0 -1 5 6 9 7 9 9 9 12 16 16 15 15 15 14 14 14
-9 -10 -10 -11 -16 -19 -8 -9 -19 -14 -1 -11 0 5 0 -1 -7 -3 -6 -3 0 -3 -5 -6 -5 -4 -2 -0 1 0 7 10 9 8 10 10 13 15 16 15 15 15 15 15 15
-9 -10 -11 -11 -13 -16 -8 -14 -20 -12 -11 -7 -1 2 -7 -10 -10 -7 -3 -1 2 3 -0 -3 -4 -4 -1 0 6 4 7 7 8 7 10 11 12 15 15 15 15 15 15 15 15
-10 -10 -11 -11 -11 -12 -10 -18 -12 -13 -12 -12 -11 -11 -10 -10 -10 -10 -10 -1 2 2 -1 -3 -3 -3 -5 -2 -0 3 6 7 7 5 8 11 11 16 15 15 15 15 15 15 15
-14 -12 -11 -12 -10 -12 -12 -10 -6 -6 -10 -13 -10 -10 -12 -10 -9 -7 -7 -4 1 0 -0 -0 -1 -5 -5 -2 -1 -0 2 5 5 4 4 5 10 15 15 15 15 15 15 15 14
-15 -12 -13 -9 -11 -15 -11 -8 -7 -5 -10 -11 -9 -10 -12 -9 -9 -5 -7 -6 -4 2 1 2 1 -3 -1 -2 -0 -0 0 2 5 4 4 7 12 12 15 14 15 15 15 15 14
-13 -9 -6 -8 -13 -12 -9 -8 -7 -8 -7 -9 -8 -10 -11 -10 -8 -7 -7 -4 -5 -0 0 1 -1 0 -1 1 -1 1 -1 1 2 4 7 3 15 17 15 15 14 15 15 15 14
-13 -8 -5 -9 -8 -9 -8 -9 -8 -10 -9 -7 -10 -10 -11 -9 -8 -8 -6 -3 -3 -3 -4 -0 1 1 1 0 0 1 -0 1 2 3 4 4 6 14 15 16 15 14 14 15 15
-16 -8 -5 -8 -7 -7 -8 -9 -9 -9 -7 -7 -10 -10 -10 -9 -7 -6 -6 -2 -0 1 -3 -4 -5 -1 -0 1 1 1 0 1 1 3 5 3 5 4 14 15 14 14 14 14 14
-17 -6 -5 -7 -6 -6 -6 -8 -9 -7 -9 -8 -8 -9 -9 -6 -6 -5 -4 3 4 6 3 0 -3 -2 -1 1 1 3 3 6 6 6 7 3 4 4 9 11 12 13 13 13 13
-18 -4 -6 -4 -4 -5 -6 -8 -4 -8 -7 -10 -8 -9 -7 -3 -3 -3 -3 -0 2 3 5 5 3 -1 -4 2 3 4 4 7 9 8 6 2 5 2 3 9 11 11 11 11 11
-17 -7 -3 -3 -4 -5 -5 -4 -5 -9 -10 -7 -8 -6 -6 -3 -4 -2 -2 -0 3 4 5 6 5 0 -3 -3 2 4 6 2 2 -2 2 4 -3 -6 -3 5 10 10 10 10 9
-15 -12 -3 -1 -3 -5 -7 -4 -6 -6 -7 -7 -4 -6 -3 -4 -2 -1 -1 -3 0 3 2 3 6 2 -1 -4 -1 4 1 5 1 5 4 0 -3 1 -3 -1 4 10 10 10 9
-14 -8 -0 -3 -5 -7 -6 -6 -8 -5 -6 -6 -4 -3 -5 -4 -2 0 -1 -3 -2 -0 1 4 4 4 3 -2 -2 0 3 3 4 0 4 -1 -1 -5 -5 -5 -4 7 8 9 9
-9 -4 -2 -4 -3 -4 -5 -5 -6 -4 -5 -5 -5 -4 -6 -2 -1 -2 0 1 -0 3 4 3 6 8 6 2 1 -2 1 -2 5 4 -2 -1 -0 -7 -7 -6 -7 -1 5 8 10
-3 1 -1 -2 1 0 -1 -0 -3 -3 -4 -3 -4 -6 -7 -2 -1 0 0 -1 2 1 4 3 7 6 3 -2 -3 -4 0 -2 -2 -2 -1 4 2 -7 -6 -6 -7 -6 1 5 10
1 1 -0 -0 0 0 1 1 0 -1 -3 -3 -5 -6 -5 -2 -2 -1 -0 -1 1 -0 2 4 5 4 6 4 2 3 2 -0 -4 -2 -1 -2 -1 -5 -7 -5 -4 -4 -5 -4 8
2 -0 2 -0 0 1 1 1 1 2 0 -0 -4 -3 -2 -3 -4 -2 -2 -3 0 2 2 4 5 2 2 1 1 1 1 1 -2 -3 -3 -5 -5 -7 -7 -5 2 4 1 -3 5
1 2 1 1 1 1 1 0 1 0 2 3 2 1 0 -3 -4 -3 -3 -2 0 1 2 3 4 1 1 -0 -0 1 2 3 3 -4 -5 -5 -4 -7 1 9 12 7 -0 2 7
1 1 2 2 2 3 3 3 3 3 3 2 2 1 -0 -2 -3 -3 -3 -3 -2 2 2 3 3 2 3 2 3 6 5 6 4 6 4 -2 2 2 11 13 14 15 5 1 7

GFSSW_850_dewp_042.txt.gz
Dewpoint
-24 -25 -26 -26 -26 -26 -23 -19 -18 -18 -17 -19 -26 -27 -28 -28 -27 -18 -4 -3 -13 -9 -12 2 4 6 11 16 17 15 15 15 14 15 15 15 15 16 16 14 15 14 13 14 14
-21 -21 -23 -25 -25 -26 -20 -11 -8 -8 -8 -11 -11 -19 -26 -25 -24 -25 -12 -8 -10 -11 -2 -0 1 11 15 16 16 16 14 14 12 13 14 14 16 16 15 15 15 14 13 13 13
-15 -17 -19 -22 -25 -25 -20 -9 -8 -8 -11 -10 -9 -10 -17 -21 -16 -4 -2 -4 -5 -11 -4 -2 -5 13 14 15 16 16 16 12 11 13 13 14 15 15 15 16 15 14 14 13 13
-10 -12 -15 -17 -22 -24 -21 -12 -9 -10 -15 -10 -13 -11 -9 -17 -9 -1 -2 -4 -2 -11 -3 -3 2 13 14 14 15 17 15 14 14 13 13 14 14 15 15 15 15 14 12 13 13
-10 -10 -12 -14 -17 -21 -20 -11 -11 -12 -18 -8 -11 -11 -7 -11 -18 -13 -7 -2 -2 -9 -4 1 10 7 11 13 11 15 15 14 14 14 14 13 13 14 15 15 15 14 13 13 12
-11 -11 -10 -12 -14 -17 -20 -11 -12 -17 -18 -9 -5 -11 -4 -7 -11 -2 -3 -4 -3 -7 -3 -1 9 7 7 8 11 10 12 13 12 12 12 13 13 14 15 15 14 13 13 13 11
-11 -12 -12 -12 -12 -14 -17 -12 -13 -18 -15 -7 -13 -4 -0 -5 -6 -4 -6 3 -3 -11 -8 -3 -0 5 1 3 6 8 9 7 6 9 11 10 14 14 15 15 13 13 12 12 12
-12 -11 -13 -13 -12 -13 -15 -12 -16 -18 -13 -14 -7 -1 -3 -4 -6 -5 -5 -5 1 -9 -5 0 2 0 -0 0 -1 4 5 9 7 7 8 10 13 15 15 14 13 12 12 12 13
-14 -14 -14 -15 -15 -12 -14 -15 -17 -14 -15 -9 -5 0 -8 -9 -10 -9 -5 -3 1 -6 -5 -4 -1 -3 -0 1 2 1 9 9 9 8 9 10 12 16 16 15 13 12 12 12 13
-17 -16 -16 -15 -13 -12 -14 -16 -15 -14 -13 -7 -8 -4 -11 -11 -9 -8 -8 -1 1 -1 -2 -2 -4 -4 -2 2 7 5 5 8 9 7 10 11 11 16 15 15 14 13 12 12 13
-16 -13 -13 -10 -9 -12 -15 -15 -13 -11 -14 -11 -11 -11 -11 -11 -8 -8 -7 1 4 3 2 -3 -2 -3 -4 0 2 3 6 7 7 5 10 11 12 16 15 15 15 15 14 13 13
-17 -13 -10 -6 -10 -12 -11 -10 -6 -5 -6 -13 -11 -11 -11 -11 -9 -10 -7 -2 1 2 -2 -2 -1 -4 -7 -6 -1 1 1 3 4 5 7 8 11 16 15 15 15 15 15 14 14
-18 -15 -10 -8 -12 -11 -9 -7 -6 -7 -10 -12 -9 -11 -11 -9 -7 -8 -6 -4 -7 1 0 0 -2 -5 -4 -3 -3 -2 2 1 4 3 4 7 9 16 15 15 15 15 15 15 15
-18 -17 -8 -9 -11 -9 -8 -6 -6 -9 -9 -10 -10 -11 -10 -10 -11 -8 -9 -4 -6 -2 1 1 -2 -2 -4 -3 -2 -1 -2 0 1 3 6 6 10 14 16 16 15 15 15 15 15
-18 -17 -5 -8 -9 -7 -6 -6 -8 -10 -8 -8 -10 -11 -10 -10 -9 -9 -6 -4 -2 -2 -4 1 1 1 1 -4 -3 -3 -2 -0 0 3 3 4 7 11 15 17 16 15 15 15 14
-18 -13 -5 -6 -7 -6 -5 -7 -9 -10 -7 -7 -10 -10 -9 -8 -6 -6 -4 -2 1 2 -0 -3 -5 -3 -0 -1 -4 -1 0 1 1 2 5 4 5 6 16 16 15 14 15 15 14
-18 -14 -4 -4 -4 -5 -6 -8 -9 -8 -9 -8 -8 -9 -8 -4 -4 -5 -0 3 3 1 5 3 1 -5 -5 -0 -1 1 1 6 6 6 7 4 5 5 4 14 14 14 14 14 15
-18 -18 -3 -3 -4 -6 -6 -9 -6 -8 -8 -10 -9 -9 -6 -4 -4 -3 -4 3 3 3 5 6 3 -1 -3 -2 1 2 2 6 8 7 5 3 6 4 1 8 13 13 13 13 14
-17 -19 -2 -2 -3 -4 -6 -5 -6 -9 -9 -7 -9 -6 -6 -4 -5 -3 -2 1 4 3 5 5 5 1 -0 -1 -1 3 4 1 4 1 5 2 1 -2 -0 2 10 11 12 13 13
-11 -13 -1 -3 -2 -4 -6 -4 -6 -6 -6 -7 -6 -6 -4 -5 -3 -2 -2 -3 3 2 2 3 6 2 1 1 -1 2 1 5 4 8 5 4 -0 5 -0 2 5 8 10 12 12
-10 -8 -2 -7 -5 -6 -4 -6 -7 -5 -6 -6 -5 -5 -4 -4 -2 -0 -2 -2 -1 2 1 3 5 3 2 3 0 0 4 4 3 3 7 2 1 -1 -0 0 2 4 10 9 11
-5 -10 -5 -3 -2 -2 -2 -2 -3 -5 -5 -5 -5 -5 -5 -3 -2 -2 -0 -1 2 2 3 3 6 6 4 2 2 3 2 4 6 5 1 2 4 -5 -4 -2 -2 -2 6 7 9
-2 -1 -3 -3 0 -0 -0 0 -1 -3 -4 -4 -4 -5 -7 -4 -2 -1 -0 -1 2 3 3 3 5 6 5 1 -1 2 0 0 -0 4 5 7 6 -4 -6 -6 -7 -6 -4 1 5
0 -0 -2 -1 0 0 1 1 1 -1 -1 -0 -4 -6 -6 -3 -2 -3 -1 1 2 1 1 3 5 5 5 3 2 2 1 -0 1 3 6 5 4 2 -0 -5 -5 -7 -8 -5 4
1 0 1 0 -0 1 1 1 2 2 1 1 -1 1 1 -1 -4 -2 -2 -3 1 0 2 2 5 4 3 3 3 2 2 1 1 0 3 1 1 0 -1 -2 -4 -7 -5 -6 -6
1 2 1 1 1 1 2 3 2 2 3 3 4 1 2 4 1 -1 -3 -3 -1 2 2 3 4 5 4 1 1 1 0 0 0 1 -2 -4 -4 3 -4 2 12 13 14 11 3
1 1 2 2 1 2 3 3 3 3 2 3 3 4 4 2 -0 -2 -3 -4 -2 2 3 4 4 4 3 1 1 3 2 6 7 7 6 -0 4 9 9 15 15 15 15 15 11

GFSSW_850_dewp_045.txt.gz
Dewpoint
-14 -16 -18 -20 -23 -24 -23 -15 -10 -9 -9 -14 -11 -13 -20 -27 -26 -27 -22 -6 -5 -11 -10 3 11 10 13 16 17 15 16 17 14 14 15 14 15 16 16 14 14 14 14 15 15
-10 -11 -13 -16 -19 -22 -23 -18 -12 -11 -12 -13 -14 -11 -12 -17 -23 -21 -5 -12 -4 -10 -10 6 13 13 13 15 16 16 16 15 11 11 13 14 15 16 15 14 15 14 14 15 15
-11 -10 -11 -13 -15 -19 -21 -17 -13 -13 -15 -19 -15 -14 -13 -12 -15 -0 0 1 -5 -7 2 7 8 12 13 15 16 15 15 13 11 12 13 14 15 16 15 15 15 14 15 15 15
-12 -12 -12 -12 -13 -14 -19 -19 -14 -14 -19 -18 -7 -8 -13 -9 -8 -4 -3 -2 -5 -9 4 6 11 11 10 13 15 16 15 14 14 12 13 13 14 14 15 14 15 14 15 14 14
-13 -13 -13 -14 -15 -15 -16 -17 -15 -15 -19 -15 -6 -10 -12 -9 -14 -5 -3 -4 -8 -5 7 5 9 8 7 10 13 15 15 14 14 13 13 13 13 13 14 15 15 14 14 14 14
-14 -14 -14 -15 -16 -15 -16 -15 -15 -17 -19 -13 -12 -7 -6 -9 -7 -6 -2 -3 -4 4 7 6 5 7 7 11 9 9 13 13 12 12 12 12 12 13 14 15 14 14 14 14 13
-18 -18 -17 -17 -16 -17 -13 -14 -16 -17 -17 -15 -8 -4 -3 -3 -9 -7 -6 1 -5 4 5 7 5 4 3 2 7 9 11 8 9 8 10 10 12 13 14 15 14 14 14 13 13
-18 -17 -15 -16 -17 -16 -13 -14 -16 -17 -16 -9 -6 -2 -2 -10 -9 -7 -5 -4 -0 3 3 4 3 5 1 1 -0 2 4 6 7 9 9 9 12 12 14 14 14 14 14 13 13
-18 -17 -14 -11 -11 -11 -13 -16 -15 -14 -11 -9 -8 -6 -11 -8 -7 -7 -5 -4 2 6 -2 -2 1 -0 0 2 2 3 -1 3 5 7 9 10 11 13 14 14 14 14 13 13 13
-17 -19 -15 -7 -8 -12 -14 -16 -13 -13 -10 -7 -10 -9 -11 -11 -9 -7 -3 -2 3 2 -2 -2 -1 -2 -2 -1 -1 2 1 6 5 8 9 10 10 15 15 14 13 13 12 12 12
-17 -18 -17 -7 -10 -12 -13 -13 -10 -9 -11 -10 -11 -11 -11 -10 -10 -9 -0 3 2 -2 -5 -2 -3 -1 -3 -2 -3 3 5 2 7 7 9 10 10 14 15 15 14 13 12 12 12
-16 -17 -17 -7 -12 -11 -10 -7 -4 -5 -6 -11 -11 -11 -11 -9 -8 -11 -3 -0 3 2 -3 -3 -3 -5 -6 -5 -1 -2 3 4 5 5 8 9 10 10 15 15 15 13 12 12 12
-16 -18 -15 -8 -9 -10 -8 -6 -5 -6 -9 -12 -10 -11 -11 -9 -8 -9 -5 -4 -1 2 2 -0 -3 -5 -4 -5 -4 -2 -2 2 3 2 4 6 9 8 14 14 15 15 13 12 12
-17 -18 -10 -8 -9 -8 -7 -6 -7 -8 -10 -9 -10 -11 -11 -9 -10 -9 -7 -3 -5 -1 2 2 -0 -3 -4 -4 -5 -5 -6 -2 2 3 7 6 12 10 9 15 15 14 15 14 13
-18 -18 -7 -6 -7 -6 -5 -6 -8 -10 -8 -9 -10 -11 -11 -11 -9 -9 -7 -3 -2 -2 -1 2 1 2 1 -2 -4 -5 -6 -6 -5 2 4 5 8 9 11 13 14 14 14 14 14
-14 -18 -6 -6 -6 -5 -6 -8 -9 -8 -8 -8 -10 -10 -9 -7 -6 -7 -1 -1 1 -0 1 -1 -2 -2 1 -1 -4 -5 -4 -3 -4 -5 1 5 6 7 9 12 13 13 14 14 14
-4 -15 -5 -3 -4 -6 -7 -8 -8 -8 -9 -8 -9 -10 -7 -6 -6 -6 1 2 1 -8 -1 -2 -5 -4 -4 -1 -2 -1 0 3 2 2 -2 -2 5 6 5 9 10 12 13 14 14
-4 -14 -5 -2 -3 -5 -7 -8 -5 -8 -8 -9 -10 -9 -7 -7 -5 -6 -2 1 1 1 2 0 -13 -0 -0 -2 -1 0 0 1 4 2 -4 -3 5 5 2 2 7 10 11 14 14
-6 -12 -1 -4 -3 -3 -6 -5 -6 -8 -9 -8 -9 -7 -7 -6 -8 -7 -2 2 2 2 -1 2 1 -1 -2 -0 -0 -0 3 -1 -0 3 2 -4 -2 1 2 2 3 7 11 13 14
-8 -6 -2 -6 -6 -4 -4 -3 -6 -7 -7 -8 -7 -8 -6 -7 -6 -6 -5 -2 2 1 0 2 -7 -2 -0 -1 -1 1 -2 3 2 4 3 1 -0 -1 3 3 3 4 8 11 13
-7 -6 -5 -4 -5 -5 -3 -4 -7 -6 -5 -6 -7 -7 -6 -6 -5 -4 -6 -2 0 1 0 -0 -1 -9 -5 -1 0 0 1 1 2 3 3 1 0 -2 -1 4 3 3 4 8 11
-5 -11 -6 -4 -2 -1 -1 -1 -2 -5 -4 -5 -6 -6 -6 -5 -4 -4 -5 -7 -1 0 1 1 3 2 -6 -8 -5 -2 3 1 4 7 4 4 0 -2 -1 -0 1 1 2 4 9
-1 -3 -4 -2 1 1 0 -0 -1 -2 -2 -3 -4 -5 -6 -5 -4 -4 -3 -3 1 -1 1 2 3 -2 -11 -9 -4 -1 -0 2 1 2 6 6 3 -1 -0 0 -0 1 1 6 8
-0 -1 -1 -1 0 1 0 1 1 -1 -1 0 -1 -4 -5 -4 -3 -4 -3 1 1 -1 1 1 2 -1 -5 -7 -0 3 2 1 2 3 5 5 3 1 1 0 -1 -1 -1 -0 6
0 1 1 2 1 1 0 0 1 1 1 1 1 0 1 1 -2 -2 -3 -3 1 -0 2 2 2 -0 -0 -1 -1 -0 1 1 2 2 5 5 5 3 2 3 2 1 -1 0 -0
2 2 1 1 1 1 1 2 2 2 2 3 2 2 4 4 0 -0 -2 -2 -3 -1 1 2 1 1 0 -4 -2 2 1 1 1 1 1 1 3 4 5 3 2 3 9 9 9
2 2 2 2 1 2 2 3 3 3 3 2 3 2 3 3 3 2 0 -0 -2 -1 0 3 2 2 -1 -4 1 3 1 0 1 1 0 2 1 7 8 12 13 13 13 13 14

GFSSW_850_dewp_051.txt.gz
Dewpoint
-16 -16 -16 -17 -16 -15 -14 -17 -17 -14 -15 -17 -19 -17 -15 -14 -17 -26 -4 -1 -2 -11 5 10 10 11 12 12 12 13 15 16 13 14 15 14 15 15 16 15 14 14 14 15 15
-17 -17 -17 -17 -18 -19 -18 -17 -17 -15 -15 -18 -19 -15 -13 -17 -17 -0 -2 -8 -3 -11 6 9 10 10 10 10 12 13 12 13 11 10 15 13 13 14 14 14 13 13 14 15 15
-20 -20 -18 -18 -19 -19 -20 -18 -17 -15 -15 -18 -18 -17 -13 -16 3 1 -3 -11 -4 -11 9 9 8 9 8 8 9 10 11 10 10 10 11 13 14 13 14 13 13 13 15 15 15
-21 -22 -21 -19 -18 -18 -19 -20 -16 -15 -16 -17 -18 -16 -10 -9 -1 0 -2 -1 -6 -11 11 8 7 7 6 5 7 10 8 8 11 10 12 15 15 13 13 15 12 14 15 15 15
-20 -21 -23 -21 -19 -17 -18 -19 -17 -15 -16 -17 -16 -9 -13 1 -7 -3 -5 -3 -3 -7 10 7 5 5 3 2 5 8 7 11 12 11 11 12 14 13 13 13 13 14 15 15 14
-20 -21 -21 -22 -18 -14 -13 -15 -15 -16 -16 -16 -10 -12 2 -5 -5 -4 4 -2 4 0 7 6 4 4 1 1 2 3 5 10 12 12 11 11 12 12 13 12 13 14 14 14 14
-19 -20 -20 -22 -18 -11 -11 -13 -15 -16 -17 -9 -8 -3 -1 -7 -6 -5 2 2 1 2 6 4 3 2 -0 -1 -2 1 4 4 11 11 13 11 13 13 12 12 13 14 14 13 13
-20 -20 -20 -22 -17 -10 -12 -14 -15 -14 -11 -6 -5 5 -5 -8 -7 -8 -2 3 4 5 5 2 1 1 -0 -3 -4 -0 2 7 8 9 10 10 12 10 12 12 13 14 14 13 13
-20 -20 -20 -21 -12 -10 -12 -13 -15 -11 -9 -5 -1 4 -8 -9 -9 -8 -6 2 4 4 3 2 1 0 -1 -2 -2 -6 0 3 3 7 9 9 13 14 12 12 13 13 13 13 13
-18 -19 -20 -20 -11 -11 -11 -13 -15 -9 -9 -5 0 -3 -11 -10 -10 -6 -5 0 2 4 1 2 1 -0 -1 -1 -3 -7 -4 -3 1 6 8 9 14 15 11 11 13 13 13 13 13
-18 -19 -19 -19 -10 -10 -6 -3 0 1 -6 -10 -10 -11 -11 -10 -10 -4 1 1 2 2 -1 -1 1 -1 -1 -1 -5 -8 -8 -4 -2 2 8 10 12 17 10 11 12 13 13 13 13
-12 -10 -16 -14 -9 -9 -5 -6 -5 -4 -7 -11 -11 -12 -11 -10 -11 -6 -1 -0 -1 3 0 -4 -3 -4 -5 -6 -6 -6 -6 -3 -4 1 8 10 11 10 10 10 12 12 13 12 12
-4 -4 -10 -9 -9 -4 -6 -6 -5 -4 -6 -11 -12 -12 -12 -11 -11 -11 -6 -2 -2 0 1 -0 -5 -7 -6 -5 -5 -5 -5 -4 1 1 4 9 11 10 11 10 11 11 12 12 12
-5 -4 -6 -9 -6 -7 -5 -5 -4 -5 -6 -10 -12 -12 -13 -12 -11 -12 -9 -5 -4 -1 -5 -4 -6 -6 -5 -6 -5 -3 -6 -7 -5 3 6 5 12 11 10 11 11 11 11 12 11
-5 -5 -6 -10 -7 -5 -4 -4 -6 -6 -8 -10 -11 -12 -12 -12 -11 -12 -10 -8 -6 -6 -2 -2 -5 -6 -4 -6 -6 -4 -7 -8 -9 -5 -0 4 8 9 9 13 11 11 11 11 11
-6 -8 -8 -2 -4 -4 -4 -4 -7 -8 -9 -10 -12 -12 -12 -12 -11 -12 -11 -11 -8 -6 -5 -3 -4 -5 -6 -6 -6 -6 -6 -5 -7 -8 -4 0 6 7 9 9 10 9 10 11 11
-8 -12 -13 -9 -3 -4 -4 -6 -7 -11 -10 -8 -11 -12 -11 -10 -10 -11 -9 -9 -10 -10 -10 -9 -6 -3 -4 -3 -4 -3 -2 1 1 -2 -4 -7 2 5 3 7 7 8 9 10 10
-5 -12 -7 -4 -5 -4 -4 -6 -5 -11 -11 -11 -12 -12 -11 -10 -10 -10 -10 -8 -8 -7 -8 -10 -9 -10 -6 -4 -2 -2 -2 -0 4 1 -4 -8 -4 -0 1 2 8 10 9 9 10
-5 -2 -4 -5 -4 -4 -4 -5 -8 -8 -10 -11 -12 -9 -10 -9 -9 -8 -8 -9 -8 -8 -7 -12 -10 -7 -5 -6 -4 -1 0 -4 -3 -3 -1 -5 -9 -10 -5 -1 2 4 7 9 9
-2 -3 -5 -5 -5 -4 -5 -5 -8 -8 -9 -9 -6 -7 -6 -7 -7 -7 -7 -7 -6 -7 -8 -8 -4 -10 -9 -5 -5 -2 -2 1 -1 3 4 0 -2 -7 -8 -5 -2 2 4 7 9
1 -3 -4 -2 -3 -4 -3 -2 -4 -6 -6 -5 -5 -4 -5 -5 -6 -6 -6 -7 -7 -7 -9 -10 -6 -10 -12 -7 -9 -10 -5 -1 -0 -1 1 3 0 -5 -6 -7 -5 -2 1 4 6
-0 -4 -2 -1 -1 -3 -1 -1 -2 -4 -5 -5 -5 -4 -4 -4 -4 -5 -5 -6 -8 -7 -6 -10 -8 -7 -10 -14 -18 -16 -10 -9 -1 4 1 -1 -0 -5 -6 -7 -8 -4 -1 1 3
0 -2 -0 -1 1 -0 -1 -2 -3 -3 -3 -3 -2 -4 -4 -3 -2 -3 -4 -6 -7 -7 -6 -7 -4 -5 -5 -8 -11 -13 -12 -6 -4 -5 2 2 -1 -5 -4 -4 -4 -5 -5 -1 1
1 0 -1 -1 -1 -1 -0 -1 -2 -3 -3 -3 -3 -3 -2 -1 -3 -2 -4 -6 -8 -6 -3 -5 -4 -4 -4 -5 -8 -8 -13 -12 -6 -2 -1 0 1 -2 -1 -1 -2 -2 -5 -3 1
1 0 1 0 -1 -1 -1 -1 -1 -0 -2 -2 -2 -1 -1 2 -0 0 -2 -4 -5 -5 -4 -4 -3 -4 -5 -7 -7 -8 -8 -8 -6 -5 -3 -2 0 1 0 1 -1 -2 -1 -1 -2
1 2 -1 -1 -0 -1 -1 0 0 1 1 -0 1 -0 -0 2 1 3 3 3 -0 -4 -3 -4 0 -1 0 -5 -7 -8 -9 -9 -10 -11 -5 -1 0 -2 -1 -1 0 1 -1 0 1
2 2 1 0 -1 0 1 1 1 0 0 -1 -0 1 2 1 -0 -1 -1 -1 3 2 2 0 -0 1 2 -3 -6 -5 -7 -9 -10 -11 -12 -8 -4 -4 -2 -1 -0 0 0 -1 0

GFSSW_850_dewp_054.txt.gz
Dewpoint
-21 -21 -20 -19 -19 -19 -20 -19 -17 -16 -15 -15 -18 -19 -14 -15 -15 -21 -20 -0 -4 -3 -5 3 8 10 12 13 12 11 15 17 16 15 18 16 16 15 14 16 15 14 15 15 14
-23 -23 -23 -22 -20 -19 -19 -20 -19 -18 -15 -16 -18 -17 -17 -15 -16 2 -3 -3 -2 -7 -0 8 7 10 11 11 10 11 14 13 12 13 15 16 14 14 15 14 14 14 15 15 14
-22 -23 -23 -24 -23 -21 -19 -20 -21 -17 -15 -16 -17 -17 -15 -11 3 1 -1 -4 -8 -10 1 8 6 9 8 9 9 9 13 10 11 12 14 14 13 13 13 13 13 15 15 14 14
-21 -21 -22 -22 -23 -20 -18 -17 -19 -18 -16 -16 -17 -17 -11 -10 3 2 -0 -7 -12 -11 5 10 7 7 8 8 7 9 8 9 9 12 13 16 16 15 15 17 15 15 15 14 14
-20 -21 -21 -21 -22 -21 -16 -14 -16 -16 -17 -17 -17 -12 -11 3 1 -3 -4 -2 -12 -10 5 10 7 6 6 5 5 6 6 7 10 12 12 15 16 16 16 14 14 14 14 14 14
-20 -21 -21 -21 -21 -19 -15 -13 -14 -16 -16 -17 -11 -9 -7 4 -6 -6 -1 5 1 -4 4 10 7 5 4 3 1 3 5 6 9 10 12 13 15 15 14 14 14 14 15 15 14
-20 -21 -21 -21 -20 -18 -12 -13 -14 -15 -17 -11 -9 -3 7 1 -7 -7 -2 3 3 -1 1 8 5 3 3 1 -0 -1 3 2 4 11 11 11 12 13 14 15 14 14 14 14 13
-20 -21 -21 -21 -20 -15 -12 -13 -14 -14 -12 -7 -4 2 6 -8 -9 -9 -4 2 2 0 -0 5 4 2 2 0 -3 -3 -1 4 3 10 11 11 13 10 13 16 14 14 14 14 13
-20 -20 -20 -20 -19 -13 -12 -13 -15 -12 -10 -7 -2 4 2 -10 -9 -10 -7 0 1 1 3 5 3 1 -1 2 -0 -3 -1 2 3 6 10 11 13 14 15 16 14 14 13 13 13
-18 -17 -17 -18 -18 -12 -9 -8 -13 -13 -10 -7 -2 0 -5 -11 -11 -8 -7 0 1 3 3 4 2 1 0 0 2 -2 -4 -2 1 1 7 10 13 15 14 15 13 13 13 12 13
-8 -8 -10 -14 -16 -10 -6 -2 2 4 -1 -3 -5 -7 -11 -11 -11 -6 -3 -3 0 3 3 2 3 3 1 -2 -2 -4 -6 -8 -5 -3 7 10 15 13 12 12 13 13 12 12 13
-6 -6 -7 -11 -14 -10 -5 -3 -6 -6 -5 -8 -12 -12 -13 -12 -12 -6 -1 -1 0 4 -1 -1 3 1 -5 -2 -2 -1 -2 -6 -9 -6 3 13 15 13 12 14 14 12 12 12 12
-7 -8 -8 -9 -12 -5 -5 -6 -6 -6 -7 -11 -12 -15 -13 -13 -13 -11 -7 -2 -1 -1 1 -1 -3 -4 -4 -4 -3 -4 -4 -6 -5 -5 -1 3 15 14 11 11 14 11 11 12 12
-7 -8 -7 -10 -5 -4 -6 -6 -5 -6 -5 -9 -12 -13 -13 -14 -13 -12 -12 -6 -5 -2 -3 -0 -3 -5 -6 -4 -5 -3 -6 -6 -6 -4 2 2 8 15 15 15 15 13 11 11 11
-7 -10 -10 -8 -11 -3 -4 -7 -6 -6 -3 -10 -12 -12 -13 -14 -11 -12 -12 -10 -7 -6 -4 -3 -3 -2 -3 -5 -6 -5 -6 -6 -6 -6 -2 3 6 6 14 16 15 16 11 11 11
-6 -7 -11 0 -5 -4 -7 -6 -7 -6 -7 -9 -12 -13 -14 -14 -13 -12 -12 -12 -10 -9 -8 -7 -6 -7 -7 -7 -7 -8 -6 -5 -5 -7 -4 -4 1 4 8 13 13 14 14 12 11
-4 -12 -13 -8 -1 -4 -7 -6 -5 -6 -10 -8 -11 -13 -13 -11 -11 -12 -11 -10 -11 -8 -8 -7 -6 -5 -4 -6 -7 -6 -5 -0 0 -1 -3 -8 -6 -1 2 10 13 12 12 10 11
-4 -8 -3 -6 -5 -6 -6 -5 -3 -9 -10 -12 -14 -14 -12 -13 -11 -12 -11 -9 -10 -11 -9 -8 -12 -11 -5 -2 -3 -4 -4 -1 2 1 -1 -4 -4 -6 -6 2 10 11 12 13 11
-4 -1 -1 -4 -6 -7 -6 -3 -6 -8 -10 -11 -13 -12 -14 -14 -11 -10 -9 -10 -12 -10 -8 -9 -9 -11 -13 -7 -5 -2 -1 -4 -2 -3 -1 -3 -5 -8 -8 -4 5 10 11 14 12
-3 -0 -4 -4 -7 -6 -5 -3 -7 -7 -8 -8 -8 -10 -7 -9 -8 -8 -9 -10 -10 -8 -8 -6 -4 -9 -9 -8 -7 -6 -5 -0 -1 4 5 -1 -0 -3 -4 -3 2 9 9 10 10
1 -0 -3 -2 -3 -4 -2 -1 -3 -5 -5 -5 -4 -4 -4 -5 -6 -6 -7 -8 -8 -7 -7 -8 -8 -9 -10 -8 -7 -6 -5 -2 0 1 3 3 -0 -2 1 -3 -2 9 10 6 10
2 -1 -1 -1 -1 -2 0 -1 -3 -4 -4 -5 -5 -4 -4 -4 -3 -3 -3 -6 -7 -8 -5 -7 -9 -6 -7 -11 -11 -10 -9 -12 -6 4 2 1 -1 -5 -1 -5 -6 -8 -4 9 11
3 -1 -1 -1 1 0 -2 -3 -4 -4 -4 -3 -3 -3 -3 -2 -0 -3 -4 -6 -6 -6 -4 -5 -5 -4 -5 -9 -12 -12 -15 -15 -13 -11 -1 3 1 -5 -4 -1 -6 -7 -8 -2 11
4 1 -1 -3 -3 -2 -1 -2 -2 -4 -3 -3 -3 -4 -3 -2 -2 -0 -0 -4 -4 -7 -3 -5 -4 -2 -2 -6 -5 -6 -9 -12 -13 -6 -5 -6 -1 0 1 5 5 2 1 -3 -1
-0 -1 -0 0 -1 -2 -1 -2 -0 0 -2 -3 -3 -1 -0 0 -1 -2 -3 -1 -0 -4 -6 -5 -2 -3 -4 -5 -5 -6 -7 -8 -10 -11 -4 -5 -5 -2 3 3 4 4 2 3 0
2 1 -2 -1 -2 -2 -1 -1 -1 -2 -1 -2 -1 -2 -2 -1 -1 -0 -2 -1 1 -0 -1 -5 -2 -2 -1 -3 -4 -4 -7 -8 -8 -11 -13 -9 -6 -6 -5 -2 1 2 2 2 2
1 2 0 -1 -1 -1 -0 0 -1 -0 0 -2 -1 -1 -0 -1 -2 -3 -3 -3 -2 -1 2 -0 0 1 2 -3 -2 -1 -4 -7 -9 -8 -8 -7 -7 -8 -7 -5 -3 -2 -1 -1 1

GFSSW_850_dewp_057.txt.gz
Dewpoint
-22 -23 -24 -25 -25 -24 -22 -20 -21 -21 -20 -16 -16 -18 -18 -18 -16 -16 -25 -4 -4 -4 -3 -1 1 10 14 15 15 14 14 17 16 15 18 16 16 15 14 16 16 15 15 14 12
-22 -23 -23 -23 -23 -23 -22 -21 -21 -22 -19 -17 -16 -17 -18 -16 -12 -18 -25 -8 -1 -4 -6 3 7 9 11 13 13 13 14 14 12 13 16 16 16 13 15 15 16 15 15 14 13
-20 -21 -22 -22 -22 -22 -21 -19 -18 -20 -20 -17 -16 -17 -17 -12 -1 2 -16 -7 -4 -3 -8 6 6 7 10 11 11 10 13 11 11 12 15 15 17 14 14 15 15 15 15 14 14
-19 -21 -22 -22 -22 -21 -19 -17 -16 -16 -18 -19 -17 -17 -15 -10 6 3 0 -1 -3 -7 -9 7 8 6 9 9 9 11 9 9 10 14 17 17 17 15 15 16 16 15 14 14 13
-20 -21 -22 -22 -22 -20 -18 -15 -15 -15 -17 -18 -17 -16 -9 2 -5 -3 -6 -4 -11 -8 -10 7 9 8 8 8 7 8 7 7 9 13 16 17 16 16 15 13 16 15 14 13 13
-21 -22 -22 -22 -22 -20 -17 -13 -14 -15 -16 -17 -14 -9 -9 6 -5 -5 -5 2 -6 -6 -11 7 10 8 7 6 6 5 5 4 5 14 16 15 16 15 15 13 16 15 14 13 13
-19 -21 -22 -22 -22 -20 -17 -14 -13 -14 -14 -14 -8 -8 3 4 -6 -7 -6 2 1 -5 -9 8 9 10 5 4 3 1 1 -0 2 9 14 14 16 16 15 15 15 15 14 13 13
-19 -20 -21 -21 -20 -19 -16 -14 -12 -14 -10 -8 -4 0 5 -6 -8 -8 -6 -0 3 2 -5 4 8 8 5 3 2 0 -2 1 1 7 10 12 17 16 15 16 15 15 14 14 13
-14 -12 -14 -15 -18 -18 -16 -11 -13 -12 -9 -6 -2 6 5 -6 -9 -9 -8 -2 1 3 -2 -1 2 5 3 2 4 3 1 -0 -0 0 11 12 17 17 16 16 15 15 15 14 14
-6 -7 -8 -9 -12 -16 -14 -7 -7 -14 -4 -6 -1 4 -0 -6 -10 -9 -8 -6 1 -0 -1 -1 4 4 3 2 6 5 -0 -2 -2 0 10 13 17 16 15 15 15 14 14 14 14
-8 -10 -11 -9 -10 -14 -10 -4 0 -0 -7 2 1 -3 -7 -11 -12 -8 -5 -4 0 2 4 4 6 6 2 1 0 0 1 -1 -5 -5 8 13 17 17 15 15 16 16 14 14 13
-9 -11 -12 -14 -11 -16 -7 -5 -6 -6 -6 -6 -3 -5 -13 -12 -12 -7 -2 -6 0 3 3 3 6 3 1 1 0 -1 0 -0 -2 -6 -1 13 16 14 15 14 16 16 14 14 13
-8 -10 -14 -15 -11 -7 -5 -5 -6 -6 -6 -7 -11 -10 -15 -14 -13 -8 -3 -2 0 2 3 2 1 1 1 1 -1 -1 0 -0 -1 -5 4 13 15 14 13 14 15 16 14 13 12
-8 -7 -13 -15 -6 -2 -3 -5 -6 -7 -4 -6 -11 -14 -13 -14 -14 -12 -12 -10 -5 0 -0 0 -1 -2 -0 -0 -2 -1 -3 -4 -5 -4 -0 12 17 15 14 15 16 15 14 13 13
-7 -5 -13 -11 -11 -5 -6 -7 -6 -7 0 -10 -12 -13 -14 -14 -12 -12 -13 -12 -8 -7 -5 -1 -2 -0 0 -3 -5 -3 -4 -4 -3 -3 -3 -4 -1 14 14 17 15 15 12 13 13
-6 -5 -14 -2 -1 -2 -4 -7 -6 -4 -1 -9 -11 -12 -13 -14 -14 -11 -12 -11 -12 -9 -9 -8 -9 -5 -2 -3 -4 -6 -5 -5 -4 -2 -0 -4 -3 2 15 15 14 12 10 10 11
-6 -7 -15 -4 -2 -6 -7 -6 -2 -2 -9 -9 -11 -13 -13 -12 -12 -12 -11 -10 -9 -9 -7 -6 -6 -7 -6 -4 -6 -6 -4 -0 1 1 1 -4 -4 -5 13 13 13 12 12 11 13
-6 -4 -3 -10 -5 -5 -6 -3 1 -5 -8 -12 -13 -14 -12 -11 -11 -10 -11 -10 -9 -11 -10 -7 -7 -12 -9 -3 -1 -4 -4 1 3 3 1 -3 -1 -3 -8 12 12 11 13 14 13
-4 -2 -1 -4 -6 -7 -6 -0 -2 -6 -7 -8 -12 -12 -12 -14 -12 -10 -9 -8 -10 -6 -5 -4 -5 -8 -9 -7 -3 -1 0 -5 -2 -2 1 -1 -3 -4 -6 6 12 11 13 12 12
-1 -2 -1 -3 -4 -6 -3 -1 -3 -5 -6 -6 -4 -6 -4 -6 -9 -8 -8 -9 -7 -7 -7 -5 -3 -7 -10 -10 -5 -3 -3 -0 -1 2 4 2 1 1 -2 -5 10 12 12 14 12
1 3 -1 -1 -3 -3 0 1 -2 -4 -4 -4 -3 -3 -3 -2 -3 -2 -3 -5 -6 -6 -7 -6 -5 -6 -8 -7 -6 -4 -3 -3 -1 2 4 3 1 -2 1 3 10 11 11 14 11
3 4 -2 -1 0 0 1 -2 -4 -4 -4 -4 -4 -3 -1 -2 -2 -2 -2 -3 -6 -6 -3 -5 -4 -4 -6 -9 -10 -9 -6 -5 -2 0 3 5 4 -1 1 4 7 10 10 13 10
5 1 -3 -2 1 0 -2 -3 -4 -4 -3 -3 -3 -3 -3 -1 1 -0 -1 -3 -4 -5 -0 -4 -2 -0 -4 -8 -8 -6 -8 -11 -10 -10 -7 -3 2 1 1 2 4 5 7 12 14
5 3 -1 -2 -2 -1 0 -1 -1 -3 -3 -3 -2 -2 -1 -1 -2 -0 -1 -3 -1 -2 -3 -5 -4 -1 0 -1 -3 -3 -4 -6 -7 -9 -8 -7 -5 -8 1 1 0 4 2 8 14
3 -1 -1 1 -0 -1 -1 -2 -2 -1 -3 -3 -1 -2 -2 0 -1 -1 -2 -1 -1 -1 -1 -2 -1 -2 -3 -4 -4 -4 -4 -5 -5 -6 -5 -8 -6 1 -1 -1 -1 -2 -2 -0 2
1 3 -1 -1 -2 -1 -0 1 -1 -0 0 -1 0 -1 -1 -0 0 1 -1 -1 -1 -2 -1 -1 2 -2 -1 -3 -3 -3 -3 -3 -4 -6 -7 -7 -8 -10 -8 -9 -8 -9 -8 -7 -6
3 2 1 -1 -1 -0 -0 -0 -1 -0 -1 -1 -0 1 1 -1 -1 -2 -2 -3 -3 -2 1 2 4 4 3 -0 -0 2 -3 -3 -3 -4 -7 -6 -7 -8 -5 -5 -7 -6 -5 -4 -5

GFSSW_850_dewp_060.txt.gz
Dewpoint
-20 -21 -23 -23 -23 -22 -22 -20 -21 -21 -23 -20 -17 -17 -18 -19 -20 -19 -21 -13 -6 -3 -3 -2 -6 6 16 16 16 15 16 17 15 15 17 17 17 15 15 15 15 15 13 13 15
-19 -20 -22 -23 -23 -22 -21 -19 -18 -18 -21 -21 -18 -17 -17 -19 -17 -15 -21 -23 -5 -3 -1 -1 -4 10 11 15 15 15 16 15 12 14 16 16 16 14 15 15 15 15 13 14 15
-21 -21 -22 -23 -23 -22 -20 -18 -16 -16 -17 -19 -19 -18 -17 -17 -10 1 -10 -21 -4 -4 -5 -1 -0 9 9 10 13 12 15 13 12 14 13 14 15 16 14 16 15 15 13 13 14
-14 -20 -23 -23 -23 -23 -21 -18 -15 -15 -16 -17 -18 -17 -17 -13 5 1 -3 -6 -6 -3 -3 2 3 7 8 10 11 12 11 10 11 15 15 16 15 16 15 15 15 14 12 13 14
-10 -14 -18 -23 -23 -22 -21 -18 -14 -14 -15 -16 -17 -16 -11 -4 -11 -3 -5 -4 -2 -3 -5 -2 3 8 7 9 10 9 9 10 10 16 14 12 15 15 15 16 15 15 14 13 13
-10 -14 -17 -21 -22 -22 -21 -17 -14 -14 -15 -15 -15 -9 -8 5 -5 -5 -6 -2 -3 -7 -5 -6 8 8 8 7 8 7 6 5 15 16 16 16 16 16 15 16 16 15 14 14 14
-13 -14 -15 -17 -20 -21 -20 -17 -14 -12 -14 -12 -8 -8 0 -7 -6 -7 -7 -5 3 -12 -8 -4 7 8 9 7 6 6 5 -0 10 16 16 15 17 16 14 16 16 15 14 14 13
-9 -8 -10 -12 -14 -16 -18 -16 -12 -12 -13 -8 -3 1 -2 -1 -4 -3 -7 -5 2 3 -7 -0 6 7 7 8 4 2 -0 0 4 15 15 13 17 16 14 16 16 15 14 13 13
-7 -9 -11 -11 -11 -12 -16 -16 -10 -11 -11 -7 -3 7 3 -0 -9 -10 -8 -6 -2 3 0 -8 -0 0 4 4 3 3 5 2 -1 5 15 15 18 16 15 16 15 15 14 13 13
-8 -12 -13 -14 -12 -11 -15 -10 -6 -6 -11 -2 -1 3 -4 -6 -10 -10 -10 -6 3 3 2 -0 -2 1 4 3 6 5 4 -0 -1 -4 13 16 17 17 16 16 15 14 14 13 13
-9 -10 -12 -15 -14 -11 -15 -5 -3 -0 -5 -4 -2 -6 -6 -9 -12 -8 -7 -7 -0 1 1 0 5 7 6 3 2 1 2 2 0 -1 1 16 18 18 17 16 15 15 14 13 14
-8 -8 -9 -16 -15 -12 -12 -5 -6 -6 -6 -6 -6 -5 -4 -4 -12 -9 -5 -5 1 3 2 4 6 4 3 1 1 2 2 1 -1 -2 1 17 18 17 16 16 15 15 15 14 14
-10 -8 -7 -18 -10 -8 -5 -5 -6 -6 -5 -6 -10 -8 -7 -12 -14 -9 -3 -5 0 2 3 5 4 2 4 4 3 2 2 1 0 -2 13 16 17 17 15 15 16 16 15 15 13
-11 -7 -7 -18 -6 -4 -5 -6 -6 -6 -5 -6 -8 -10 -10 -14 -15 -12 -8 -9 -5 1 1 4 2 1 2 3 1 3 -2 -2 -1 -3 3 12 17 16 16 16 16 13 15 15 15
-8 -6 -8 -12 -7 -4 -5 -7 -6 -7 -0 -8 -12 -14 -14 -14 -12 -12 -13 -14 -10 -8 -6 -1 -1 1 2 0 -0 1 -2 -3 -4 -3 -3 -2 -2 12 15 16 17 13 12 12 14
-6 -5 -12 -4 -2 -6 -7 -7 -6 -4 -0 -9 -12 -12 -13 -14 -13 -12 -12 -12 -12 -12 -10 -8 -9 -7 -3 -2 -1 -3 -4 -5 -4 -3 -0 -3 -3 13 15 16 16 15 15 15 14
-4 -5 -10 -6 -5 -6 -6 -6 -2 -3 -8 -9 -10 -12 -12 -13 -13 -12 -11 -10 -10 -10 -10 -9 -9 -9 -7 -5 -4 -5 -4 -0 -0 -1 0 -3 -3 -4 13 12 14 15 15 14 13
-5 -4 -5 -6 -7 -7 -6 -4 -0 -5 -5 -9 -13 -13 -12 -12 -11 -11 -11 -10 -11 -11 -10 -9 -8 -11 -10 -5 -2 -4 -4 -0 1 2 1 -2 -1 -3 5 11 12 14 14 12 13
-4 -2 -4 -6 -6 -6 -6 -1 -1 -3 -5 -5 -8 -8 -4 -6 -10 -10 -9 -6 -6 -6 -7 -4 -5 -7 -9 -10 -5 -2 -1 -5 -2 -1 -0 -0 -2 -3 2 2 13 12 11 11 10
-2 -2 -2 -1 -3 -5 -4 2 -3 -4 -5 -5 -2 -3 -2 -2 -3 -3 -5 -5 -5 -6 -7 -6 -5 -7 -8 -9 -7 -3 -4 -1 -1 1 2 1 0 1 4 8 10 12 12 11 12
2 1 -1 -2 -2 -3 1 1 -3 -4 -4 -4 -2 -1 -1 -1 -2 -2 -2 -4 -5 -5 -6 -5 -6 -6 -9 -8 -7 -8 -5 -3 -2 1 3 3 1 2 5 6 7 12 12 12 14
2 1 -2 -1 0 1 -2 -3 -4 -3 -3 -3 -3 -2 -1 -1 -1 -1 -0 -1 -3 -4 -1 -4 -5 -2 -5 -7 -8 -9 -5 -6 -1 -2 1 4 2 1 2 3 1 4 11 13 14
3 3 -2 -3 0 0 -2 -2 -3 -2 -2 -3 -1 -2 -2 -1 -0 -1 -1 -1 -2 -2 -1 -4 -3 -1 -5 -5 -4 -4 -4 -5 -7 -9 -8 -6 -5 -2 1 2 0 1 11 14 14
2 -0 -1 -2 -2 -1 -1 -2 -1 -3 -2 -3 -3 -3 -2 -1 -2 -1 -1 -3 -3 0 -0 -4 -4 -2 -0 -1 -3 -3 -4 -4 -6 -6 -6 -7 -7 -4 -4 -4 -5 -1 6 14 15
1 -1 -0 1 -0 -1 -1 -1 0 1 -1 -1 -0 -0 -1 -1 -0 0 -1 -2 -3 -1 -2 -3 -2 -3 -3 -4 -4 -3 -3 -3 -2 -3 -4 -6 -6 -8 -7 -6 -8 -6 -6 3 9
1 1 -1 -1 -2 -1 -0 0 1 0 0 0 2 1 -0 1 1 1 -0 -1 -1 -3 -1 -0 2 1 1 -1 -1 -0 -1 -2 -3 -3 -3 -4 -6 -8 -6 -5 -5 -4 -3 3 5
3 3 2 -1 -0 -0 -0 -0 1 -0 -1 -0 1 1 1 1 0 0 -0 -1 -2 -2 -2 0 2 3 3 1 1 1 -1 -2 -2 -3 -3 -1 -3 -5 -3 -3 -3 2 3 4 3

GFSSW_850_dewp_063.txt.gz
Dewpoint
-20 -21 -21 -22 -22 -23 -22 -20 -18 -19 -19 -20 -21 -18 -17 -18 -19 -19 -21 -25 -5 -6 -3 2 -0 -1 14 15 16 16 17 17 15 16 17 16 17 16 16 15 13 15 12 14 14
-12 -16 -21 -23 -23 -22 -22 -20 -17 -17 -18 -18 -19 -20 -18 -18 -19 -19 -18 -22 -4 -4 -2 -2 -2 11 15 16 15 16 17 16 13 14 16 16 16 16 16 15 15 13 12 15 15
-5 -8 -12 -18 -23 -23 -22 -20 -16 -16 -16 -17 -18 -19 -19 -18 -15 1 -5 -23 -5 -3 -2 -3 -1 11 10 11 15 14 16 13 12 14 15 16 16 15 15 16 15 13 14 16 16
-2 -5 -8 -13 -18 -22 -22 -21 -16 -14 -15 -16 -17 -18 -18 -15 -1 -3 -14 -21 -4 -4 -3 0 5 9 8 10 11 13 12 12 11 14 14 14 15 16 15 15 15 12 14 16 16
-6 -7 -8 -11 -15 -18 -21 -19 -17 -14 -14 -15 -16 -17 -15 -7 -17 -3 -5 -8 -4 -3 -4 1 5 7 8 9 10 11 10 10 9 10 12 14 14 15 16 16 15 12 15 15 15
-11 -11 -11 -12 -14 -16 -19 -18 -17 -14 -12 -14 -14 -14 -9 -2 -4 -5 -6 -3 -3 -4 -3 -1 4 8 8 7 8 8 9 8 8 12 14 14 15 15 16 16 15 13 14 14 15
-7 -8 -9 -11 -12 -13 -16 -16 -16 -13 -11 -12 -9 -8 -8 -12 -6 -5 -6 -4 -0 -4 -5 -5 7 6 8 9 8 7 8 5 15 15 15 15 16 16 15 16 16 14 13 14 14
-8 -9 -12 -14 -14 -12 -14 -13 -16 -12 -10 -10 -3 -2 -5 -1 -2 -3 -4 -5 1 2 -10 -7 4 6 6 8 5 2 1 2 14 15 15 15 15 16 15 16 16 15 14 14 13
-8 -11 -12 -13 -15 -14 -12 -13 -14 -8 -10 -7 -4 5 2 0 -2 -6 -6 -5 -3 4 -2 -5 -7 2 3 5 4 3 5 4 8 16 16 16 17 16 16 16 16 15 14 14 13
-9 -11 -9 -10 -15 -15 -12 -11 -3 -6 -9 -4 -1 4 -7 -1 -8 -9 -9 -7 -6 3 3 -1 -2 -0 3 5 9 5 5 2 1 15 15 16 16 16 15 16 16 15 14 14 14
-11 -11 -8 -7 -16 -15 -12 -6 -2 -1 -3 -6 -5 -4 -4 -5 -9 -9 -9 -7 1 4 3 -1 1 4 4 4 4 2 2 2 1 -1 -1 16 16 17 16 16 16 15 14 13 13
-14 -12 -8 -9 -16 -13 -7 -5 -4 -4 -5 -6 -6 -6 -5 -5 -5 -10 -8 -6 1 2 1 4 5 4 4 3 2 2 3 3 1 -1 -0 6 16 17 16 16 15 15 14 14 13
-12 -11 -8 -14 -8 -5 -4 -4 -5 -6 -5 -6 -6 -8 -7 -7 -9 -11 -6 -5 1 2 3 4 4 3 4 5 4 3 3 3 2 -0 14 16 17 18 16 15 15 15 14 14 13
-5 -7 -8 -15 -4 -5 -4 -7 -7 -7 -5 -7 -7 -9 -9 -8 -14 -14 -8 -6 -5 2 2 3 2 3 3 4 4 5 2 2 0 -1 -1 13 15 17 16 16 15 16 15 14 13
-2 -6 -7 -14 -6 -5 -6 -7 -6 -7 -1 -7 -11 -12 -11 -14 -12 -12 -12 -11 -7 -7 -0 2 -1 4 3 1 1 3 1 -0 -1 -3 -3 -1 5 9 16 17 16 16 16 15 14
-3 -6 -10 -3 -5 -6 -6 -7 -6 -5 -2 -10 -12 -13 -13 -14 -13 -12 -12 -12 -12 -11 -10 -9 -10 -6 -1 -1 -1 -1 -1 -4 -3 -3 -1 -3 -2 9 17 16 15 15 16 15 15
-6 -5 -12 -4 -6 -8 -7 -6 -4 -3 -7 -6 -10 -12 -13 -13 -12 -11 -11 -10 -10 -9 -10 -11 -10 -9 -8 -5 -6 -4 -3 0 -0 -0 -0 -3 -2 -3 11 14 13 14 15 13 14
-5 -5 -6 -8 -7 -6 -6 -5 -0 -3 -3 -6 -9 -12 -8 -11 -12 -11 -10 -6 -7 -10 -10 -9 -9 -11 -9 -7 -4 -4 -3 -1 1 1 -0 -3 -1 -1 3 7 12 13 13 14 12
-3 -2 -2 -3 -6 -6 -5 -1 -1 -2 -3 -4 -5 -3 -2 -4 -7 -9 -4 -3 -5 -6 -8 -5 -6 -8 -9 -10 -8 -3 -2 -5 -1 -2 -1 -1 -2 -2 5 6 6 12 14 14 14
-1 -2 -1 -1 -2 -3 0 2 -2 -3 -4 -4 -2 -2 0 -2 -2 -3 -3 -3 -3 -5 -7 -5 -4 -8 -8 -9 -9 -6 -4 -1 -1 1 1 0 1 6 6 4 5 12 13 14 14
-0 -1 -2 -2 -2 -3 1 -1 -2 -3 -4 -3 -1 -1 -1 -1 -1 -2 0 -3 -2 -4 -5 -5 -6 -6 -9 -6 -6 -5 -4 -4 -2 -1 2 2 5 3 5 2 3 7 12 13 13
-0 -1 -2 -2 -2 -1 -2 -3 -3 -3 -3 -2 -2 -1 -1 -1 -0 0 2 0 -1 -3 -1 -4 -4 -3 -5 -6 -7 -5 -4 -5 -1 -1 -1 2 4 -4 1 -1 -1 13 10 12 11
0 -1 -3 -2 -0 -1 -3 -2 -2 -2 -2 -3 -2 -3 -3 -2 -0 -0 0 -3 -0 0 3 -3 -3 -3 -6 -6 -5 -4 -4 -5 -5 -8 -5 -4 -2 -6 -6 -6 -3 10 14 15 15
-1 -0 -2 -2 -2 -2 -2 -0 -1 -1 -1 -1 -1 -2 -2 -1 -2 -0 -1 -3 -2 0 2 -4 -3 -3 -1 -1 -3 -3 -3 -4 -4 -2 -3 -6 -4 -7 -6 -5 -5 0 7 15 14
-1 -0 -0 1 -1 -1 -1 -0 1 1 -1 -1 0 -0 -1 2 1 1 -0 -2 -3 -2 -1 -3 0 0 -2 -3 -2 -3 -1 -2 -3 -3 -1 -4 -4 -6 -6 -6 -2 3 5 5 4
2 1 -1 -1 -1 -1 -0 0 1 0 -1 1 2 0 0 1 1 2 0 -1 -1 -2 -2 -1 2 1 1 1 -0 -1 -2 -2 -2 -3 -3 -3 -3 -5 -2 -2 2 3 2 1 2
2 2 -1 -1 -0 -0 0 0 0 -1 0 0 0 0 1 1 1 0 0 -0 -2 -1 -2 -0 1 2 3 2 -0 -1 -1 -1 -2 -3 -3 -1 -1 2 2 1 3 2 1 1 -1

GFSSW_850_dewp_066.txt.gz
Dewpoint
-3 -5 -8 -14 -22 -23 -23 -22 -20 -17 -17 -18 -19 -21 -19 -18 -18 -20 -22 -24 -5 -6 1 1 -3 2 15 15 16 16 16 17 15 15 17 16 16 16 16 15 13 14 14 15 13
2 -1 -3 -7 -11 -19 -23 -22 -21 -16 -16 -17 -17 -19 -21 -19 -19 -21 -20 -23 -9 -9 -3 0 -1 4 15 15 15 16 17 16 14 14 16 16 16 16 16 15 14 14 15 15 13
-2 -3 -4 -5 -7 -12 -18 -21 -21 -18 -15 -15 -17 -18 -20 -19 -18 1 -2 -20 -7 -4 -3 1 1 13 12 14 15 15 17 14 13 15 15 16 16 16 15 16 14 16 15 15 13
-6 -7 -8 -8 -8 -10 -14 -18 -19 -19 -15 -15 -15 -17 -18 -17 -4 -4 -15 -19 -4 -3 -1 -4 8 12 10 11 13 14 12 13 12 14 15 16 15 15 15 15 15 12 13 14 14
-6 -7 -9 -10 -11 -11 -12 -16 -16 -18 -14 -14 -15 -15 -16 -11 -19 -4 -17 -13 -3 -2 -0 -2 9 9 9 10 10 11 11 11 10 10 13 14 15 16 15 15 14 13 15 15 14
-7 -8 -10 -12 -13 -13 -13 -14 -16 -16 -14 -12 -13 -14 -11 -7 -5 -4 -5 -8 -4 -4 -1 -1 8 9 8 7 10 9 10 9 8 8 13 14 14 15 16 16 14 14 14 15 15
-8 -9 -12 -14 -14 -15 -14 -13 -14 -15 -14 -12 -10 -7 -8 -14 -1 -4 -4 -4 -4 -4 -4 -0 6 7 8 9 8 8 9 6 6 15 14 15 17 16 16 15 15 15 15 15 15
-9 -11 -13 -10 -10 -14 -15 -13 -13 -15 -12 -11 -7 -4 -7 -8 -3 -3 -3 -1 -2 -3 -4 -3 5 6 7 7 5 2 1 3 12 15 15 13 15 16 16 16 14 15 15 15 15
-12 -12 -10 -8 -7 -13 -16 -12 -13 -10 -8 -9 -4 -3 1 -0 -2 -3 -5 -3 1 -0 -3 -4 -0 3 3 5 6 3 6 4 3 15 16 15 15 15 17 16 14 14 14 15 15
-11 -13 -12 -9 -7 -17 -13 -8 -1 -5 -8 -7 -3 3 -8 0 -1 -4 -3 -2 1 2 -1 -2 -4 0 3 5 11 6 5 2 2 16 15 16 16 16 16 16 16 15 14 14 14
-6 -13 -13 -8 -11 -17 -11 -4 -3 -1 -3 -6 -6 -4 -7 -5 -6 -9 -8 -1 3 3 3 -1 1 3 3 4 4 3 3 3 1 3 4 5 13 16 15 16 16 15 14 14 13
-3 -8 -12 -8 -14 -10 -4 -4 -3 -3 -3 -6 -6 -6 -7 -7 -5 -9 -9 -2 3 3 2 2 1 1 1 4 4 3 3 3 1 0 -1 6 13 16 15 16 16 15 14 14 13
-2 -4 -10 -10 -7 -5 -4 -6 -6 -6 -4 -7 -6 -7 -7 -6 -7 -10 -8 -2 1 2 2 3 3 2 5 5 4 3 4 3 3 1 8 15 16 17 16 16 16 16 15 14 14
-2 -3 -9 -11 -4 -4 -6 -7 -6 -7 -5 -7 -6 -7 -8 -8 -14 -12 -7 -3 -1 2 3 3 2 4 4 4 5 6 2 2 2 -0 -0 11 12 16 17 16 15 15 15 14 14
-3 -6 -7 -12 -5 -6 -6 -7 -6 -7 -2 -7 -9 -10 -9 -14 -13 -12 -7 -8 -4 -3 1 3 2 4 4 3 2 5 1 1 0 -0 -3 0 12 6 16 17 16 16 15 15 14
-5 -6 -9 -4 -5 -6 -5 -7 -6 -5 -3 -8 -12 -13 -13 -13 -12 -12 -12 -12 -12 -10 -9 -3 -10 -1 2 2 1 -1 -1 -4 -4 -3 -1 -3 7 -1 16 15 14 15 16 15 15
-5 -6 -6 -6 -7 -7 -7 -6 -4 -2 -6 -5 -9 -13 -13 -12 -11 -11 -10 -10 -10 -9 -9 -11 -9 -9 -8 -5 -4 -2 -2 1 0 0 0 -3 -2 -2 4 4 8 13 15 16 15
-3 -4 -5 -4 -6 -5 -5 -4 1 -2 -3 -5 -7 -4 -3 -7 -6 -5 -5 -4 -5 -10 -10 -9 -7 -9 -9 -9 -7 -2 -2 1 1 1 -0 -3 -1 1 4 3 3 10 13 15 16
-2 -1 -1 -1 -2 -3 -4 -0 0 -1 -2 -3 -4 -2 -2 -3 -7 -4 -3 -2 -5 -5 -7 -6 -6 -8 -9 -10 -7 -4 -2 -4 -2 -2 -1 -1 0 1 2 0 1 3 12 14 15
-1 -1 -2 -2 -2 -3 -2 -0 -2 -3 -3 -3 -0 -2 -0 -1 -2 -2 -2 -3 -1 -4 -7 -5 -5 -8 -8 -9 -8 -5 -6 -1 -2 1 1 -0 5 7 3 2 1 5 11 13 14
-2 -2 -2 -1 -3 -4 -1 -2 -2 -3 -3 -2 -1 -1 -1 -0 -1 -0 1 -1 -1 -3 -5 -5 -7 -7 -7 -5 -4 -3 -3 -4 -2 -1 1 4 6 -1 1 1 -1 12 15 11 14
-2 -2 -2 -1 -3 -3 -1 -3 -2 -2 -3 -3 -3 -2 -1 -1 -0 1 0 -1 -1 -2 -1 -4 -5 -3 -4 -6 -6 -5 -4 -5 0 -0 -3 3 3 -6 -6 -5 0 10 15 14 13
-1 -2 -3 -3 -1 -1 -2 -2 -1 -1 -1 -2 -1 -3 -3 -1 0 -0 -1 -3 -2 2 2 -3 -3 -4 -3 -6 -5 -3 -4 -5 -6 -7 -2 1 -2 -8 -6 -4 3 8 6 10 13
-2 -1 -2 -2 -2 -2 -1 -0 -0 -1 -1 -1 -1 -2 -2 -0 -1 0 -1 -2 -3 1 2 -4 -2 -4 -4 -3 -3 -2 -2 -4 -4 -1 -2 -3 -3 -5 -3 -2 3 3 3 4 7
-1 0 -1 -0 -1 -1 -1 -0 1 1 -1 -0 -0 -0 -1 1 1 1 -0 -2 -3 -2 -1 -3 2 -1 -2 -2 -2 -2 -1 -3 -3 -3 -2 -5 -3 -5 -0 -0 2 2 1 -1 -1
1 -1 -1 -0 -1 -1 -0 0 1 0 -0 1 1 0 0 1 1 2 0 -1 -1 -2 -3 -2 3 0 1 1 -1 -1 -2 -2 -3 -4 -3 -3 -3 2 1 2 2 1 1 1 -0
-1 -1 -1 -0 -1 0 1 0 0 -1 0 0 0 0 1 1 0 0 0 -1 -2 -1 -2 -0 0 -0 -0 1 -1 1 0 -1 -2 -0 2 -1 1 3 3 2 2 2 1 0 -1

GFSSW_850_dewp_069.txt.gz
Dewpoint
3 1 -1 -2 -4 -7 -16 -23 -22 -22 -18 -18 -20 -22 -22 -20 -18 -19 -21 -23 -8 -3 2 -0 -1 11 14 15 16 16 16 16 15 15 17 16 16 16 16 15 14 14 14 14 14
2 -1 -3 -4 -4 -6 -8 -16 -21 -21 -18 -17 -18 -20 -22 -21 -20 -20 -21 -23 -6 -3 1 0 3 14 15 15 15 16 17 15 13 14 15 16 17 16 16 14 15 15 15 14 15
-1 -2 -5 -7 -8 -8 -8 -11 -18 -20 -19 -16 -16 -19 -20 -22 -19 -1 -2 -22 -9 -5 1 1 -1 13 14 15 15 15 16 13 13 14 15 15 16 16 15 15 15 15 15 15 14
-3 -5 -6 -9 -10 -11 -11 -11 -13 -18 -19 -16 -15 -17 -19 -20 -9 -1 -13 -15 -8 -6 -1 0 7 9 13 14 14 15 13 13 12 13 14 15 15 15 15 15 14 15 14 14 14
-6 -8 -10 -11 -14 -14 -13 -13 -13 -16 -17 -15 -15 -15 -17 -15 -19 -6 -9 -19 -4 -4 1 4 6 8 8 11 11 13 12 11 10 10 12 14 14 15 15 15 15 15 15 14 14
-9 -11 -11 -14 -14 -13 -15 -14 -13 -15 -15 -15 -14 -14 -15 -10 -10 -8 -17 -6 -3 -0 -1 3 6 8 8 11 10 10 9 8 7 7 10 13 14 15 15 15 15 15 15 14 15
-11 -12 -13 -11 -9 -11 -15 -15 -14 -14 -15 -14 -13 -10 -12 -12 -1 -6 -14 -3 -1 -0 -1 1 7 7 8 8 8 8 8 3 11 12 13 14 15 15 15 15 15 15 15 14 15
-7 -12 -13 -10 -9 -10 -15 -15 -13 -14 -15 -11 -11 -6 -7 -9 -1 -4 -6 -3 -1 -2 -1 1 7 7 7 7 5 5 2 7 12 13 14 14 16 15 16 15 16 15 15 15 15
-3 -6 -13 -11 -8 -10 -16 -13 -10 -10 -9 -10 -6 -3 -0 -4 1 -3 -3 -2 -2 -1 -3 -1 4 5 5 8 9 4 8 5 4 14 15 14 15 16 16 15 15 15 14 15 15
-2 -3 -9 -11 -8 -16 -14 -4 -4 -6 -8 -7 -3 1 -2 1 0 -1 -2 0 -0 -1 -2 -3 -1 4 5 8 10 8 5 3 6 13 15 14 14 16 16 16 15 15 14 14 14
-2 -3 -4 -9 -10 -12 -9 -3 -4 -1 -3 -3 -7 -5 -5 -4 -3 1 -1 2 1 -1 -1 -3 2 5 7 7 5 4 4 4 2 6 7 2 3 11 16 16 15 15 15 14 14
-2 -3 -4 -8 -10 -4 -4 -4 -5 -4 -3 -6 -5 -5 -8 -6 -6 -1 1 1 2 0 -1 -2 -1 1 4 6 5 5 5 5 2 1 2 2 5 15 14 16 16 15 14 14 14
-2 -3 -6 -9 -6 -5 -6 -6 -6 -5 -3 -7 -6 -6 -7 -6 -7 -3 1 1 2 3 -0 -3 -3 -1 4 5 6 5 6 4 3 2 7 13 14 16 15 16 16 16 14 14 14
-5 -6 -8 -10 -4 -5 -6 -6 -6 -6 -7 -8 -7 -7 -7 -6 -12 -8 -3 -0 1 4 2 1 -1 2 6 6 5 7 3 3 3 3 1 8 4 14 16 16 16 16 15 14 14
-5 -9 -12 -6 -5 -6 -6 -7 -6 -6 -3 -8 -9 -8 -8 -12 -12 -9 -6 -5 -1 2 2 2 3 3 6 6 4 6 2 3 2 3 0 3 6 9 14 16 16 16 16 14 14
-5 -5 -5 -5 -6 -7 -6 -6 -7 -4 -2 -6 -12 -10 -11 -13 -11 -11 -11 -10 -9 -3 -1 -1 -4 2 4 2 2 2 -1 -2 -2 -1 2 -1 4 4 8 9 7 13 15 15 14
-4 -4 -6 -7 -5 -6 -6 -6 -4 -1 -4 -4 -6 -12 -10 -10 -9 -10 -6 -5 -7 -2 1 -7 -8 -8 -4 -0 1 1 1 3 3 3 3 -2 1 6 4 3 4 7 10 15 15
-2 -1 -2 -2 -2 -2 -5 -3 1 -1 -2 -4 -4 -6 -5 -5 -5 -5 -4 -4 -5 -10 -8 1 0 -8 -9 -6 -3 0 1 2 4 3 1 -1 0 5 -1 2 7 12 11 13 15
-1 -2 -2 -2 -2 -3 -3 0 1 -1 -2 -2 -4 -4 -2 -4 -6 -4 -2 -1 -3 -4 -6 -4 -5 -9 -9 -8 -6 -2 -0 -3 -1 -1 0 -1 1 0 -2 4 9 13 13 13 15
-2 -1 -2 -1 -3 -3 -2 -0 -1 -3 -3 -3 -1 -1 -1 -1 -3 -2 -1 -0 -0 -3 -6 -5 -4 -7 -7 -8 -6 -3 -4 -1 -1 3 2 4 6 3 1 6 10 14 14 12 14
-2 -2 -3 -1 -3 -3 -1 -1 -2 -2 -3 -2 -1 -1 -1 -0 -0 0 0 -0 -1 -1 -4 -5 -5 -4 -5 -4 -3 -3 -2 -2 -1 -0 1 4 5 -4 2 9 10 9 12 15 15
-3 -1 -3 -3 -2 -2 -1 -2 -2 -2 -2 -3 -3 -2 -1 -1 1 1 1 -0 -1 0 -2 -4 -5 -2 -3 -6 -6 -5 -3 -3 1 4 1 2 1 -3 4 7 6 7 8 10 13
-2 -3 -3 -3 -1 -1 -1 -2 -1 -2 -1 -2 -2 -3 -2 -1 2 -0 -1 -3 -1 2 0 -3 -4 -1 -3 -5 -5 -3 -4 -5 -7 -4 2 1 -2 -2 4 4 3 4 4 5 6
-2 -1 -2 -2 -2 -2 -1 0 -0 -1 -1 -1 -1 -2 -1 0 -1 0 -1 -3 -3 1 1 -3 -2 -2 -5 -2 -3 -1 -3 -4 -4 -2 -1 -1 -1 -0 4 3 2 2 1 1 1
-2 -0 -1 -0 -1 -1 -1 -0 -0 1 -1 -1 -0 -0 -1 1 1 1 -1 -2 -3 -2 -1 -1 1 -1 -1 -2 -2 -2 -3 -4 -4 -3 -2 -2 -2 1 4 3 2 1 1 1 -2
0 -1 -1 -0 -0 -0 -0 0 1 0 -0 0 1 1 0 2 1 1 -0 -0 -0 -2 -2 -1 2 0 1 -1 -2 -2 -2 -3 -4 -5 -4 -4 0 2 2 2 3 2 2 1 1
-2 -2 -1 0 0 -0 1 0 0 -0 0 1 -0 1 2 1 1 0 -0 -1 -1 -1 -1 1 2 1 1 0 -2 -3 -1 -2 -2 2 -0 -2 3 3 2 2 2 1 3 2 2

GFSSW_850_dewp_072.txt.gz
Dewpoint
3 1 0 -1 -2 -2 -4 -7 -19 -22 -21 -17 -18 -20 -22 -23 -21 -19 -18 -13 -8 -6 4 10 8 12 14 14 15 15 16 15 14 15 16 15 15 16 15 14 14 14 14 13 13
-0 -1 -2 -4 -5 -6 -5 -5 -8 -20 -21 -18 -17 -19 -21 -22 -23 -21 -21 -23 -7 -5 8 5 7 13 13 13 14 15 16 13 12 12 15 16 16 16 15 14 14 14 13 13 14
-2 -3 -5 -6 -8 -10 -10 -8 -7 -12 -21 -19 -17 -18 -19 -22 -9 -8 -4 -22 -7 -2 6 3 6 10 11 12 14 14 14 12 11 12 13 15 16 15 15 14 14 14 14 13 13
-6 -8 -9 -11 -12 -14 -14 -12 -10 -10 -17 -19 -16 -17 -18 -20 -10 1 -5 -21 -8 4 5 3 7 9 8 11 13 15 13 12 11 11 12 13 14 15 15 15 14 15 14 13 13
-11 -11 -13 -14 -15 -15 -15 -15 -13 -11 -15 -18 -15 -16 -17 -3 -12 -3 -14 -14 -6 6 3 3 3 3 6 7 11 13 12 11 10 8 9 11 13 14 15 15 15 14 13 13 13
-9 -12 -14 -15 -13 -12 -13 -14 -15 -13 -15 -17 -14 -14 -6 -8 -2 -10 -5 -1 3 2 -0 1 0 1 2 6 8 9 10 9 7 5 7 12 13 13 15 15 14 13 13 12 12
-3 -4 -12 -14 -10 -8 -10 -17 -16 -14 -15 -16 -13 -12 -1 -9 4 1 6 3 1 -0 -1 0 2 2 2 4 6 8 8 7 8 7 10 12 15 15 15 15 14 13 13 12 12
-2 -3 -4 -14 -11 -8 -13 -18 -14 -14 -15 -15 -12 -8 -3 -9 4 4 5 5 -0 -1 -2 1 3 2 2 5 5 6 6 9 9 8 11 13 16 15 15 15 15 13 13 13 13
-2 -2 -3 -9 -12 -9 -18 -12 -7 -12 -14 -10 -4 3 -3 -4 5 1 0 2 -1 -1 -1 -0 3 2 3 3 3 4 7 7 10 9 11 13 14 15 15 15 15 15 13 13 13
-3 -2 -3 -7 -10 -13 -13 -2 -5 -7 -8 -8 1 2 0 -1 4 3 1 -0 -1 -2 -3 -2 0 1 1 -0 3 4 6 7 6 11 11 12 13 15 15 15 15 15 14 13 13
-3 -2 -3 -8 -10 -9 -7 -2 1 5 2 -4 -6 -4 -2 -1 3 2 2 1 -1 -2 -3 -4 -0 -1 -1 0 2 1 5 6 4 9 8 6 3 11 14 15 15 15 14 14 13
-2 -3 -4 -9 -7 -4 -4 -3 -4 -4 -5 -3 -2 -4 -3 -3 -2 0 1 2 -1 -3 -5 -3 -2 -3 -1 2 5 4 5 5 3 1 4 1 2 10 10 13 15 15 15 14 13
-6 -6 -8 -10 -5 -6 -4 -4 -6 -5 -5 -6 -5 -5 -5 -4 -5 1 0 -1 -0 -4 -3 -4 -5 -3 3 5 6 4 4 5 5 2 2 5 6 12 12 12 15 15 14 14 13
-8 -10 -8 -5 -4 -5 -3 -7 -6 -6 -6 -7 -8 -8 -6 -5 -9 -2 -1 -3 -2 1 -4 -6 -5 -3 2 5 4 4 3 3 4 3 4 2 8 10 14 14 15 15 14 13 14
-5 -6 -10 -5 -5 -3 -5 -7 -7 -4 -3 -9 -9 -8 -6 -7 -10 -3 -2 -3 -1 0 0 -2 -4 -2 2 3 3 4 3 3 3 4 3 1 4 11 10 14 16 16 15 14 14
-3 -6 -6 -6 -6 -6 -6 -6 -6 -4 -2 -7 -10 -8 -8 -12 -10 -6 -5 -7 -4 -2 -0 -1 -4 -3 1 3 4 3 3 2 2 3 5 1 2 5 8 7 7 13 15 15 14
-2 -2 -3 -4 -2 -3 -4 -5 -4 -2 -6 -6 -8 -8 -10 -11 -9 -7 -6 -5 -1 2 2 -1 0 -1 1 5 4 4 3 3 3 3 3 -0 2 6 4 5 7 8 8 14 14
-2 -2 -2 -2 -2 -3 -4 -4 0 -2 -3 -6 -7 -10 -8 -9 -7 -6 -4 -3 -6 -5 -0 -1 1 -1 -0 3 4 4 2 1 4 2 0 0 1 4 3 8 12 12 10 9 14
-2 -2 -1 -2 -3 -5 -3 -1 1 -1 -3 -3 -7 -7 -6 -7 -7 -4 -3 -3 -4 -5 -2 -0 -2 -8 -7 -7 -4 3 3 -2 -1 -1 -1 -0 4 0 2 10 11 13 12 11 14
-1 0 -1 -2 -3 -2 -3 0 -1 -3 -3 -3 -3 -3 -5 -5 -6 -5 -3 -2 -2 -4 -5 -4 -1 -6 -7 -8 -6 -3 -2 1 -1 2 2 1 3 4 6 11 11 12 14 13 13
-1 -1 -2 -3 -2 -3 -1 -1 -2 -3 -3 -2 -2 -2 -1 -2 -4 -2 -1 -2 -2 -3 -4 -6 -4 -4 -5 -3 -2 -3 -2 -2 -3 -2 0 3 3 -0 8 10 10 10 10 12 14
-1 -2 -2 -2 -3 -3 -2 -2 -3 -3 -3 -3 -3 -2 -1 -1 -1 -0 -0 -1 -1 -1 -3 -5 -6 -3 -3 -5 -6 -4 -2 -2 -0 2 0 0 2 3 6 7 7 7 7 7 8
-1 -3 -2 -2 -1 -1 -2 -3 -3 -3 -2 -2 -2 -2 -2 -0 1 -1 -2 -3 -2 -1 -1 -3 -4 -1 -3 -5 -5 -3 -3 -3 -3 -2 1 -1 2 4 6 7 5 4 4 4 5
-3 -4 -4 -2 -2 -2 -3 -2 -2 -3 -3 -3 -2 -3 -1 -0 -1 0 -1 -3 -3 -1 1 -2 -4 -1 -3 -3 -4 -1 -4 -4 -3 -1 0 -0 3 5 5 5 5 3 2 2 3
-2 -3 -1 -4 -3 -4 -4 -3 -2 -2 -3 -3 -3 -2 -1 1 0 1 -1 -2 -3 -2 -2 -1 0 -1 -2 -4 -4 -4 -4 -5 -3 -1 0 0 2 4 4 3 3 2 2 2 2
-3 -3 -3 -2 -1 -4 -3 -2 -2 -1 -2 -1 -1 -2 -2 1 0 1 -1 -1 -0 -3 -2 -3 2 -0 -0 -2 -3 -3 -4 -4 -5 -4 -2 -2 2 1 3 3 3 2 2 2 2
-2 -3 -2 -1 -3 -3 -2 -2 -2 -1 -0 -1 -1 -0 -0 -0 -1 -1 -1 -2 -1 -1 -1 -1 -0 1 -1 -2 -3 -3 -4 -5 -4 -3 -3 -1 2 1 2 2 2 1 3 3 3

GFSSW_850_dewp_075.txt.gz
Dewpoint
2 1 -0 -1 -2 -3 -3 -2 -4 -14 -22 -21 -18 -19 -22 -23 -24 -20 -7 -7 -4 -11 8 10 11 12 13 13 14 14 17 16 15 15 16 15 15 14 15 13 13 13 13 12 12
-0 -1 -2 -3 -4 -5 -6 -6 -4 -6 -17 -22 -18 -18 -21 -22 -24 -2 -5 -11 -8 -8 9 8 6 10 12 11 13 14 16 13 12 13 15 15 15 15 14 13 13 13 12 12 12
-5 -6 -7 -9 -10 -10 -11 -11 -9 -5 -9 -20 -19 -18 -20 -22 1 -8 -8 -22 -11 -8 7 3 3 9 10 11 13 13 14 11 12 12 14 15 16 16 14 13 12 12 12 12 12
-10 -12 -13 -14 -14 -16 -16 -15 -13 -9 -8 -16 -18 -17 -20 -16 -2 5 -3 -19 -12 -5 6 1 3 7 8 10 13 14 12 11 10 11 13 15 14 14 14 15 13 12 13 12 12
-5 -8 -13 -15 -17 -15 -13 -15 -16 -13 -9 -14 -18 -16 -18 -1 -6 1 -4 -17 -9 3 3 1 2 5 7 7 12 13 10 10 9 8 9 12 13 15 15 14 14 13 13 12 12
-3 -3 -4 -14 -14 -10 -9 -12 -17 -15 -12 -14 -17 -15 -5 -6 -1 -3 -6 -14 -2 5 2 0 1 3 1 4 9 11 10 9 8 6 7 11 13 14 15 14 14 13 12 12 11
-3 -3 -3 -5 -14 -10 -9 -15 -19 -15 -13 -15 -15 -14 -0 -6 1 1 -1 -4 -1 3 1 -1 -1 -1 0 3 5 8 10 8 6 5 9 11 14 14 14 14 13 13 12 11 11
-3 -3 -3 -3 -12 -11 -9 -20 -14 -14 -14 -15 -13 -6 0 -5 0 2 2 -1 -0 1 -2 -3 -1 -1 -1 2 3 7 8 10 7 6 9 12 16 14 14 14 13 12 12 11 11
-4 -3 -3 -3 -9 -10 -15 -12 -6 -12 -15 -14 -6 6 -4 -6 1 2 2 -2 -2 -1 -2 -1 0 0 -0 1 4 5 8 7 8 5 8 12 15 13 14 14 13 12 11 11 12
-3 -3 -3 -3 -10 -11 -15 -4 -6 -8 -10 -7 3 1 1 -2 -1 -0 1 -1 -3 -2 -1 -2 -2 1 -1 1 4 3 5 5 8 7 8 12 17 14 14 14 14 13 13 12 12
-5 -4 -4 -4 -10 -10 -7 0 5 5 1 -1 -4 -3 -6 -3 -0 -1 -2 -1 -3 -3 -3 -4 -3 0 -1 -2 -5 -2 2 4 4 6 7 8 14 13 14 14 14 15 15 13 12
-7 -7 -6 -9 -7 -5 -4 0 -4 -4 -4 -3 -5 -6 -4 0 -1 -1 -1 -2 -3 -2 -6 -4 -2 -3 -4 -5 -4 -1 -0 3 4 6 6 5 4 10 12 13 14 15 15 14 13
-9 -10 -9 -10 -5 -5 -0 -4 -4 -5 -4 -6 -6 -7 -4 -2 -3 -2 -1 -2 -3 -3 -5 -4 -6 -6 -5 -2 0 2 2 3 4 2 4 2 4 9 8 10 14 15 14 15 13
-6 -12 -9 -6 -4 -3 -4 -5 -5 -4 -3 -7 -7 -8 -6 -6 -6 -3 -2 -2 -3 -4 -7 -5 -8 -6 -4 0 3 2 -1 1 2 4 5 3 6 9 9 10 15 15 14 14 14
-5 -5 -5 -5 -1 -3 -4 -4 -5 -4 -0 -9 -9 -8 -7 -6 -7 -3 -3 -3 -3 -3 -4 -5 -8 -6 -1 2 1 0 -2 -0 3 3 2 3 5 11 10 12 15 14 14 14 13
-2 -4 -6 -2 -4 -4 -4 -3 -5 -3 -0 -9 -10 -8 -7 -6 -9 -4 -4 -4 -5 -3 -2 -4 -7 -7 -5 -2 0 1 2 1 1 2 3 2 1 12 11 15 14 13 15 14 13
-2 -3 -4 -4 -2 -3 -4 -3 -2 -1 -7 -8 -8 -9 -7 -7 -10 -5 -3 -3 -3 0 1 -1 -1 -5 -6 -1 1 3 4 5 5 4 3 -1 -0 8 6 6 6 11 12 14 13
-1 -2 1 -1 -1 -2 -2 -3 1 -4 -4 -8 -9 -8 -8 -11 -9 -6 -4 -5 -6 -3 -1 -1 1 -4 -5 -0 3 4 2 1 4 1 -0 -1 2 7 7 10 11 10 9 13 13
-3 1 -0 -2 -3 -1 -2 1 1 -2 -4 -5 -8 -7 -8 -9 -8 -6 -6 -5 -6 -4 -1 -1 -2 -3 -3 -1 1 2 4 -2 -2 -4 -3 1 4 4 8 10 12 14 11 8 13
-1 -1 -3 -2 -2 -1 -2 -1 -2 -4 -5 -5 -5 -7 -6 -7 -7 -5 -2 -3 -4 -5 -5 -2 -0 -4 -5 -5 -3 -1 -1 2 0 3 1 1 5 5 9 11 12 12 13 14 15
-1 -1 -3 -3 -3 -3 -1 -2 -3 -4 -4 -3 -1 -4 -1 -3 -7 -5 -3 -3 -4 -4 -5 -6 -1 -2 -5 -3 -3 -2 0 0 -1 -2 1 2 5 5 11 10 11 9 9 10 11
-2 -2 -3 -5 -3 -5 -2 -3 -4 -4 -4 -4 -4 -4 -2 -1 -2 -0 -2 -2 -3 -4 -7 -7 -4 -1 -3 -5 -5 -4 -4 -1 1 2 -2 -1 5 6 9 9 8 7 7 8 7
-3 -7 -5 -4 -1 -4 -4 -6 -4 -4 -3 -4 -3 -3 -4 -3 -1 -4 -3 -4 -2 -3 -2 -4 -6 -1 -1 -3 -4 -3 -3 -3 -4 -3 1 0 7 6 8 7 6 5 5 5 5
-5 -5 -6 -5 -4 -4 -4 -5 -5 -5 -4 -3 -3 -3 -2 -2 -3 -3 -4 -4 -3 -3 -4 -1 -5 -0 -0 -3 -4 -2 -3 -4 -3 -1 -0 1 8 7 7 7 4 4 4 4 4
-5 -6 -3 -4 -6 -6 -6 -5 -5 -5 -6 -5 -3 -2 -1 -1 -1 -2 -3 -3 -4 -4 -1 -3 -2 -2 -3 -5 -5 -4 -3 -4 -3 -3 -1 5 7 6 5 5 4 3 3 3 3
-3 -4 -7 -5 -4 -6 -4 -4 -4 -3 -3 -3 -3 -5 -3 0 1 -0 -2 -2 -2 -3 -2 -4 -0 -2 -2 -3 -5 -4 -5 -5 -5 -4 -2 2 6 3 3 3 4 4 4 3 3
-2 -2 -4 -4 -5 -6 -5 -5 -4 -2 -3 -3 -2 -2 -2 -1 -2 -2 -2 -1 -1 0 -1 -0 -3 -0 -0 -3 -3 -2 -5 -5 -7 -6 -2 2 4 3 3 3 2 3 4 3 3

GFSSW_850_dewp_078.txt.gz
Dewpoint
0 -0 -1 -2 -2 -3 -4 -4 -4 -4 -8 -22 -22 -19 -21 -23 -24 -23 -19 -7 -5 -4 -3 2 7 10 13 13 14 14 16 16 16 15 16 14 14 13 14 15 15 14 12 11 11
-3 -4 -4 -6 -6 -7 -7 -8 -8 -5 -5 -13 -22 -19 -20 -23 -24 -10 -9 -7 -7 -7 5 8 9 11 12 11 13 17 17 14 13 13 15 14 13 14 14 14 13 13 11 11 11
-11 -12 -14 -14 -14 -13 -13 -14 -13 -11 -6 -7 -20 -18 -19 -22 -4 -4 -5 -10 -17 -10 9 8 7 8 11 10 12 17 16 12 12 13 14 14 15 15 15 14 13 12 12 11 10
-4 -6 -9 -14 -17 -17 -17 -16 -16 -14 -10 -7 -16 -17 -19 -20 3 4 -3 -7 -22 -12 10 5 2 5 9 10 12 14 12 11 12 13 13 14 14 13 15 15 13 12 12 11 10
-3 -3 -3 -5 -15 -15 -12 -13 -15 -16 -13 -9 -13 -17 -18 2 -5 1 -4 -12 -20 -7 9 4 0 5 7 8 11 16 14 11 9 13 13 14 13 15 15 14 13 12 12 11 11
-3 -3 -3 -3 -7 -14 -10 -9 -14 -19 -15 -11 -13 -16 -16 -0 -2 -0 -8 -12 -7 3 7 2 -1 4 5 6 10 11 13 9 8 8 9 12 15 14 15 14 13 12 12 11 11
-4 -4 -4 -4 -4 -13 -11 -10 -20 -18 -15 -12 -14 -14 3 -2 -1 2 -2 -7 -4 2 3 1 -1 2 2 2 5 8 13 9 7 6 9 12 15 15 14 13 14 12 11 11 11
-5 -5 -4 -4 -4 -9 -11 -15 -16 -13 -14 -13 -16 -10 2 -5 -3 -1 -3 -6 -5 1 2 -1 -1 -2 -2 -1 2 6 8 11 7 5 8 12 17 14 14 13 13 12 11 11 11
-3 -3 -4 -4 -4 -10 -11 -15 -7 -12 -14 -16 -13 -4 0 -2 -2 -1 -1 -4 -3 1 -0 -3 -3 -1 -2 -0 4 5 9 8 8 4 9 11 16 14 14 12 12 12 11 11 11
-7 -7 -5 -4 -5 -11 -15 -5 -7 -11 -13 -11 6 3 -1 -1 -3 -0 -0 -3 -3 -2 -2 -2 -1 -0 -0 0 5 5 7 7 11 7 7 13 15 15 13 12 12 12 11 12 11
-9 -10 -7 -5 -10 -12 -10 2 4 7 4 -0 -2 -1 -4 -2 -3 -1 0 -4 -4 -3 -1 -1 -1 -1 -1 -2 -1 1 2 4 9 8 7 14 16 17 13 13 12 12 12 11 11
-8 -13 -9 -10 -8 -7 -5 4 -5 -4 -4 -1 -3 -5 -6 -3 -2 -3 -2 -3 -4 -3 -3 -3 -2 -5 -3 -3 -3 -2 -1 1 8 9 12 13 14 15 14 13 13 13 14 12 12
-6 -12 -10 -10 -6 -5 -1 -2 -5 -6 -5 -4 -5 -7 -4 -1 -1 -3 -3 -3 -5 -4 -5 -4 -6 -7 -4 -3 -3 -4 -3 1 8 11 10 10 15 16 14 13 13 14 14 13 13
-5 -8 -9 -6 -2 -1 -2 -5 -7 -6 -3 -5 -7 -7 -6 -3 -2 -3 -2 -5 -4 -4 -5 -6 -8 -8 -5 -4 -5 -2 -3 -0 6 6 6 5 10 12 12 15 15 14 13 14 14
-2 -6 -5 -6 -2 -1 -4 -7 -5 -6 2 -8 -9 -9 -8 -5 -6 -4 -3 -4 -2 -5 -6 -5 -6 -7 -6 -5 -4 -0 -2 -0 4 5 3 2 4 8 11 17 16 14 13 14 14
-3 -6 -7 -1 -2 -3 -7 -6 -5 -3 1 -8 -9 -9 -7 -7 -8 -4 -3 -3 -4 -4 -5 -8 -9 -8 -7 -6 -2 -1 0 -2 0 4 4 3 3 14 15 15 15 14 14 14 13
-1 -4 -2 -1 -1 -4 -5 -5 -1 0 -2 -8 -11 -10 -8 -6 -8 -5 -2 -3 -2 -0 -1 -2 -4 -10 -8 -5 -2 0 3 3 4 6 5 -0 2 11 14 15 14 12 14 14 15
-5 -1 -0 -0 -0 -3 -3 -2 6 5 2 -7 -10 -10 -7 -7 -8 -6 -3 -3 -4 -4 -1 1 0 -2 -5 -6 -2 1 2 3 6 4 2 -1 3 10 10 14 14 10 11 14 14
-2 0 -0 1 -2 -2 -1 3 6 6 -5 -6 -10 -8 -8 -9 -9 -7 -4 -3 -5 -5 -1 2 0 -5 -5 -7 -4 1 3 1 0 -1 -0 3 8 10 10 12 13 13 13 15 16
-3 1 1 -6 -4 -1 1 3 -1 -6 -7 -5 -4 -8 -6 -9 -7 -5 -5 -5 -3 -5 -4 -2 3 -3 -6 -7 -3 1 -0 3 2 5 6 5 9 12 12 12 12 11 11 12 13
-2 1 -2 -8 -5 0 5 -2 -5 -6 -7 -3 -2 -2 -1 -4 -3 -1 1 -1 -4 -5 -5 -4 0 0 -3 -1 0 2 5 1 0 1 4 8 10 9 12 11 11 10 9 9 11
2 1 -4 -8 -3 -6 -3 -5 -6 -5 -7 -6 -5 -3 -2 -1 1 -0 3 -1 -4 -5 -4 -5 -4 3 -2 -6 -5 -3 -0 -0 3 6 2 10 12 9 10 9 9 9 8 7 8
1 -8 -7 -4 3 -1 -6 -7 -6 -5 -5 -5 -4 -5 -4 -2 1 -1 -1 -4 -4 -5 1 -1 -4 1 -0 -4 -5 -4 -3 -3 -3 -1 5 8 10 9 8 8 7 8 7 7 6
-0 -5 -7 -9 -8 -6 -5 -6 -7 -8 -5 -4 -3 -5 -5 -4 -3 -0 -4 -5 -5 -4 -5 -1 -4 1 6 2 -3 -2 -3 -4 -3 -1 0 7 12 10 9 8 7 6 6 6 6
-4 -8 -5 -5 -7 -7 -6 -7 -6 -5 -8 -6 -3 -3 -1 4 -4 -2 -4 -5 -5 -5 -5 -5 -4 -3 -2 -4 -5 -4 -4 -4 -3 -2 4 9 11 10 9 7 6 5 5 5 4
-3 -3 -8 -6 -5 -6 -5 -6 -5 -5 -3 -5 -5 -7 -4 6 6 6 2 -3 -4 -6 -5 -6 -1 1 0 -3 -4 -4 -5 -5 -5 -4 -1 6 7 6 6 5 5 5 5 4 4
-1 -3 -3 -7 -6 -7 -7 -7 -6 -4 -5 -4 -3 -3 -3 -1 -2 1 -2 -1 3 1 -2 -3 -2 3 2 -3 -3 -1 -4 -5 -5 -6 7 9 7 4 4 5 5 5 4 4 4

GFSSW_850_dewp_081.txt.gz
Dewpoint
-1 -1 -2 -2 -3 -3 -4 -4 -5 -4 -3 -4 -21 -22 -20 -22 -25 -25 -24 -13 -7 -2 -3 -0 -9 9 9 14 14 15 17 17 16 16 16 15 15 15 16 14 13 12 12 12 13
-12 -12 -13 -13 -13 -11 -10 -9 -9 -9 -6 -4 -9 -21 -19 -20 -24 -27 -27 -17 -7 -5 -7 3 5 9 8 12 15 16 17 16 14 14 15 14 14 16 16 16 14 12 12 11 14
-4 -5 -7 -11 -15 -17 -18 -17 -16 -15 -11 -7 -6 -19 -18 -19 -15 -10 -5 -18 -11 -8 -10 6 8 10 11 11 16 15 17 14 13 13 14 14 13 16 15 15 12 12 12 11 13
-4 -3 -4 -4 -7 -16 -18 -16 -16 -17 -15 -11 -6 -15 -17 -18 6 4 -2 -10 -19 -11 -3 9 9 8 8 11 14 16 15 14 14 14 14 14 16 16 16 14 12 11 10 11 12
-4 -4 -4 -4 -4 -8 -14 -11 -10 -14 -17 -13 -8 -14 -16 -0 -11 -3 -4 -7 -13 -11 -1 9 9 4 6 9 13 15 12 13 13 13 14 15 16 16 16 13 12 11 11 11 11
-4 -4 -5 -4 -4 -4 -14 -11 -9 -16 -19 -15 -9 -14 -14 -0 2 0 -3 -10 -21 -12 7 9 6 1 4 6 12 12 11 12 14 13 13 14 15 14 14 12 12 11 11 11 11
-5 -4 -4 -4 -4 -4 -9 -12 -12 -20 -16 -14 -11 -15 -9 -12 3 0 -1 -10 -23 -11 7 6 3 -1 2 4 6 14 11 12 12 14 14 15 16 16 13 13 12 11 11 11 10
-6 -6 -4 -4 -4 -5 -10 -12 -17 -11 -13 -13 -13 -14 -9 -5 -4 1 -3 -6 -6 -8 5 3 1 -1 -1 -0 0 11 12 14 9 9 14 13 17 16 13 14 12 12 11 11 10
-7 -9 -8 -6 -4 -5 -12 -16 -7 -12 -14 -13 -14 -7 2 -3 -5 -1 -2 -4 -5 -2 3 3 -1 -1 -2 -0 1 4 9 11 12 9 13 13 17 17 14 14 13 12 12 11 11
-7 -13 -9 -6 -6 -10 -14 -8 -7 -10 -14 -14 4 4 -3 0 -4 -2 -1 -6 -5 -2 1 0 -3 -0 -0 1 4 6 7 7 11 8 13 15 15 17 15 15 13 12 12 11 11
-6 -12 -9 -10 -11 -13 -14 -1 3 3 -0 -1 -0 3 -1 -0 -3 -2 -0 -3 -3 -2 1 -2 0 2 1 1 0 2 5 6 8 10 14 14 14 14 15 15 13 12 12 11 11
-6 -9 -10 -12 -8 -7 -9 -0 0 -5 -5 -2 -1 -1 -2 -2 -3 -0 -0 -3 -3 -1 -2 -0 2 -0 -2 -1 -0 -1 -1 3 9 12 15 14 14 12 10 14 12 12 12 12 12
-3 -8 -11 -7 -6 -7 -5 -3 -6 -7 -6 -6 -4 -2 -5 -3 -3 -2 -0 -4 -4 -2 -1 -0 -0 -2 -4 -2 -1 -1 -1 1 10 11 13 14 17 15 14 14 12 12 12 12 12
-2 -7 -5 -4 -1 -1 -1 -3 -7 -6 -3 -3 -2 -5 -6 -2 -1 -3 -2 -2 -5 -3 -4 -3 -4 -4 -5 -4 -3 -1 -3 -3 10 10 14 14 17 16 16 14 13 13 13 12 12
-4 -4 -8 -7 -6 -4 -6 -7 -6 -6 3 -4 -7 -8 -7 -5 -2 -2 -4 -3 -3 -4 -4 -3 -6 -6 -6 -6 -4 -3 -4 -0 7 9 9 14 14 16 15 16 16 14 14 12 12
-2 -5 -4 -2 -0 -1 -3 -4 -5 -2 4 -1 -9 -8 -8 -7 -5 -4 -2 -3 -4 -2 -4 -5 -7 -8 -6 -8 -7 -5 -3 1 5 7 10 6 9 15 17 16 16 15 14 14 13
-6 -4 -2 -1 -2 -1 -3 -4 1 8 4 -2 -7 -9 -8 -5 -5 -5 -2 -1 0 0 0 -3 -5 -9 -9 -6 -6 -3 2 6 4 9 10 6 7 16 16 16 15 15 11 13 14
-5 -2 -1 -1 -1 -2 -1 3 10 5 4 0 -1 -9 -8 -7 -6 -3 -1 -1 -2 -2 -1 1 1 -3 -9 -5 -2 -0 2 6 6 7 7 2 15 15 12 12 12 10 12 14 14
-8 -4 1 -1 -1 -2 2 8 6 4 2 -1 -6 -7 -7 -7 -6 -6 -2 -1 -4 -3 -0 3 2 -3 -5 -7 -6 -1 1 1 3 2 3 11 14 13 11 12 13 14 15 15 16
-4 -3 0 -1 -0 -1 2 5 2 -0 -6 -3 1 -1 -0 -3 -4 -5 -0 -2 -3 -4 -3 0 3 -1 -1 -4 -6 -5 1 3 4 7 6 15 15 17 16 14 11 10 11 12 14
-4 1 -1 -3 -2 -2 3 3 -3 -6 -8 -2 -2 -0 -0 1 1 4 2 -2 -4 -4 -5 -3 -1 2 -1 -4 -4 3 4 5 3 4 6 14 15 13 14 11 10 9 9 11 13
1 4 0 -9 -2 2 3 -6 -6 -6 -5 -6 -5 -2 2 1 2 4 3 1 -5 -4 -3 -0 -4 5 3 -1 -4 -3 3 5 6 5 10 13 14 12 11 9 9 8 8 9 10
2 2 -7 -4 2 2 -5 -7 -7 -6 -4 -3 -4 -4 -4 -0 3 2 1 -5 -5 -3 0 0 1 2 4 0 -4 -3 -3 -3 -1 0 7 12 14 10 9 9 8 7 7 7 9
2 1 -6 -8 -8 -5 -3 -5 -6 -10 -8 -6 -2 -4 -4 -2 -1 0 0 -6 -6 -5 -5 -1 -2 0 6 5 0 -1 -3 -3 -1 0 10 10 13 10 8 8 7 7 7 7 6
2 -6 -7 -3 -5 -6 -4 -4 -6 -5 -7 -8 -3 -1 3 5 4 -1 2 -3 -6 -5 -5 -3 -0 -1 1 1 -1 -3 -3 -3 -2 -0 9 13 12 10 8 7 6 6 5 5 6
-2 -3 -2 -7 -5 -3 -5 -5 -4 -5 -3 -3 -1 -4 4 6 5 6 4 3 1 -1 -5 -4 2 1 1 -0 -2 -2 -3 -3 -3 6 10 10 11 8 7 6 6 6 5 4 5
1 1 2 -0 -3 -4 -4 -6 -6 -3 -5 -4 -2 0 2 0 1 2 1 1 1 1 2 -0 3 4 3 3 1 0 -2 -3 6 6 7 11 9 6 6 6 6 5 5 5 4

GFSSW_850_dewp_084.txt.gz
Dewpoint
-11 -12 -12 -12 -11 -9 -7 -5 -5 -4 -4 -3 -3 -15 -22 -20 -22 -26 -26 -20 -8 -3 -3 1 -10 6 9 10 14 16 18 17 17 15 15 15 15 15 15 13 12 12 14 14 14
-4 -5 -6 -9 -13 -17 -18 -15 -12 -11 -9 -7 -4 -6 -20 -20 -21 -27 -28 -25 -11 -2 -5 -3 -10 6 6 10 14 16 17 16 15 14 15 15 16 16 15 13 13 13 14 14 14
-5 -4 -4 -4 -4 -8 -17 -20 -19 -17 -15 -11 -7 -5 -17 -18 -23 -10 -8 -26 -12 -5 -7 -8 4 6 5 10 14 16 17 15 14 13 14 15 16 15 15 16 12 13 14 15 14
-5 -5 -5 -5 -5 -4 -11 -15 -14 -14 -16 -15 -10 -5 -15 -17 5 3 -3 -15 -14 -7 -9 -3 4 7 9 12 15 14 15 15 13 13 14 15 16 15 16 15 12 13 14 14 13
-6 -6 -6 -6 -6 -5 -5 -14 -10 -10 -16 -18 -12 -7 -14 -10 -23 -3 -5 -11 -18 -10 -11 5 9 9 8 8 15 15 14 15 14 14 14 16 16 15 16 14 12 13 14 14 13
-4 -4 -4 -4 -5 -6 -5 -10 -12 -10 -20 -19 -14 -9 -14 -6 -2 -1 -2 -7 -17 -12 -8 8 9 8 4 4 13 13 12 17 15 14 15 15 16 15 15 13 12 11 13 14 13
-7 -8 -7 -6 -5 -5 -5 -10 -11 -16 -15 -14 -13 -10 -11 -14 2 2 -0 -2 -18 -13 3 8 6 8 3 1 3 11 12 14 13 15 15 15 16 15 14 13 11 11 11 13 13
-6 -9 -12 -8 -5 -5 -6 -11 -14 -9 -11 -13 -12 -12 -8 -6 -1 -4 -1 -6 -14 -15 5 5 7 7 4 -1 7 13 12 13 14 14 15 14 17 15 14 12 11 11 11 11 12
-6 -8 -12 -9 -6 -6 -10 -14 -7 -12 -13 -13 -13 -11 -7 -2 -5 -3 -0 -6 -17 -10 3 4 3 2 -1 -0 1 10 15 14 14 14 15 15 17 17 14 14 12 11 11 11 11
-4 -8 -10 -10 -11 -11 -13 -8 -4 -3 -14 -14 2 4 -3 -1 -4 -2 -1 -5 -5 -5 -2 -1 0 -1 -0 1 4 3 7 9 13 15 16 17 17 16 15 14 12 11 11 11 11
-2 -7 -10 -11 -10 -11 -14 -2 3 2 -2 -8 -3 1 -2 -1 -3 -2 -1 -5 -5 -4 1 0 -1 0 -0 0 1 1 2 6 12 14 15 16 16 15 15 16 14 12 12 11 11
-2 -7 -10 -6 -5 -7 -7 -3 -6 -2 -4 -6 -5 -2 -2 -2 -1 -3 -2 -4 -5 -1 -0 -1 1 -1 -1 -0 1 1 1 1 13 13 14 15 16 15 15 16 15 13 12 12 11
-3 -5 -5 -3 -3 -2 -2 -3 -6 -3 -3 -6 -8 -6 -4 -4 -2 -3 -2 -0 -3 -1 -1 1 -0 -1 0 -0 -0 -0 1 1 12 14 14 15 16 14 12 12 15 13 12 12 12
-3 -4 -10 -10 -3 -3 -5 -6 -5 -3 -4 -5 -6 -4 -5 -4 -3 -2 -0 -2 -4 -2 -2 -1 -2 -1 0 1 -3 -0 -2 -2 12 12 13 13 13 17 14 13 15 13 12 12 12
-2 -4 -5 -3 -4 -3 -3 -3 -4 -5 2 0 -3 -6 -7 -3 -2 -2 -1 -1 -3 -4 -4 -2 -3 -3 -2 -2 -5 -3 -4 -1 8 10 15 14 16 14 15 17 16 14 13 12 12
-4 -5 -3 -3 -2 -1 -1 -3 -4 -2 3 4 -6 -7 -7 -6 -5 -3 -3 -3 -3 -3 -3 -4 -6 -6 -6 -7 -7 -6 -2 5 7 8 11 12 14 15 17 16 15 15 14 13 13
-5 -4 -3 -2 -2 -1 -0 0 4 7 3 3 -0 -2 -7 -5 -5 -4 -1 -1 -0 1 0 -2 -2 -6 -8 -6 -7 -5 2 5 5 10 11 8 14 12 14 15 15 15 13 13 13
-6 -5 -3 -1 -2 -1 1 3 5 4 3 2 0 -2 -6 -6 -5 -3 -1 -1 -2 -1 -0 1 0 -3 -6 -7 -6 -4 1 6 6 9 8 8 14 14 14 14 15 14 14 12 14
-8 -7 -2 -1 -1 -0 1 5 3 3 1 1 -1 -2 -2 -6 -6 -2 -1 -1 -3 -3 -1 0 2 -1 -2 -7 -6 -4 0 -0 3 3 3 15 14 12 13 12 12 13 14 15 15
-6 -2 -1 -3 1 1 1 4 3 1 -1 -1 0 -0 2 1 1 -0 -1 -3 -3 -4 -4 -2 2 -2 -2 -4 -7 -6 -2 3 3 7 7 16 16 15 15 12 11 11 12 14 15
-2 1 -2 -2 -0 0 1 2 -0 -3 -2 -3 -2 1 1 2 2 4 2 -3 -4 -3 -4 -2 -2 -2 -0 -1 -3 1 2 4 3 4 6 15 15 14 13 11 10 10 11 13 14
-2 3 -0 -4 -2 2 2 -1 -6 -6 -5 -4 -5 -2 1 2 3 3 2 -2 -5 -2 -1 -1 -3 -1 3 -0 -1 1 2 3 6 5 11 13 16 11 11 10 9 9 10 12 13
-1 0 -4 -5 -1 2 -2 -7 -8 -9 -6 -4 -3 -5 -1 1 3 2 0 -5 -5 -4 -4 -3 -2 2 2 0 -0 -2 -4 -4 0 4 9 9 14 10 10 9 8 8 9 11 12
0 3 -5 -8 -8 -6 -5 -6 -8 -10 -8 -7 -3 -2 0 2 1 0 1 -6 -5 -6 -1 -2 -4 -0 3 4 1 -1 -3 -4 -2 1 10 12 13 10 9 8 7 7 7 10 12
1 0 -3 -6 -7 -7 -6 -4 -3 -3 -4 -4 -2 0 1 1 4 5 3 1 -5 -4 -6 -4 -0 -2 -1 -1 -1 -2 -2 -2 -2 0 8 12 12 10 8 7 7 7 7 7 8
1 2 2 -0 -4 -7 -4 -5 -4 -5 -4 -2 2 3 3 3 4 4 3 1 3 1 -0 -3 2 0 1 2 1 -1 -2 2 6 9 11 11 11 7 7 6 5 5 6 6 6
2 3 4 3 -4 -6 -6 -4 -1 -4 -3 -2 1 0 -0 -0 0 1 1 1 -2 -0 -1 2 1 2 3 3 0 1 -0 -1 7 9 11 12 10 7 6 6 5 4 5 5 6

GFSSW_850_dewp_087.txt.gz
Dewpoint
-5 -5 -6 -9 -13 -16 -17 -13 -9 -7 -6 -5 -4 -3 -11 -23 -22 -23 -26 -24 -19 -2 -4 -2 -2 -2 10 12 14 16 18 17 17 16 16 15 15 14 13 14 13 13 14 15 15
-5 -4 -4 -4 -4 -6 -14 -19 -18 -14 -12 -10 -7 -4 -3 -19 -22 -24 -28 -26 -11 -3 -4 -3 -6 -0 10 7 14 16 16 16 14 13 15 16 15 15 13 13 14 14 15 14 13
-5 -5 -5 -5 -5 -4 -5 -16 -18 -17 -16 -15 -11 -6 -3 -15 -22 -8 -10 -27 -14 -5 -5 -3 -5 5 4 10 12 15 16 15 13 13 15 15 16 15 13 14 14 14 14 14 13
-6 -6 -6 -6 -6 -5 -4 -8 -13 -12 -14 -16 -14 -10 -4 -14 -6 2 -4 -17 -13 -5 -5 -4 2 5 10 11 14 14 14 15 13 14 15 15 16 15 15 14 14 12 13 14 14
-6 -7 -6 -5 -5 -6 -6 -5 -12 -11 -11 -18 -17 -11 -6 -12 -21 -1 -5 -15 -13 -6 -8 -5 4 8 11 11 15 14 15 15 13 14 15 16 15 15 15 15 13 14 14 13 14
-6 -8 -11 -8 -6 -5 -6 -5 -9 -11 -13 -20 -18 -12 -7 -12 -14 -6 -6 -12 -14 -8 -9 -5 5 8 9 8 14 14 15 15 14 13 15 15 15 15 14 14 14 15 14 15 15
-5 -7 -11 -9 -7 -6 -6 -6 -11 -12 -15 -14 -14 -12 -7 -4 -2 1 -1 -3 -11 -12 -11 -5 9 8 7 3 5 14 16 14 15 14 15 15 16 15 15 13 14 14 14 14 14
-3 -7 -11 -9 -7 -6 -6 -10 -13 -9 -10 -12 -13 -11 -7 -6 2 1 0 -3 -6 -11 -13 -2 8 8 7 3 7 13 14 16 14 15 15 14 17 16 14 13 14 14 14 14 14
-2 -7 -9 -10 -10 -10 -11 -14 -8 -13 -13 -12 -11 -11 -8 -4 -2 -3 -1 -6 -7 -11 -13 4 3 2 1 -0 1 6 14 13 17 16 15 15 17 16 14 14 11 13 14 14 13
-3 -6 -10 -11 -10 -12 -14 -1 1 -2 -13 -13 -4 3 -3 -1 -5 -6 -2 -3 -14 -8 -4 -2 1 -0 -0 1 4 5 12 12 15 16 16 16 16 15 15 14 12 11 11 12 13
-3 -5 -8 -5 -5 -11 -9 -2 1 2 -0 -5 -5 -3 -3 -1 -1 -4 -2 -3 -6 -3 0 -0 1 1 1 -0 0 1 2 2 13 15 16 16 16 16 15 15 12 11 11 11 12
-3 -5 -6 -3 -5 -7 -4 -4 -3 -0 -0 -3 -4 -4 -5 -4 -1 -4 -1 -3 -5 -2 -1 0 1 -1 -2 -1 1 1 2 7 15 15 15 16 16 15 15 16 14 12 12 11 12
-2 -4 -10 -8 -2 -2 -4 -3 -0 -0 -2 -5 -6 -6 -5 -2 -2 -2 -3 -3 -4 -2 -0 1 -1 -1 -1 -0 0 -0 1 1 14 15 14 15 16 16 15 15 15 14 12 12 11
-3 -4 -6 -8 -3 -4 -4 -1 -0 -2 -4 -4 -5 -5 -5 -4 -3 -3 -2 -2 -4 -2 -1 -0 -1 -1 0 1 -1 -0 -2 1 14 13 16 14 16 15 14 14 14 15 14 12 11
-5 -5 -3 -3 -3 -2 -1 -1 -2 -5 4 -0 -1 -5 -5 -3 -3 -3 -2 -1 -3 -3 -3 -0 -2 -2 -0 -0 -2 -1 -4 -2 13 11 13 15 14 12 14 14 14 15 14 12 12
-6 -6 -3 -3 -3 -2 -1 -0 -2 0 5 3 -1 -2 -7 -6 -4 -3 -2 -1 -3 -3 -3 -3 -4 -4 -3 -4 -4 -5 -4 3 7 9 13 12 12 13 16 14 14 15 14 12 12
-9 -5 -3 -2 -2 -2 -1 1 2 4 2 2 -0 -0 -4 -6 -5 -4 -2 -1 -1 0 0 -1 -2 -4 -7 -6 -7 -3 1 5 11 11 12 10 13 11 14 14 14 14 14 13 13
-10 -5 -3 -2 -2 -1 0 -1 4 3 3 1 1 -1 -1 -6 -5 -4 -1 -0 -2 -1 -0 1 0 -3 -6 -5 -5 -3 -2 4 8 10 9 11 13 14 13 15 14 14 14 14 14
-9 -5 -4 -2 -2 -1 1 3 1 3 -1 1 -2 -1 0 -3 -5 -2 -1 -1 -2 -3 0 0 1 -2 -3 -6 -7 -2 1 -1 3 3 5 14 14 14 12 12 14 14 14 14 14
-5 -3 -1 -2 -1 1 0 3 2 0 -1 -2 -1 0 2 1 2 -0 -0 -3 -3 -4 -4 -2 2 -2 -2 -4 -6 -5 -3 2 3 6 7 15 16 14 15 13 12 13 13 14 14
-4 0 0 -1 -0 1 -0 1 1 -4 -1 -4 -2 1 1 2 3 3 1 -3 -4 -3 -3 -3 -3 -3 -0 -1 -4 -2 2 4 2 4 8 15 14 13 13 12 11 12 12 14 14
-2 -0 1 -1 -1 2 1 -0 -6 -7 -5 -4 -5 -2 0 2 4 2 -2 -3 -5 -2 -3 -2 -4 -1 2 -2 -2 -4 -2 3 5 7 10 12 14 11 11 10 10 11 11 13 14
-1 -1 -2 -1 -2 0 -1 -7 -10 -8 -7 -4 -2 -4 0 1 3 1 -0 -5 -7 -5 -5 -3 -2 2 2 1 -0 -3 -4 -4 1 6 10 10 12 11 10 9 9 10 11 12 13
0 -4 -6 -4 -6 -5 -6 -5 -8 -4 -3 -5 -3 -1 -0 1 3 3 3 -1 -4 -3 -0 -3 -3 -0 5 3 1 -1 -2 -3 -2 1 7 8 13 12 10 9 8 8 10 11 13
1 -1 0 -6 -6 -6 -5 -4 -3 -3 -3 -1 2 2 -0 2 3 3 2 0 -1 -0 -6 -4 0 -1 1 -0 -0 -1 -1 2 -1 -0 6 10 12 12 9 8 7 8 9 9 11
1 3 3 1 -4 -7 -6 -5 -4 -5 -3 -1 2 2 2 2 3 2 2 1 2 0 -0 -2 2 -0 2 3 1 0 0 -0 8 11 11 10 10 8 8 7 7 7 7 7 7
1 3 4 3 -6 -6 -6 -5 -2 -3 -2 -0 1 -0 -1 -1 1 -1 0 -0 -3 -2 -2 1 1 1 4 3 5 7 1 0 7 10 10 11 9 7 6 6 6 6 6 6 6

GFSSW_850_dewp_090.txt.gz
Dewpoint
-5 -5 -5 -5 -5 -7 -12 -17 -16 -10 -7 -6 -5 -3 -2 -8 -21 -23 -25 -25 -20 -5 -5 -2 -3 6 11 13 14 16 18 18 17 15 16 15 15 14 14 14 13 14 14 14 13
-5 -5 -5 -5 -5 -5 -5 -10 -19 -18 -13 -11 -9 -7 -3 -2 -14 -23 -25 -27 -21 -1 -3 -2 -1 2 9 10 13 15 16 16 15 13 15 15 14 14 13 14 14 15 14 14 13
-5 -5 -6 -6 -6 -6 -6 -5 -14 -16 -16 -15 -14 -10 -5 -2 -19 -11 -10 -27 -20 -3 -2 -3 -3 6 12 9 12 15 16 15 13 13 15 16 16 14 14 15 13 15 15 14 13
-7 -8 -8 -6 -5 -6 -6 -6 -7 -12 -12 -14 -16 -13 -8 -4 -15 1 -3 -27 -6 -3 -1 -1 -1 10 10 10 14 14 14 15 14 14 15 15 15 13 14 14 12 10 11 12 12
-5 -7 -11 -11 -8 -6 -5 -6 -6 -12 -11 -12 -19 -16 -9 -5 -10 -0 -4 -15 -7 -3 -4 1 3 10 12 12 14 14 15 14 14 14 15 15 15 14 14 13 13 12 12 13 14
-3 -7 -9 -11 -8 -6 -6 -6 -6 -11 -11 -16 -19 -16 -9 -6 -13 -9 -7 -15 -13 -5 -5 -2 6 11 10 10 14 14 15 14 15 15 15 15 15 14 14 15 13 13 13 13 14
-3 -6 -10 -9 -8 -6 -6 -6 -8 -12 -13 -13 -14 -14 -9 -5 -6 -1 -4 -15 -13 -6 -7 0 7 9 8 7 7 13 15 15 14 15 15 15 16 15 14 15 15 14 13 13 14
-3 -5 -10 -10 -10 -8 -8 -11 -13 -10 -11 -11 -12 -12 -8 -6 -2 1 -2 -7 -8 -6 -6 -5 8 8 7 4 9 14 14 16 15 15 15 15 17 16 15 15 15 15 14 14 14
-3 -5 -10 -10 -10 -11 -12 -8 -7 -7 -12 -12 -10 -10 -8 -6 -1 0 -0 -3 -5 -6 -9 -0 0 5 2 -0 2 11 14 15 16 15 16 15 16 16 15 14 14 15 14 14 15
-4 -5 -8 -5 -5 -10 -8 1 1 -1 -12 -10 -7 1 -3 -1 -2 -0 -3 -2 -7 -6 -6 -1 1 0 -0 1 5 11 12 13 16 15 16 16 16 15 14 14 14 14 14 14 14
-3 -4 -6 -3 -6 -7 -8 -4 -0 0 0 -2 -4 -4 -5 -2 -1 -4 -7 -4 -7 -4 -0 -1 2 4 5 -0 1 5 7 9 12 15 16 17 16 16 15 14 13 13 14 14 14
-2 -3 -8 -4 -5 -4 -3 -2 0 1 0 -3 -2 -2 -5 -5 -3 -2 -3 -5 -5 -2 -0 0 3 1 3 -0 0 1 2 14 16 16 15 15 16 15 15 15 12 12 12 13 14
-3 -4 -6 -9 -4 -2 -3 -1 -1 -0 -1 -5 -5 -5 -6 -3 -2 -2 -1 -5 -4 -1 -0 2 1 -2 -1 -0 1 0 1 3 14 15 15 15 17 16 15 15 15 12 11 12 12
-5 -5 -4 -6 -3 -4 -3 -1 -1 -1 -3 -2 -1 -4 -3 -3 -4 -2 -1 -3 -4 -1 -0 0 -1 -0 0 1 -0 1 -2 3 15 15 16 15 17 16 15 15 15 15 13 12 11
-8 -6 -4 -3 -3 -3 -2 -1 0 -4 3 -0 0 -4 -4 -4 -3 -2 -2 -2 -3 -2 -1 1 -1 -1 -0 -0 -1 0 -2 -0 14 12 14 16 13 10 15 16 15 14 15 12 11
-10 -8 -4 -3 -3 -2 -2 -0 -2 -1 4 1 -0 -1 -7 -6 -4 -2 -1 -2 -3 -3 -3 -2 -4 -4 -2 -3 -2 -1 -2 4 7 11 13 13 13 12 16 15 14 14 14 14 12
-11 -9 -4 -3 -3 -2 -1 1 1 3 1 -1 -1 -1 -1 -6 -5 -3 -2 -1 -0 1 0 -1 -2 -4 -6 -5 -6 -3 -2 5 12 13 13 10 13 10 14 14 13 13 14 14 13
-10 -9 -5 -2 -2 -1 0 -2 2 2 3 -0 0 -2 0 -5 -5 -3 -1 -0 -2 -2 0 1 0 -2 -5 -3 -3 -3 -3 5 12 12 11 12 12 12 13 14 15 13 14 14 13
-8 -8 -4 -3 -1 -1 0 3 -1 1 -1 -0 -1 0 1 -1 -4 -1 -1 -1 -2 -2 0 1 0 -2 -5 -7 -6 -2 -3 -3 3 3 10 13 13 13 13 13 15 15 14 15 14
-6 -4 -3 -2 -1 -0 -1 2 2 -1 -1 -3 0 1 2 2 2 0 -1 -3 -3 -3 -4 -2 0 -2 -2 -6 -4 -3 -2 3 3 6 7 15 15 13 15 14 14 14 14 14 15
-4 -1 1 0 -1 0 -1 1 0 -5 -1 -4 -2 1 1 2 3 2 -1 -4 -4 -2 -3 -3 -2 -2 -1 -1 -3 -0 3 2 2 4 11 14 14 13 13 13 13 13 13 14 14
-2 -1 1 0 -1 2 0 -0 -8 -8 -6 -3 -4 -3 1 2 4 0 -2 -4 -5 -3 -2 -3 -4 0 -0 -2 -3 -4 -1 2 4 7 10 10 10 11 11 11 12 12 13 14 14
-1 -1 0 -0 -3 -2 -2 -7 -5 -6 -4 -4 -2 -1 2 2 4 3 -2 -4 -4 -5 -4 -3 -2 2 0 -1 -2 -2 -3 -1 2 7 11 9 8 10 10 10 10 11 12 12 13
0 -5 -6 -1 -6 -4 -6 -6 -5 -3 -2 -2 0 -2 0 3 5 4 3 0 -1 3 1 -3 -2 1 3 1 -1 -1 -1 1 -2 3 7 7 11 13 11 10 9 9 11 12 13
0 -2 -1 -5 -5 -6 -5 -5 -4 -3 -4 0 1 2 -1 2 2 4 3 0 -1 -1 -4 -3 0 0 1 -1 -1 1 1 3 8 -1 5 5 10 11 10 9 8 9 10 11 12
2 2 3 2 -4 -7 -6 -4 -4 -4 -2 0 2 0 1 3 2 2 0 0 2 -1 -0 -1 3 0 2 2 4 4 1 5 9 10 10 10 10 8 9 8 8 9 9 10 11
1 3 4 2 -6 -6 -6 -4 -3 -2 -3 -1 -0 -1 -1 -2 -1 -2 -1 -1 -3 -3 -2 1 0 1 3 2 5 5 2 7 8 9 10 10 8 7 7 7 7 7 8 8 9

GFSSW_850_dewp_093.txt.gz
Dewpoint
-6 -6 -6 -6 -6 -6 -6 -10 -17 -17 -10 -7 -7 -5 -3 -3 -8 -21 -25 -25 -22 -6 -1 -2 1 12 14 14 14 16 18 18 16 15 16 15 15 14 14 14 14 14 12 14 15
-6 -6 -6 -6 -7 -7 -7 -6 -10 -19 -18 -13 -11 -9 -5 -2 -4 -12 -24 -26 -22 -5 -1 -1 3 8 9 10 13 15 17 16 14 13 15 15 14 14 13 14 15 15 15 15 14
-7 -8 -10 -9 -6 -6 -8 -7 -6 -14 -16 -15 -14 -13 -9 -3 -8 -12 -7 -26 -22 -3 -5 -2 -2 9 12 8 12 15 16 15 14 13 14 14 14 13 13 14 14 15 14 15 15
-5 -7 -10 -12 -10 -7 -6 -7 -7 -8 -13 -12 -15 -16 -11 -4 -16 2 -2 -25 -22 -4 -1 -1 3 12 13 10 13 14 14 14 13 14 15 14 14 13 13 14 14 14 14 15 15
-3 -5 -10 -13 -9 -8 -7 -6 -7 -6 -12 -11 -15 -20 -12 -5 -6 -3 -4 -24 -8 -0 1 0 4 12 12 12 13 14 14 14 14 14 15 15 13 13 14 14 14 15 15 14 13
-3 -3 -9 -9 -9 -8 -7 -6 -7 -7 -12 -13 -18 -20 -11 -4 -10 -8 -7 -17 -2 0 1 2 8 12 12 11 13 14 14 14 14 15 14 14 14 13 15 14 14 14 14 14 14
-4 -4 -9 -10 -10 -9 -7 -7 -9 -12 -13 -12 -14 -15 -12 -7 -5 -1 -10 -14 -3 -3 -3 3 10 10 10 7 9 14 15 14 14 15 15 15 15 15 15 14 13 14 14 14 14
-4 -5 -9 -10 -10 -11 -11 -13 -10 -11 -12 -12 -12 -12 -11 -7 -6 -1 -16 -16 -8 -4 -5 4 9 8 7 6 10 14 14 16 14 14 16 15 17 15 15 15 14 14 14 14 14
-3 -4 -7 -6 -7 -11 -8 -3 -3 -4 -12 -11 -10 -9 -7 -6 -4 0 -6 -8 -7 -5 -2 2 7 6 2 2 13 13 16 16 16 14 16 16 17 15 15 14 13 14 14 14 15
-2 -4 -6 -3 -6 -8 -5 -1 -1 0 -7 -4 -7 0 -2 -1 -2 1 -4 -4 -5 -7 -2 -2 1 5 1 1 10 15 14 14 16 15 15 16 17 16 16 15 14 14 14 14 14
-2 -3 -8 -4 -7 -6 -3 -3 -0 -1 -0 -1 -3 -3 -5 -1 -1 -1 -2 -8 -6 -5 -1 1 6 9 5 1 2 11 12 12 12 14 15 15 16 16 15 14 14 14 14 14 14
-4 -4 -5 -6 -6 -3 -3 -1 -1 -0 0 -3 -3 -3 -4 -5 -3 -3 -4 -6 -7 -6 -1 3 7 5 2 -0 0 3 8 7 15 14 15 16 16 15 15 14 14 14 14 14 14
-7 -5 -4 -9 -4 -3 -2 -1 -1 -0 -1 -4 -5 -5 -5 -4 -3 -2 -3 -6 -6 -1 1 2 4 1 2 1 1 1 3 14 13 15 14 15 16 15 14 15 14 14 13 13 14
-8 -7 -5 -6 -3 -3 -3 -1 -0 -1 -2 -0 -1 -4 -2 -2 -2 -3 -2 -6 -4 -3 1 4 -1 1 -0 1 0 3 -0 6 15 14 16 14 17 14 14 15 15 13 13 13 13
-9 -9 -5 -4 -3 -3 -2 -2 0 -5 3 -1 -1 -4 -3 -3 -3 -2 -2 -3 -4 -1 0 1 0 1 1 0 -0 2 -2 3 13 13 14 14 16 13 15 16 16 14 13 12 12
-9 -10 -5 -4 -4 -2 -2 -0 -3 -1 2 -0 -2 -2 -5 -5 -3 -2 -2 -2 -3 -2 -2 -1 -3 -1 -1 -2 -0 -1 3 7 10 11 11 13 12 12 16 15 14 14 14 14 12
-10 -9 -5 -4 -3 -3 -2 1 -0 2 0 -2 -1 -1 -1 -5 -3 -2 -1 -1 1 1 1 -0 -2 -4 -4 -3 -2 -3 -2 7 8 10 5 10 14 9 13 14 13 13 14 15 13
-10 -9 -6 -4 -3 -2 0 -1 2 1 1 -1 -1 -3 -1 -4 -4 -2 0 1 -2 -1 -0 1 2 -2 -4 -3 -3 -1 -2 4 8 10 8 11 10 10 13 14 15 15 13 14 14
-7 -8 -5 -4 -2 -1 -0 2 -0 -0 -2 -1 -1 0 0 -3 -4 -1 -0 1 -0 -2 0 0 -1 -3 -5 -4 -4 -2 -2 -2 5 6 7 11 12 13 13 15 15 14 13 14 14
-5 -5 -3 -2 -1 -0 -0 1 1 -1 -1 -2 1 1 2 1 0 0 -0 -3 -3 -3 -3 -0 0 -2 -2 -6 -4 -3 -4 -0 1 8 8 13 13 11 15 15 15 15 15 15 15
-3 -0 1 -0 -1 -1 -1 -0 -0 -4 -1 -4 -2 1 1 3 2 2 -1 -4 -4 -2 -3 -2 -0 -0 -0 -0 -2 -1 -0 1 1 4 5 8 11 13 14 14 14 14 14 14 15
-2 0 0 -0 -0 2 1 -0 -6 -8 -5 -3 -4 -0 2 2 2 -1 -2 -3 -5 -3 -2 -3 -2 1 -0 -3 -3 -3 2 2 -0 7 9 7 9 12 12 13 13 14 14 14 15
-1 -1 -1 -0 -2 -2 -1 -7 -4 -4 -3 -2 -2 -0 1 3 5 3 1 -4 -2 -5 -1 -2 0 2 1 -1 -1 2 -0 1 4 7 9 4 6 11 12 13 12 13 13 13 14
-0 -2 -6 -2 -5 -3 -4 -5 -3 -4 -1 -0 1 -1 1 3 5 4 3 0 -0 2 1 -2 -0 2 2 2 0 4 5 -1 0 1 7 5 10 12 12 12 11 11 12 12 13
-1 -1 -3 -4 -4 -5 -4 -4 -3 -3 -3 1 1 1 -0 3 3 3 2 1 1 1 -1 -0 2 1 1 1 1 3 7 7 1 1 3 5 6 10 12 11 11 11 11 12 12
2 3 2 2 -4 -5 -4 -3 -4 -4 -1 1 1 -0 2 4 2 2 1 1 0 0 2 0 5 2 3 2 3 1 4 9 8 9 9 9 9 8 11 10 10 11 11 11 12
2 4 2 0 -5 -5 -4 -3 -2 -2 -2 -0 -0 -1 -1 -1 -1 1 -1 -3 -2 -1 1 2 2 5 5 3 4 5 3 4 6 8 9 7 9 9 10 9 10 10 10 10 11

GFSSW_850_dewp_096.txt.gz
Dewpoint
-7 -7 -7 -8 -8 -8 -7 -7 -11 -17 -16 -9 -6 -5 -4 -3 -5 -11 -17 -17 -21 -6 -1 5 9 13 14 15 15 16 17 18 16 14 15 15 14 14 13 14 13 13 10 13 14
-7 -9 -10 -10 -7 -7 -8 -8 -7 -13 -20 -16 -11 -8 -7 -4 -3 -5 -14 -25 -23 -7 3 3 7 12 13 13 13 15 17 16 13 12 14 14 14 14 13 14 13 11 12 14 14
-4 -7 -9 -12 -11 -8 -7 -8 -8 -7 -15 -17 -15 -13 -10 -7 -3 -13 -5 -20 -24 -7 3 -1 5 12 13 12 13 14 16 14 13 13 13 14 14 13 13 14 13 13 14 14 14
-4 -4 -11 -13 -12 -9 -8 -6 -8 -7 -12 -13 -14 -17 -13 -7 -9 3 -2 -15 -25 -3 3 -0 3 11 14 11 12 14 14 14 12 13 13 14 13 13 12 12 12 13 13 14 14
-5 -4 -10 -10 -9 -9 -7 -7 -7 -8 -9 -12 -12 -21 -15 -1 -4 -7 -4 -21 -24 3 0 -1 -0 9 13 13 12 14 13 13 13 14 14 14 12 12 13 13 12 12 13 13 13
-6 -4 -10 -10 -10 -9 -7 -7 -7 -7 -11 -12 -15 -21 -8 -5 -4 -12 -4 -23 0 1 -0 -2 -1 10 12 12 13 13 13 13 13 14 14 13 12 12 13 12 12 12 13 12 12
-5 -5 -9 -10 -10 -10 -9 -8 -10 -12 -12 -12 -14 -17 -3 -6 -6 -1 1 3 1 -1 -0 -1 3 11 10 9 11 14 14 13 14 14 13 13 14 14 13 12 13 12 12 12 12
-4 -6 -7 -6 -9 -11 -12 -9 -8 -11 -12 -11 -12 -12 -7 -8 -6 1 -1 2 1 -2 -2 2 10 9 7 7 14 15 14 17 15 14 15 15 16 14 14 12 12 11 12 12 12
-3 -4 -6 -4 -7 -6 -1 -1 -0 -2 -9 -9 -6 -2 -7 -6 -3 -1 -7 -5 -5 -4 -4 1 8 7 6 9 14 15 16 16 16 14 15 16 16 15 14 13 11 11 12 12 12
-3 -4 -7 -4 -7 -6 -5 -3 -1 -0 -3 -3 -7 2 -3 -2 -1 -1 -4 -4 -6 -5 -5 2 7 8 5 7 14 16 15 14 16 15 15 17 15 16 15 14 11 11 11 12 12
-5 -4 -6 -5 -6 -3 -2 -2 3 4 4 -1 -4 -3 -4 -1 0 -1 -3 -5 -6 -8 -6 -3 6 10 6 3 3 12 14 13 13 15 16 16 16 16 16 16 12 11 11 11 12
-8 -6 -4 -6 -5 -3 -2 -0 -0 -0 -2 -2 -1 -2 -3 -2 -1 -1 -5 -6 -6 -8 -5 -2 4 6 6 1 3 8 12 12 13 14 14 16 17 16 16 16 14 11 10 11 11
-7 -8 -5 -6 -3 -4 -2 -1 -1 0 -1 -3 -3 -4 -3 -3 -3 -2 -2 -5 -7 -9 -3 -4 -3 4 5 2 3 6 9 9 14 14 13 15 16 15 15 15 15 12 11 11 12
-7 -9 -6 -5 -3 -3 -2 -2 -1 -1 -2 -2 -3 -3 -2 -3 -3 -3 -4 -5 -8 -8 -7 -6 -3 3 5 6 3 5 2 9 14 13 16 13 17 14 14 16 15 13 12 12 12
-8 -9 -6 -4 -4 -2 -2 -2 0 -3 0 -3 -3 -3 -2 -2 -2 -3 -4 -5 -6 -9 -5 -3 -1 3 3 5 3 3 -0 5 9 12 14 15 13 14 14 14 15 14 12 11 11
-9 -9 -6 -4 -4 -3 -3 -1 -1 -1 2 -2 -4 -4 -4 -4 -3 -3 -2 -4 -5 -6 -5 -3 -2 -1 0 1 2 -0 1 4 8 10 13 11 11 13 13 13 12 13 13 12 11
-10 -9 -6 -5 -1 -3 -3 1 0 -1 -2 -2 -2 -4 -3 -3 -3 -3 -1 -2 -2 -1 -4 -2 -0 -2 -1 1 1 2 3 7 8 9 8 9 10 9 9 13 11 13 13 13 11
-10 -9 -6 -5 -4 -2 1 -1 -0 -2 -2 -3 -3 -4 -4 -5 -3 -2 -1 -1 -2 -3 -5 -0 0 -1 -3 -2 1 3 3 6 10 9 7 7 11 9 10 12 13 13 13 13 13
-7 -7 -6 -4 -3 -1 1 -2 -1 -3 -4 -3 -3 -3 -3 -4 -4 -1 -1 -2 -2 -3 -2 -2 -2 -4 -5 -5 -4 1 4 1 4 5 5 7 7 12 12 13 13 13 13 13 14
-5 -0 1 -2 -2 0 -2 -2 -3 -3 -3 -4 -1 -0 -1 -4 -3 -2 -1 -2 -1 -2 -2 -2 -1 -5 -5 -6 -5 -4 -2 3 3 8 7 7 7 6 14 14 15 13 13 12 14
-3 -2 0 -1 -1 -1 -3 -2 -4 -5 -4 -4 -3 -0 -0 -2 -3 -3 -1 -3 -3 -2 -2 -2 -2 -3 -4 -3 -4 -3 -3 -4 -0 2 4 5 7 10 11 13 15 15 15 15 14
1 -1 -0 -1 -1 -3 -3 -5 -7 -9 -7 -4 -4 -2 1 1 -2 -1 -1 -2 -4 -3 -1 -2 -2 1 -3 -3 -4 -6 -5 -3 -2 4 2 3 8 11 12 13 14 14 15 15 15
1 0 -0 -1 -2 -3 -4 -7 -6 -8 -8 -5 -3 -2 0 2 3 -1 -2 -2 -2 -4 -1 -2 -1 2 1 -2 -2 -3 -4 -3 -4 -4 4 4 4 11 12 13 14 14 15 15 14
2 -1 -2 -1 -4 -6 -5 -6 -5 -5 -5 -4 -1 -2 -1 1 1 0 -1 -2 -0 -1 -1 -2 -1 1 0 -2 -3 1 0 -2 -2 -2 -1 1 6 12 13 13 13 14 14 14 14
1 -2 -3 -6 -6 -6 -6 -6 -5 -6 -5 -5 -0 -2 -1 1 1 1 -1 -1 -1 -0 -0 0 2 0 0 -1 -1 -0 -1 -2 -2 -3 -1 -1 1 9 12 12 13 13 13 13 14
3 0 -0 -2 -3 -5 -4 -4 -6 -7 -4 -5 -1 -2 -1 1 2 1 -0 0 0 -0 1 0 3 2 3 1 -1 3 4 1 -0 -0 -1 2 2 7 11 12 12 13 12 13 13
4 4 4 -3 -5 -5 -4 -5 -5 -5 -3 -1 -1 -2 -1 -1 -1 -1 -2 -2 -2 0 1 2 3 4 4 2 2 2 2 2 4 4 3 1 8 9 11 11 11 12 12 12 13

GFSSW_850_dewp_099.txt.gz
Dewpoint
-8 -9 -10 -9 -7 -8 -8 -8 -7 -11 -19 -14 -7 -5 -5 -4 -4 -6 -3 -9 -9 -9 1 3 8 11 12 14 15 15 18 17 16 12 13 12 12 11 13 12 12 11 11 12 12
-5 -7 -9 -11 -12 -10 -7 -8 -8 -7 -14 -20 -13 -8 -7 -6 -4 0 -4 -17 -24 -11 -1 2 6 12 13 14 13 14 17 16 13 10 12 12 12 12 12 12 12 10 11 13 13
-4 -4 -9 -11 -13 -11 -9 -7 -8 -8 -8 -16 -16 -13 -10 -7 2 -4 -4 -18 -25 -12 3 1 5 11 13 12 12 14 16 14 13 12 12 12 12 12 12 12 10 11 12 13 12
-5 -4 -8 -10 -10 -9 -9 -8 -7 -9 -8 -13 -14 -16 -15 -7 -3 2 -5 -8 -25 -12 3 0 2 11 13 13 12 13 13 13 12 12 12 12 12 11 10 10 10 12 12 12 12
-7 -4 -10 -11 -10 -10 -8 -8 -7 -8 -7 -12 -12 -18 -17 1 -2 -1 -3 -11 -25 -2 2 -1 -1 7 12 13 12 13 13 13 12 11 12 12 11 10 11 11 11 11 12 12 11
-6 -5 -9 -10 -10 -10 -9 -8 -8 -8 -9 -12 -13 -19 -10 -2 -3 1 -2 -22 -8 1 -0 -2 -3 2 11 13 12 13 13 12 13 13 14 12 10 10 11 10 11 11 11 11 11
-5 -5 -7 -7 -9 -11 -12 -12 -12 -12 -13 -13 -14 -18 0 -4 -4 3 -1 -4 -5 -1 -1 -3 -3 0 10 11 11 13 14 13 14 13 13 12 12 12 11 10 11 11 11 11 10
-3 -5 -7 -5 -8 -6 -2 -1 -6 -10 -9 -10 -12 -6 -1 -7 -3 2 0 0 -3 -3 -2 -3 -1 3 9 9 13 15 14 17 15 13 14 13 16 11 11 10 10 10 10 10 10
-3 -4 -6 -5 -7 -5 -4 -3 -1 -1 -4 -6 0 2 -5 -8 -5 -1 -2 0 -2 -3 -3 -1 5 8 8 9 17 15 18 17 16 13 15 15 17 14 11 10 10 9 10 10 10
-6 -4 -7 -5 -6 -4 -3 -4 -2 -2 -3 -3 1 0 -3 -4 -3 -4 -7 -5 -6 -6 -5 -5 6 8 8 9 17 15 17 16 17 16 14 16 16 15 14 14 9 10 10 10 9
-8 -7 -5 -5 -5 -4 -3 2 5 7 5 -1 -4 -5 -4 -2 -1 -4 -5 -8 -8 -7 -5 -7 3 8 7 6 12 15 16 17 16 15 15 16 15 16 15 14 14 10 9 10 9
-8 -9 -6 -6 -5 -4 -2 -1 -2 -2 -2 -4 -5 -5 -4 -3 -1 -4 -4 -6 -8 -8 -7 -6 0 3 5 4 5 9 15 16 16 14 14 16 16 16 16 14 14 13 10 10 10
-8 -9 -6 -7 -4 -4 -1 -2 -2 -1 -1 -5 -6 -6 -6 -4 -4 -3 -6 -6 -8 -10 -8 -5 -6 -3 4 6 4 5 13 14 16 16 14 16 17 17 16 14 14 15 12 9 9
-8 -9 -7 -5 -3 -2 -2 -1 -1 0 1 -3 -4 -4 -3 -4 -6 -3 -4 -7 -9 -9 -9 -6 -8 -5 6 7 3 5 12 15 16 14 19 15 18 16 16 15 15 14 12 10 10
-9 -9 -7 -5 -1 -1 -1 -1 -0 0 3 -5 -5 -3 -3 -3 -4 -4 -3 -6 -7 -10 -10 -7 -8 -4 3 4 4 5 4 15 16 14 14 16 14 15 14 16 15 14 12 11 11
-10 -10 -7 -5 -4 -2 -1 -1 -0 0 2 -4 -5 -5 -4 -5 -5 -5 -5 -5 -6 -8 -10 -9 -7 -5 -1 -1 2 3 2 3 10 12 16 12 11 14 14 15 15 14 13 12 12
-11 -10 -7 -4 0 -1 -1 -0 3 -1 -5 -4 -5 -7 -5 -5 -4 -4 -5 -4 -2 -3 -4 -6 -2 -4 -3 -2 1 4 3 7 9 17 11 10 10 10 11 13 14 14 14 12 11
-11 -9 -6 -5 0 -1 -0 1 1 -6 -4 -7 -6 -6 -6 -6 -5 -4 -3 -2 -4 -5 -5 -6 -3 -2 -4 -2 1 4 3 7 10 9 9 10 11 11 7 8 8 12 13 13 12
-7 -7 -1 -0 -3 1 1 3 -2 -4 -6 -5 -5 -5 -5 -7 -4 -4 -3 -3 -5 -3 -3 -5 -5 -5 -4 -4 -3 1 6 2 6 5 11 9 12 11 7 8 10 12 11 13 12
-3 -1 -1 0 0 1 1 -4 -4 -6 -6 -6 -3 0 -2 -5 -6 -4 -3 -5 -5 -5 -5 -2 -2 -5 -6 -6 -6 -5 -2 5 3 9 11 9 9 8 13 12 11 11 12 13 13
-4 -2 0 -1 -0 -1 -0 -3 -6 -7 -9 -6 -4 -4 -1 0 -6 -4 -0 -4 -2 -0 -4 -2 -2 -3 -5 -4 -4 -4 -3 0 1 1 5 10 9 8 12 12 13 12 12 12 12
0 -3 0 -2 -0 -4 -4 -7 -11 -12 -10 -9 -6 -5 -1 5 -3 -4 1 1 -3 -2 -1 -3 -2 -1 -3 -7 -8 -7 -6 -4 1 5 1 2 14 8 11 11 13 15 16 16 15
1 -1 -1 -2 0 -5 -5 -10 -10 -9 -10 -10 -5 -5 -2 -1 2 -1 3 -1 -2 -3 0 -2 -2 0 1 -5 -7 -6 -6 -7 -7 -5 -0 1 10 9 12 13 14 14 15 16 16
2 -2 -3 -3 -3 -6 -6 -7 -7 -7 -9 -10 -5 -4 -3 -1 -1 2 -2 -2 -1 -2 -2 -1 -2 -2 3 0 -4 -4 -5 -7 -7 -4 -5 1 12 12 12 13 14 15 15 15 15
1 -3 -4 -4 -7 -8 -7 -7 -8 -8 -8 -8 -4 -4 -3 0 -0 0 -1 -2 -1 -0 -1 -2 1 -0 -1 1 -2 -5 -7 -5 -4 -3 -2 -3 3 10 12 12 13 14 14 14 15
2 -1 -5 -5 -5 -7 -5 -4 -7 -10 -7 -6 -5 -4 -4 0 2 6 -1 2 2 -0 1 1 5 3 1 1 -2 -3 -3 -4 -5 -5 -5 -2 5 8 10 12 13 13 14 14 14
3 2 1 -5 -6 -6 -5 -6 -7 -10 -7 -5 -4 -4 -3 -2 -2 -2 -2 -3 -1 2 2 3 7 6 7 -1 1 2 0 -1 -3 -4 -4 0 7 6 10 11 12 13 13 13 14

GFSSW_850_dewp_102.txt.gz
Dewpoint
-5 -7 -8 -10 -12 -11 -8 -9 -10 -8 -12 -19 -14 -7 -5 -5 -5 -6 -5 -5 -8 -13 -3 1 8 10 11 12 14 15 18 18 17 12 12 8 8 9 10 10 10 11 11 13 12
-5 -4 -6 -11 -12 -13 -10 -9 -9 -10 -8 -16 -19 -12 -8 -6 -6 -6 -7 -2 -8 -18 -10 4 3 10 11 13 14 15 18 17 14 12 11 10 10 11 12 11 11 10 11 11 11
-6 -5 -5 -11 -11 -11 -10 -9 -8 -9 -9 -11 -17 -16 -11 -8 -1 -0 -2 -4 -19 -23 -4 2 2 11 12 13 13 14 18 16 15 15 10 11 11 12 11 12 10 10 11 10 10
-8 -5 -8 -11 -10 -10 -10 -9 -8 -8 -9 -9 -14 -15 -15 -11 2 1 -3 -9 -21 -22 0 2 1 9 11 14 13 13 13 15 13 14 10 12 12 11 11 10 10 11 11 10 10
-7 -5 -10 -9 -10 -11 -10 -9 -9 -9 -9 -10 -13 -14 -19 4 -2 1 -5 -12 -19 -16 2 2 -0 5 11 13 13 14 13 13 14 12 11 12 12 13 12 11 10 11 11 10 10
-5 -5 -9 -8 -10 -11 -11 -11 -10 -10 -11 -12 -13 -15 -14 -1 -3 1 1 -10 -16 -6 0 1 -1 0 9 10 14 13 13 13 13 13 12 11 9 11 12 11 10 11 11 9 9
-3 -5 -8 -7 -8 -6 -5 -6 -9 -10 -12 -13 -14 -17 0 -2 -5 -2 1 -7 -10 -5 -1 -1 -2 -3 2 9 12 11 14 14 15 15 13 11 11 12 9 10 10 10 10 9 9
-4 -5 -8 -6 -6 -3 -3 -2 -3 -7 -6 -8 -11 -14 1 -7 -5 0 -0 -4 -9 -5 -1 -3 -4 -4 -0 10 10 13 14 17 16 16 12 12 16 12 9 10 10 10 10 10 9
-6 -5 -8 -6 -6 -5 -5 -5 -3 -1 -2 -5 2 -1 -1 -7 -10 -2 -2 -2 -3 -6 -3 -3 -4 -2 2 9 13 16 18 17 17 14 14 14 17 14 9 9 9 9 10 9 9
-8 -7 -6 -6 -6 -4 -4 -3 -0 -4 -0 -4 -3 2 -1 -6 -8 -1 -3 -2 -3 -4 -3 -3 -2 2 6 9 16 15 17 16 17 17 14 16 17 13 10 9 8 10 9 9 9
-8 -9 -7 -7 -6 -4 -4 1 6 5 4 0 -2 -5 -5 -4 -3 -4 -7 -4 -5 -7 -5 -6 -4 5 8 7 9 13 17 17 16 15 15 16 16 16 15 14 14 10 9 9 9
-7 -9 -8 -8 -6 -4 -4 1 -3 -3 -1 0 -7 -9 -6 -4 -3 -3 -6 -8 -9 -8 -8 -6 -5 -3 3 7 14 14 15 17 15 13 16 16 16 15 15 15 14 14 12 9 8
-8 -9 -8 -9 -6 -5 -3 -1 -2 -2 -0 -4 -8 -8 -9 -8 -5 -4 -5 -7 -8 -8 -9 -6 -7 -7 -0 4 10 12 13 15 15 14 14 16 17 17 16 15 14 13 14 13 10
-9 -9 -8 -8 -2 1 -1 -2 -2 -1 1 -3 -5 -6 -7 -7 -7 -4 -5 -7 -7 -8 -11 -10 -9 -8 -3 2 7 15 13 13 15 14 16 15 18 17 16 15 14 14 14 14 12
-11 -10 -8 -7 -1 -1 -2 -2 -1 -1 7 -5 -6 -5 -4 -6 -7 -5 -4 -7 -6 -9 -10 -10 -9 -7 -6 -0 6 9 11 13 14 15 16 16 15 16 16 16 15 14 14 14 13
-13 -11 -8 -7 -5 -1 -1 -1 -1 2 5 -5 -7 -5 -5 -6 -5 -5 -4 -5 -6 -7 -11 -11 -11 -9 -8 -3 2 5 9 13 14 16 18 14 14 18 17 16 15 13 13 15 12
-13 -12 -9 -3 3 -2 -2 -2 3 5 -6 -4 -5 -8 -7 -5 -6 -5 -5 -4 -3 -2 -3 -9 -10 -8 -8 -4 -2 5 6 14 17 18 17 16 13 16 14 13 14 13 14 14 13
-14 -11 -8 -4 -1 -0 -1 1 7 -4 -6 -9 -8 -8 -9 -4 -5 -5 -5 -5 -5 -4 -5 -5 -7 -5 -5 -3 -2 3 7 8 15 15 17 16 14 14 12 11 12 12 13 14 14
-13 -7 -6 -2 -2 -1 0 5 5 -5 -7 -8 -7 -1 -3 -7 -6 -3 -4 -4 -5 -6 -2 -3 -5 -10 -6 -5 -4 0 3 2 6 9 12 15 14 12 9 10 11 12 13 11 10
-10 2 -1 -1 -2 -1 1 3 -3 -7 -9 -9 -5 -2 -0 0 -4 -4 -3 -6 -6 -7 -7 -3 1 -5 -6 -6 -5 -2 -2 2 9 11 13 12 15 14 12 12 12 12 12 10 10
-6 1 -1 -3 -3 -2 2 1 -6 -9 -11 -10 -7 -5 -4 4 -1 -1 -3 -2 -2 -3 -3 -5 -1 0 -6 -4 -4 -5 -3 -2 -0 5 10 11 14 13 11 10 11 11 12 12 14
2 -1 -0 -3 -3 -2 -1 -4 -10 -14 -12 -11 -9 -8 -5 0 1 4 3 0 -3 -2 0 -2 -1 1 -1 -6 -7 -7 -6 -4 1 4 3 5 11 12 13 12 10 12 11 14 12
3 0 0 -3 -2 -0 -2 -8 -12 -11 -13 -11 -10 -6 -7 1 2 4 2 1 -1 -3 2 0 1 2 1 -2 -6 -5 -6 -7 -7 -4 3 3 15 13 11 13 14 15 16 17 16
4 2 -2 -4 -4 -2 -2 -7 -8 -8 -10 -10 -10 -7 -5 -2 2 6 9 1 -2 -4 -3 -1 -0 1 1 3 1 -4 -6 -7 -7 -4 -4 -3 10 14 13 15 14 15 16 16 17
2 -0 -2 -5 -6 -7 -8 -7 -8 -10 -9 -10 -7 -5 -4 3 7 4 4 1 -2 -2 -2 -2 2 1 -1 -1 0 0 -5 -7 -4 -6 -3 -0 8 9 11 13 14 15 15 15 16
3 2 1 -5 -6 -8 -7 -9 -8 -10 -9 -7 -6 -7 -5 -3 7 7 3 7 3 1 -0 -1 3 4 5 1 1 1 -1 -6 -7 -7 -6 3 11 12 13 15 14 14 14 15 15
4 4 3 -3 -6 -8 -7 -5 -7 -9 -9 -10 -6 -5 -4 -1 -2 -0 -1 -3 2 2 1 3 6 8 8 7 3 2 3 2 -6 -6 -4 11 11 8 10 11 14 14 14 15 15

GFSSW_850_dewp_105.txt.gz
Dewpoint
-6 -5 -5 -11 -12 -13 -12 -10 -9 -10 -9 -12 -20 -14 -7 -5 -5 -6 -11 -16 -12 -12 -12 -4 5 9 9 9 13 15 16 17 17 11 9 12 13 11 10 10 12 12 12 10 13
-8 -6 -6 -11 -12 -12 -11 -11 -10 -9 -10 -9 -17 -19 -11 -7 -6 -7 -14 -7 -5 -9 -12 1 3 8 9 12 14 16 18 16 15 15 13 9 11 11 11 11 12 12 10 12 12
-8 -7 -7 -11 -11 -10 -10 -10 -10 -9 -10 -9 -14 -18 -14 -9 -9 -1 -4 -11 -7 -12 -16 1 3 5 10 13 14 16 17 16 13 14 16 10 11 12 11 13 12 12 11 12 10
-7 -5 -10 -9 -10 -11 -11 -9 -9 -9 -10 -9 -13 -15 -17 -13 4 1 -2 -5 -3 -14 -18 1 1 2 12 14 13 15 15 15 15 16 16 12 11 11 11 11 12 11 11 11 9
-5 -5 -9 -7 -9 -11 -12 -11 -10 -10 -10 -9 -12 -13 -18 1 -3 -2 -2 -8 -15 -22 -14 1 3 1 11 13 13 15 14 16 16 13 15 12 11 12 11 11 11 10 10 10 9
-4 -5 -9 -7 -8 -6 -7 -10 -11 -12 -13 -13 -13 -14 -19 -0 0 -2 0 -6 -16 -24 -7 3 3 -0 2 11 13 14 14 16 15 17 17 13 13 11 11 11 11 10 9 10 9
-5 -6 -9 -7 -5 -3 -2 -1 -6 -9 -8 -10 -13 -15 -15 -13 -5 -3 1 -0 -18 -23 -4 2 2 0 -2 3 12 14 16 15 17 17 16 13 14 13 11 11 11 11 10 10 9
-7 -6 -8 -7 -5 -5 -5 -5 -3 -3 -4 -6 -10 -11 -12 -3 -6 -4 -1 -1 -10 -9 -2 -1 -2 -2 -3 2 10 13 14 17 16 16 16 14 16 13 11 11 11 11 10 9 9
-8 -8 -7 -7 -6 -5 -5 -4 -3 -4 -2 -5 -0 7 3 -5 -7 -7 0 -2 -6 -9 -5 -2 -2 -4 -4 0 9 16 17 17 17 17 17 14 15 13 12 11 11 10 10 9 10
-7 -9 -8 -7 -6 -5 -6 -3 -1 0 -2 1 -3 4 -0 -4 -5 -7 -1 -2 -3 -4 -6 -5 -2 -2 -1 2 13 16 16 16 17 16 15 16 16 15 13 10 10 10 10 10 9
-7 -8 -9 -8 -7 -6 -6 -3 3 4 0 3 1 -1 -5 -5 -4 -3 -2 -3 -2 -5 -3 -3 -1 1 1 3 6 15 16 15 16 14 15 16 16 16 15 14 14 10 10 10 9
-9 -9 -10 -8 -8 -6 -7 -4 -1 -2 -1 -1 -1 -1 -10 -7 -4 -3 -5 -5 -3 -3 -5 -4 -2 -5 -4 7 12 13 15 16 15 14 13 15 17 16 15 15 14 14 12 10 9
-12 -10 -10 -9 -8 -6 -3 -1 -2 -2 -1 -0 -1 -6 -9 -9 -8 -3 -5 -8 -8 -7 -7 -5 -5 -7 -7 10 11 14 15 15 15 14 13 15 17 16 15 15 14 13 13 13 9
-14 -12 -11 -9 -2 2 1 -1 -2 -2 2 0 -6 -7 -7 -8 -8 -7 -5 -6 -7 -7 -8 -9 -9 -8 -7 10 10 15 13 13 14 14 16 15 18 17 16 15 14 14 13 13 11
-15 -13 -11 -8 -4 -2 -2 -2 -2 -1 7 -6 -6 -5 -5 -7 -6 -7 -5 -5 -4 -5 -8 -8 -10 -10 -7 -4 11 14 13 13 12 15 16 16 18 17 15 15 14 13 13 13 14
-14 -15 -12 -8 -7 -0 0 -2 -2 3 6 -4 -6 -5 -5 -6 -6 -5 -4 -5 -6 -5 -5 -8 -11 -11 -8 -4 9 11 13 13 14 15 17 16 17 17 16 14 12 12 13 13 14
-14 -16 -12 -9 -3 -0 -1 -1 3 7 0 -3 -7 -6 -6 -5 -6 -4 -3 -2 -2 -1 -1 -3 -9 -11 -10 5 11 12 14 16 16 15 15 14 16 15 14 14 12 13 13 13 13
-17 -16 -11 -6 -3 -1 -1 2 8 6 1 -9 -9 -8 -7 -4 -3 -5 -3 -3 -4 -3 -2 -1 -3 -9 -6 -5 9 13 11 13 15 17 16 15 17 16 12 12 13 13 13 13 13
-18 -10 -7 -3 -2 -3 -0 6 6 2 -8 -9 -9 -3 -0 -1 -1 -4 -3 -4 -6 -5 -2 -0 -1 -6 -6 -5 -4 3 7 6 13 13 15 16 15 14 12 13 13 13 13 12 13
-16 -10 -5 -2 -1 -0 2 4 2 -7 -10 -11 -6 -5 2 1 2 0 1 -1 -2 -4 -6 -4 1 -2 -3 -7 -5 -3 1 4 10 15 16 16 16 17 12 13 13 12 12 11 11
-9 -0 0 -1 -1 -1 2 2 1 -10 -12 -11 -8 -6 -1 2 1 4 4 0 -1 -2 -2 -1 -0 -0 -0 -2 -2 -2 1 1 8 8 13 17 16 13 13 11 12 11 12 11 10
3 3 -1 -3 -2 -2 0 -1 -2 -10 -12 -11 -11 -9 -5 0 0 6 5 4 1 -2 2 1 0 3 1 -4 -5 -5 -4 -2 2 4 8 8 17 13 13 12 11 12 12 12 10
4 2 1 -1 0 -2 0 -1 -8 -12 -9 -12 -10 -10 -5 2 5 6 3 1 1 -1 2 1 4 5 2 -0 -2 -4 -5 -5 -4 -4 1 6 15 11 12 11 11 13 13 12 12
5 5 1 -0 -1 -3 1 0 -2 -9 -9 -10 -8 -8 -5 2 4 8 6 3 1 -1 -2 -1 0 3 4 3 1 4 -3 -5 -4 -3 -1 -0 14 14 11 9 15 17 16 17 13
4 4 2 3 -1 -4 -2 -4 -5 -8 -9 -12 -7 -6 -2 3 8 8 5 5 4 2 -2 -0 2 2 2 3 0 1 1 -3 -5 -2 -0 12 13 14 15 15 15 16 16 17 16
4 4 5 5 2 -3 -5 -8 -6 -8 -7 -7 -4 -5 -2 3 5 8 7 8 7 5 3 1 4 7 7 8 7 6 2 2 -0 -5 9 15 15 14 14 14 14 14 14 15 16
7 6 6 6 4 -3 -4 -4 -6 -6 -9 -9 -7 -4 -1 1 1 1 2 2 3 5 3 4 7 9 9 8 8 8 7 5 8 9 5 11 13 12 12 11 10 14 14 15 16

GFSSW_850_dewp_108.txt.gz
Dewpoint
-8 -7 -6 -12 -12 -12 -12 -11 -10 -10 -11 -10 -14 -20 -13 -6 -5 -6 -12 -20 -21 -13 -12 -8 -6 11 10 8 13 15 16 17 16 10 10 12 12 11 12 13 11 12 13 13 14
-8 -7 -9 -11 -11 -11 -11 -11 -10 -10 -10 -11 -10 -19 -18 -10 -6 -7 -8 -17 -14 -6 -10 -3 9 8 7 9 14 15 16 16 14 14 14 13 13 10 13 13 12 11 13 13 13
-7 -6 -10 -9 -10 -11 -11 -11 -10 -10 -10 -11 -10 -15 -18 -13 -9 -2 -4 -15 -12 -8 -10 -5 3 3 5 11 15 15 17 15 14 14 14 15 13 11 12 13 11 12 14 13 13
-5 -5 -9 -8 -10 -11 -12 -11 -10 -10 -10 -11 -10 -14 -16 -14 3 1 -1 -6 -7 -11 -12 -13 2 -0 2 13 14 16 15 15 14 14 15 15 13 12 13 13 9 10 12 13 13
-4 -5 -8 -7 -7 -5 -7 -11 -12 -12 -12 -11 -12 -13 -15 -9 -8 -2 -2 -3 -8 -6 -14 -15 -0 1 3 12 14 16 15 15 15 16 15 15 15 12 13 12 10 10 12 13 13
-6 -7 -8 -7 -5 -3 -2 -3 -7 -9 -10 -12 -14 -14 -15 -4 1 0 0 -1 -10 -19 -22 -7 2 3 2 8 14 14 15 16 16 15 16 16 15 12 12 10 11 11 12 10 11
-8 -7 -7 -7 -5 -5 -5 -5 -3 -4 -5 -6 -9 -13 -15 -18 -4 4 -0 1 -3 -18 -23 -0 2 2 2 -1 8 14 16 16 16 16 16 16 15 13 12 11 11 12 10 9 10
-8 -9 -8 -8 -6 -5 -5 -4 -4 -4 -2 -4 -8 2 -5 -4 -5 -5 -4 -2 -2 -20 -21 -2 1 -1 -1 -3 0 15 15 17 16 15 14 17 16 12 11 11 11 10 10 10 11
-7 -9 -10 -8 -7 -6 -5 -5 -2 -1 -4 -2 -5 1 -2 -3 -4 -7 -5 -1 -1 -10 -5 -2 -5 -3 -2 -1 5 16 16 16 19 15 17 16 16 12 12 11 10 10 10 10 11
-9 -9 -10 -8 -9 -6 -7 -4 1 2 0 2 2 2 -2 -4 -5 -6 -8 -0 -2 -5 -9 -9 -7 -2 -1 1 7 14 15 16 16 15 16 15 16 14 12 11 11 11 10 11 11
-11 -10 -11 -9 -11 -7 -6 -4 -1 1 -0 -1 -1 1 -1 -5 -4 -4 -2 -2 -2 -3 -4 -5 -1 1 -0 -1 1 14 16 16 15 14 15 15 15 16 14 12 11 11 10 10 11
-13 -13 -11 -9 -11 -8 -6 -4 -2 -1 -1 -1 -1 -1 -3 -4 -7 -4 -4 -4 -3 -2 -5 -3 -1 -2 -2 -1 5 14 16 16 14 14 14 15 15 14 15 15 14 12 10 10 12
-12 -15 -13 -10 -10 -7 -2 -1 -1 -0 -1 -1 -1 -1 -3 -7 -8 -7 -4 -5 -7 -4 -6 -3 -4 -5 -4 -1 13 14 15 15 15 14 14 14 15 14 15 15 14 14 12 10 12
-9 -15 -14 -10 -6 0 -1 -1 -1 -0 1 1 -2 -8 -8 -9 -8 -8 -6 -7 -6 -7 -7 -7 -8 -7 -6 0 11 15 13 13 15 14 16 14 18 17 16 15 14 14 13 12 10
-1 -15 -15 -10 -7 -4 0 -1 -2 -1 6 -1 -5 -5 -6 -7 -7 -7 -6 -5 -4 -4 -6 -5 -9 -9 -7 -6 11 15 12 13 13 14 15 15 16 17 16 16 15 13 13 13 13
2 -10 -17 -11 -9 0 -1 -1 -1 2 7 -3 -6 -6 -5 -6 -6 -6 -5 -5 -5 -4 -4 -4 -5 -10 -10 6 12 11 13 13 13 14 15 15 16 16 17 15 14 13 13 12 13
1 -12 -18 -12 -3 -1 -1 -0 3 6 2 -3 -5 -5 -5 -5 -5 -4 -3 -3 -2 -1 -2 -3 -4 -1 11 13 11 12 13 16 16 15 15 15 16 15 14 13 12 12 13 13 13
-4 -18 -18 -11 -5 -2 -2 1 6 6 4 -4 -10 -7 -4 -2 -2 -3 -3 -1 -3 -3 -2 -1 -0 -7 3 12 13 13 10 13 15 16 16 15 17 15 13 11 11 11 12 12 13
-10 -18 -12 -6 -3 -3 -1 5 6 3 -8 -11 -10 -4 -1 -2 -0 -2 -1 -3 -4 -4 -2 -2 -1 -4 -5 6 10 12 10 8 13 13 15 16 15 14 11 13 12 12 12 13 12
-17 -14 -9 -4 -2 -1 1 3 2 0 -11 -12 -8 -6 1 -0 2 2 4 1 2 -1 -3 -3 -2 -5 -3 -4 5 7 6 8 9 15 16 16 15 15 12 13 13 14 13 13 12
-5 -2 -6 -3 -1 0 2 1 0 -1 -12 -11 -10 -8 -3 1 2 5 5 3 2 1 -0 -0 -2 -0 -1 -1 -3 -3 2 2 6 10 15 17 16 12 11 11 13 13 13 13 12
-1 4 0 0 0 -0 -0 -1 -1 -1 -13 -12 -12 -10 -5 2 5 5 5 4 2 1 1 0 1 2 1 -1 -4 -4 -3 -0 2 2 9 11 15 10 11 10 12 12 12 12 11
-2 2 -0 1 -0 -2 -3 -2 -2 -2 -9 -11 -10 -10 -0 3 4 6 5 3 2 2 0 -1 1 4 3 2 0 0 -1 -5 -3 -2 5 9 13 10 13 11 10 11 11 12 12
1 3 3 2 -0 -2 -3 -3 -1 -7 -9 -10 -9 -9 -1 2 6 6 5 4 2 2 0 -0 0 3 4 3 2 3 2 1 -5 -2 -3 2 10 13 10 15 15 11 11 12 12
1 3 4 6 3 3 -2 -3 -2 -7 -10 -8 -6 -2 -3 5 6 6 6 4 3 2 2 -0 1 0 1 7 7 6 7 7 5 1 -2 1 12 14 13 16 16 15 14 13 12
-5 5 7 6 5 3 0 -2 -5 -8 -8 -9 -4 1 1 4 3 2 6 6 5 1 3 1 4 6 8 6 7 8 8 9 10 11 15 15 16 14 15 15 16 16 14 14 15
7 6 7 6 6 5 -2 -5 -5 -8 -8 -8 -6 -4 0 2 0 -2 -1 1 3 3 2 6 6 7 9 8 7 11 9 10 10 10 12 14 13 13 14 14 14 15 16 16 16

GFSSW_850_dewp_111.txt.gz
Dewpoint
-8 -7 -10 -10 -11 -11 -11 -11 -11 -10 -10 -12 -11 -17 -19 -11 -7 -7 -11 -18 -21 -9 -10 -5 7 11 11 9 12 15 16 17 16 12 14 12 13 13 13 13 13 13 13 13 13
-6 -7 -10 -9 -10 -11 -11 -11 -10 -10 -10 -11 -11 -13 -20 -17 -9 -7 -9 -14 -18 -15 -11 -4 2 10 8 8 15 15 16 16 15 14 15 14 12 13 13 12 13 13 13 14 14
-5 -6 -9 -8 -9 -11 -12 -11 -10 -10 -10 -11 -10 -13 -16 -17 -9 -1 -6 -8 -15 -9 -11 -3 5 5 4 10 15 15 17 15 14 14 14 14 13 12 13 13 12 14 14 14 15
-5 -7 -8 -7 -6 -5 -8 -12 -12 -11 -11 -11 -10 -13 -14 -17 0 -1 -2 -8 -13 -8 -10 -8 -2 3 2 8 15 16 15 15 13 14 14 14 15 12 12 12 11 12 13 14 14
-7 -7 -8 -7 -5 -4 -2 -4 -8 -10 -12 -13 -13 -13 -14 -16 -9 -2 -1 -5 -7 -10 -14 -14 -1 1 3 5 15 15 15 16 15 15 15 15 15 14 12 12 11 12 14 13 14
-8 -8 -8 -8 -5 -5 -5 -5 -4 -5 -5 -7 -9 -13 -14 -11 1 0 0 -0 -5 -12 -14 -13 -1 2 3 1 14 14 15 15 15 15 15 15 14 14 13 11 12 13 14 13 13
-7 -9 -9 -8 -7 -6 -5 -5 -5 -5 -3 -4 -8 -8 -7 -16 1 2 1 0 -3 -7 -22 -15 1 2 2 1 6 15 16 16 16 16 16 16 15 14 13 11 12 13 14 14 13
-8 -9 -10 -9 -9 -6 -6 -5 -4 -2 -4 -3 -5 -4 -5 -8 -6 -5 -4 -3 -1 -14 -12 -18 -8 0 -1 -2 -2 15 15 17 16 16 16 16 17 14 13 11 11 12 12 13 13
-11 -9 -10 -10 -11 -7 -7 -6 -2 1 -0 -2 1 -1 -5 -3 -3 -5 -5 -4 -1 -7 -12 -7 -8 -5 -2 -1 3 13 16 16 17 16 15 16 17 14 12 11 11 12 10 12 13
-12 -13 -11 -11 -12 -9 -8 -4 -1 1 2 1 3 2 -3 -3 -4 -5 -7 -5 -2 -3 -9 -10 -9 -2 -1 -1 4 12 16 15 16 16 16 16 16 15 12 12 11 11 10 12 13
-13 -15 -13 -12 -13 -10 -5 -5 -2 -0 0 -0 -1 -1 -2 -3 -5 -5 -3 -3 -5 -4 -4 -5 -3 -1 -1 -1 2 14 16 16 15 15 15 15 15 15 15 13 11 11 11 12 12
-9 -15 -15 -12 -13 -9 -6 -1 -2 -0 -0 -1 -1 -1 -2 -1 -1 -7 -3 -3 -3 -2 -4 -3 -1 -2 -2 -2 4 14 15 16 14 14 15 15 15 14 14 15 14 11 11 11 12
1 -11 -17 -12 -12 -8 -1 -1 -0 -0 0 -1 -1 -1 -3 -3 -3 -6 -6 -4 -6 -3 -4 -3 -3 -4 -3 2 14 14 14 15 15 14 14 14 16 16 15 15 14 13 11 11 11
3 0 -17 -12 -8 -2 -2 -0 -1 -1 1 0 -1 -4 -6 -4 -8 -8 -8 -6 -6 -6 -5 -6 -7 -6 -5 -3 12 14 13 14 15 15 16 14 17 16 15 15 15 14 12 12 11
5 3 -12 -13 -7 -3 -2 -1 -1 -1 4 -0 -4 -6 -6 -8 -6 -6 -6 -6 -5 -5 -6 -4 -5 -5 -6 -6 11 13 12 13 13 14 15 16 16 16 16 16 15 14 14 12 12
4 2 -6 -15 -10 -4 -1 -1 -1 3 6 1 -6 -5 -4 -6 -6 -6 -7 -5 -5 -4 -5 -4 -5 -5 -4 7 9 11 12 13 13 14 16 15 15 15 17 15 13 14 14 13 13
4 1 -11 -18 -6 0 -2 -1 3 5 2 -6 -7 -6 -5 -5 -5 -4 -4 -3 -2 -2 -2 -3 -3 11 10 12 11 12 12 13 13 14 15 14 15 14 13 14 13 14 14 13 13
4 -5 -20 -16 -7 -4 -3 1 6 4 4 -1 -10 -4 -4 -1 -2 -3 -2 -1 -3 -3 -2 -1 -2 11 10 11 12 13 10 11 13 15 15 15 16 15 12 13 14 14 14 13 14
2 -17 -18 -11 -6 -4 -1 5 5 4 -0 -11 -10 -2 -2 -2 -0 -1 -0 2 -3 -4 -2 -2 -1 -5 8 10 10 12 11 8 12 13 14 15 15 13 12 11 12 13 12 13 13
-8 -9 -11 -5 -2 -3 1 3 2 1 -4 -11 -9 -6 -1 0 2 2 3 2 2 0 -3 -1 -0 -4 -4 8 9 9 7 10 11 15 16 15 15 15 14 13 13 12 12 13 13
-15 0 -7 -4 -3 -0 2 1 0 -1 -2 -11 -9 -10 -6 0 3 4 4 3 2 1 -1 -0 -3 -3 -1 -1 7 1 6 4 7 10 14 15 14 12 9 10 13 12 12 13 14
-4 0 -0 -4 0 0 1 -1 -2 -2 -4 -12 -11 -10 -3 3 5 5 4 4 2 2 -0 -1 1 2 0 -2 -2 -3 1 2 5 3 11 12 12 12 10 10 12 13 12 13 13
-8 -2 1 -0 2 1 -2 -3 -3 -3 -5 -11 -9 -9 0 3 3 5 4 2 2 2 1 -1 0 4 3 3 2 1 2 -2 -3 -0 7 9 9 12 11 11 13 13 13 13 13
-4 2 3 2 0 -1 -2 -2 -2 -4 -3 -10 -8 -7 1 3 5 4 5 3 2 3 4 -0 0 2 6 4 3 7 8 6 -4 -2 -2 3 0 11 12 14 12 13 13 13 13
-5 1 5 5 4 5 2 2 3 0 -9 -9 -2 -1 -0 5 4 3 5 3 2 1 2 2 1 0 1 7 7 8 10 10 9 9 -2 -2 -1 10 14 15 14 13 13 12 13
-7 5 7 7 6 5 3 1 1 -1 -9 -8 0 1 1 3 -0 -1 4 4 3 2 2 3 6 6 7 7 7 8 9 10 11 12 11 14 14 15 16 16 16 14 14 13 12
7 5 6 7 6 6 5 2 0 -7 -7 -9 -3 0 1 0 -0 -2 0 1 3 3 2 6 6 7 8 7 5 8 8 9 10 12 13 14 14 12 13 14 15 16 16 16 14

GFSSW_850_dewp_114.txt.gz
Dewpoint
-6 -8 -9 -8 -10 -11 -12 -12 -12 -12 -11 -12 -13 -12 -19 -18 -10 -8 -10 -14 -19 -9 -6 -4 3 9 13 11 12 14 15 16 16 10 15 13 14 13 13 13 13 13 12 12 14
-5 -8 -8 -8 -9 -11 -12 -12 -12 -12 -11 -11 -12 -12 -16 -20 -13 -8 -8 -13 -21 -11 -9 2 5 11 10 8 16 15 16 15 15 14 15 14 13 13 13 13 14 13 13 13 14
-6 -9 -8 -7 -5 -5 -8 -12 -12 -12 -12 -12 -12 -12 -15 -19 -9 -1 -4 -5 -18 -14 -10 1 5 9 7 10 13 15 16 15 14 14 14 14 13 13 13 13 13 13 13 14 14
-8 -8 -8 -7 -5 -4 -3 -5 -8 -12 -13 -13 -13 -13 -15 -16 -2 -1 -3 -8 -15 -8 -10 -1 5 4 2 5 14 15 15 15 14 14 14 14 15 13 12 11 10 11 12 13 14
-8 -8 -8 -8 -5 -6 -5 -5 -5 -5 -5 -7 -11 -14 -15 -17 -8 -1 -1 -8 -14 -8 -10 -4 2 2 2 3 14 15 15 15 16 15 14 14 14 14 12 12 11 13 13 14 14
-8 -9 -9 -9 -7 -6 -6 -5 -5 -5 -4 -4 -8 -11 -14 -14 1 0 -0 -3 -7 -8 -10 -13 -4 2 2 1 12 14 15 16 16 15 15 15 14 14 13 12 12 13 13 14 13
-9 -9 -10 -10 -9 -7 -6 -5 -4 -3 -4 -4 -5 -6 -5 -14 -0 0 1 0 -2 -5 -8 -11 -0 2 2 0 5 15 16 15 16 15 15 15 15 15 13 12 13 13 13 14 13
-11 -11 -10 -11 -11 -8 -7 -6 -4 -2 -1 -2 -1 -2 -8 -9 -5 -4 -3 -1 -1 -10 -7 -16 -9 -3 -0 -1 5 16 15 16 16 16 16 15 16 15 14 13 14 14 14 14 14
-13 -14 -13 -12 -11 -10 -8 -7 -4 -1 1 0 0 -0 -4 -3 -4 -4 -5 -4 -2 -9 -9 -8 -5 -4 -2 -1 2 12 16 17 16 15 16 15 16 15 13 12 13 14 14 14 14
-12 -14 -15 -13 -13 -11 -9 -5 -2 -0 1 -0 1 -0 -4 -2 -4 -4 -6 -5 -3 -5 -10 -10 -7 -2 -2 -1 4 13 16 16 16 16 15 14 15 15 14 12 12 13 13 14 14
-3 -12 -16 -15 -14 -11 -5 -1 -1 -1 0 -1 -1 -1 -3 -4 -4 -6 -7 -4 -4 -5 -4 -5 -3 -1 -1 -1 4 14 15 16 15 15 15 15 15 15 14 14 12 12 12 13 13
3 -1 -16 -15 -13 -9 -1 -0 -0 -1 0 -1 -1 -1 -2 -2 -2 -5 -5 -3 -4 -1 -4 -3 -1 -3 -2 -1 3 14 15 16 14 14 14 15 15 15 14 14 14 12 11 12 13
4 3 -9 -15 -13 -7 -1 -1 -1 -1 0 -1 -1 -1 -1 -2 -4 -6 -3 -4 -4 -2 -3 -2 -3 -4 -3 8 12 14 14 15 14 15 14 15 15 15 15 14 14 14 11 11 11
5 4 1 -15 -10 -3 -2 -1 -1 -1 1 -1 -1 -3 -3 -3 -8 -8 -8 -6 -7 -5 -5 -5 -7 -6 -4 -3 10 13 12 13 15 15 15 14 16 16 15 15 15 15 12 11 11
6 4 3 -15 -12 -3 -4 -1 -1 -1 2 -1 -4 -6 -7 -8 -6 -7 -8 -6 -6 -5 -6 -5 -5 -5 -6 -6 8 9 13 13 13 14 15 16 16 15 15 15 14 15 13 11 11
5 4 2 -10 -13 -6 -1 -2 -1 2 5 2 -6 -5 -5 -6 -7 -6 -7 -5 -5 -5 -5 -4 -5 -5 -4 7 8 12 12 12 12 13 15 15 15 15 15 14 14 14 14 12 11
4 5 1 -9 -11 -2 -1 -1 3 4 1 -3 -9 -6 -5 -4 -5 -5 -4 -4 -3 -2 -3 -3 -3 9 10 12 11 11 10 13 13 14 14 14 15 14 14 14 13 14 14 13 12
4 4 -7 -20 -15 -4 -4 1 5 3 4 -3 -10 -4 -3 -1 -2 -3 -3 -2 -3 -3 -2 -1 -1 11 10 11 13 12 8 11 11 14 14 15 15 14 11 12 13 13 13 13 12
4 -7 -20 -18 -9 -6 -2 5 4 4 1 -10 -10 -6 -2 -1 -0 1 1 0 -1 -4 -2 -1 -2 -3 10 10 10 12 12 8 12 12 13 15 14 12 12 13 14 14 14 13 13
-0 -14 -13 -10 -7 -4 0 3 2 2 -1 -11 -9 -7 -2 -0 1 2 3 2 2 0 -3 -1 1 -3 -2 9 9 10 9 11 11 13 14 14 14 14 14 13 14 14 14 14 14
-12 -3 -5 -4 -3 -0 0 1 -0 -1 -2 -10 -10 -9 -5 1 3 4 4 2 2 1 -2 -1 -2 -2 -2 4 10 4 9 6 8 11 13 13 12 11 12 12 14 13 13 12 12
-10 -1 -2 -3 -0 0 1 -0 -2 -1 -5 -12 -12 -10 -2 2 4 4 3 3 2 2 0 -1 -0 2 1 -2 -1 1 6 5 7 5 11 11 11 12 10 10 12 12 12 13 13
-5 -2 1 -0 1 1 -1 -3 -3 -3 -3 -10 -9 -9 0 3 2 4 3 2 2 2 1 -1 0 4 2 2 3 3 6 -1 -1 2 9 9 7 12 11 11 12 12 12 12 13
-5 -1 3 1 1 -0 -1 -1 -2 -2 -4 -8 -9 -1 1 3 4 1 3 2 2 2 4 -0 1 2 5 5 4 8 9 9 -4 -1 1 5 1 13 12 12 13 13 12 13 14
-5 0 4 5 3 4 1 3 3 3 -7 -7 -1 -4 1 3 3 3 4 2 1 1 2 0 1 3 2 6 8 9 10 10 8 10 -2 7 12 15 15 15 13 13 13 13 13
-4 6 7 7 6 5 4 4 2 1 -4 -7 -1 -1 1 2 1 -1 2 3 2 1 1 4 3 6 7 6 7 8 8 10 11 13 12 13 14 14 14 15 15 14 13 14 14
4 5 6 5 6 6 5 2 5 3 -7 -8 -1 1 1 -1 -1 -2 -0 0 2 2 3 6 7 5 7 7 6 9 8 9 10 11 12 14 12 12 14 14 15 15 13 14 14

GFSSW_850_dewp_117.txt.gz
Dewpoint
-6 -9 -9 -9 -10 -12 -13 -12 -13 -13 -12 -12 -14 -13 -15 -19 -14 -9 -10 -14 -19 -4 -6 -6 1 9 13 11 13 14 15 15 13 13 14 13 13 13 14 12 13 14 13 13 11
-8 -9 -8 -7 -5 -6 -10 -13 -13 -12 -12 -12 -13 -13 -15 -20 -17 -10 -8 -14 -20 -10 -6 -1 6 11 9 9 15 15 15 15 15 14 15 13 12 13 12 12 14 15 13 12 13
-8 -8 -8 -6 -5 -4 -4 -6 -11 -13 -13 -13 -13 -13 -15 -19 -9 -1 -3 -6 -20 -11 -7 2 8 9 8 10 14 15 16 14 15 15 15 14 13 13 11 12 13 13 15 14 14
-8 -8 -8 -7 -6 -6 -5 -5 -6 -6 -7 -9 -13 -15 -15 -13 -2 -1 -3 -6 -16 -11 -8 4 6 7 5 8 13 14 14 13 13 12 14 14 14 12 12 11 12 12 14 15 15
-8 -9 -9 -9 -7 -6 -6 -5 -5 -6 -5 -6 -9 -13 -16 -16 -7 -1 -3 -9 -15 -7 -8 1 6 4 5 3 11 13 15 15 14 13 12 14 13 14 12 11 13 14 15 15 15
-9 -9 -10 -10 -9 -7 -6 -5 -4 -3 -4 -5 -5 -7 -11 -14 0 0 -4 -8 -11 -7 -9 -5 4 4 2 2 9 14 15 16 16 15 14 14 13 14 12 13 14 14 14 14 15
-12 -12 -11 -11 -11 -9 -7 -6 -5 -4 -2 -2 -2 -2 -8 -10 1 1 -0 -1 -3 -6 -8 -12 -0 2 2 1 5 14 16 15 16 15 15 14 14 14 13 13 14 14 14 14 14
-13 -14 -14 -13 -12 -12 -8 -6 -5 -4 -0 -0 -0 -4 -9 -2 -1 0 -1 -0 -1 -9 -12 -13 -0 -2 0 -1 13 14 14 16 16 15 16 14 16 14 14 13 14 14 14 14 14
-9 -13 -16 -15 -13 -13 -8 -6 -4 -2 -0 -0 0 -2 -4 -4 -4 -3 -4 -4 -2 -12 -11 -12 -10 -3 -2 -1 7 14 13 16 16 15 15 14 16 14 15 13 12 13 14 14 14
0 -5 -14 -16 -14 -12 -7 -1 -2 -2 -0 -1 0 -1 -3 -2 -2 -4 -5 -4 -3 -11 -9 -8 -5 -2 -1 -0 6 12 15 16 16 15 13 16 16 14 15 14 13 13 14 14 14
3 2 -7 -17 -14 -8 -1 -1 -1 -1 -1 -1 -1 -1 -3 -2 -4 -7 -5 -4 -5 -5 -5 -4 -1 3 -0 -1 3 8 13 14 15 15 15 14 15 15 14 14 13 14 14 13 13
5 4 1 -16 -13 -6 -1 -1 -1 -2 -0 -1 -1 -1 -3 -3 -3 -5 -5 -3 -4 -1 -3 -3 1 -3 -2 -1 7 9 11 15 14 14 14 15 14 15 15 14 13 13 13 13 13
5 4 3 -14 -12 -4 -1 -1 -2 -2 0 -1 -1 -1 -1 -3 -4 -5 -5 -3 -3 -1 -2 -1 -3 -4 -2 5 7 10 7 14 14 14 13 14 14 14 15 15 14 14 13 12 12
5 5 3 -11 -10 -3 -2 -1 -2 -1 -0 -1 -1 -2 -2 -3 -6 -6 -4 -4 -6 -2 -3 -2 -6 -5 -4 -4 2 5 9 12 15 15 15 14 16 15 15 15 14 14 13 12 12
1 5 3 -2 -11 -4 -3 -2 -1 -1 1 -0 -3 -6 -6 -7 -6 -8 -8 -6 -5 -6 -5 -3 -6 -4 -4 -5 -1 1 11 13 14 14 14 15 16 14 14 15 14 13 12 13 12
3 3 4 2 -13 -7 -3 -2 -1 2 1 -1 -5 -5 -6 -6 -7 -6 -6 -5 -5 -5 -4 -4 -5 -5 -4 7 1 11 12 12 13 14 16 13 15 14 15 14 13 12 11 12 12
4 3 4 2 -11 -7 -1 -1 3 3 0 -4 -8 -7 -5 -3 -5 -5 -5 -4 -2 -1 -1 -3 -3 5 9 10 10 11 11 11 13 15 13 14 15 14 13 12 11 11 11 12 12
4 3 3 -8 -16 -2 -3 1 6 2 2 -5 -9 -4 -2 -1 -1 -3 -3 -3 -3 -3 -1 -0 -2 9 9 8 9 10 6 3 7 10 13 14 16 12 10 10 11 11 12 13 12
4 1 -14 -18 -17 -5 -1 4 4 3 1 -8 -9 -4 -2 -1 -0 1 2 -1 -0 -3 -0 -1 -1 -0 10 10 9 11 11 6 11 13 14 14 13 10 11 11 13 13 13 14 13
3 -11 -7 -14 -13 -5 1 4 3 1 -1 -11 -8 -6 -3 -1 1 2 3 2 1 0 -2 -0 3 -2 2 9 9 9 8 11 12 10 10 12 13 13 13 13 13 13 14 14 13
0 -2 -4 -7 -8 -1 -0 1 0 -0 -0 -6 -9 -8 -5 0 2 3 3 2 1 1 -1 -1 -0 0 -1 6 6 9 9 9 10 11 9 10 7 10 12 12 14 13 13 13 14
-10 -0 -2 -3 0 1 0 0 -2 -2 -4 -10 -10 -9 -3 2 3 2 2 2 2 1 1 -0 0 2 1 -1 -1 6 6 7 8 9 10 11 7 12 11 10 13 13 14 14 13
3 -1 -1 0 0 1 0 -2 -2 -3 -3 -10 -9 -8 1 2 1 3 2 1 3 1 2 -0 1 2 1 2 3 4 7 4 1 4 8 7 4 10 11 11 12 13 14 13 14
-1 0 3 1 0 0 1 0 -0 -2 -2 -4 -7 -0 2 3 4 2 3 1 2 1 4 0 1 3 1 4 5 9 9 9 5 3 4 3 4 7 13 14 13 13 13 13 13
-3 -0 4 4 3 1 1 3 2 2 -2 -6 -2 -2 -0 2 3 3 3 1 1 2 3 1 3 2 2 6 7 7 8 10 8 10 2 4 11 14 14 15 15 14 14 14 14
-0 7 6 7 7 6 5 5 3 3 1 -7 -2 -4 1 1 0 0 1 4 3 2 3 4 4 6 6 5 4 8 7 9 12 12 12 12 13 13 14 15 14 14 14 14 15
2 5 6 5 6 6 5 3 2 4 1 -5 -3 -0 0 -0 0 -2 -0 1 2 3 4 6 7 6 5 4 5 8 7 6 10 11 12 13 13 12 14 15 15 14 14 15 15

GFSSW_850_dewp_120.txt.gz
Dewpoint
-9 -9 -8 -6 -6 -7 -11 -13 -13 -13 -13 -12 -13 -14 -14 -17 -16 -11 -10 -8 -16 -5 -4 1 2 7 10 11 14 14 15 13 12 11 13 12 12 12 12 11 10 11 9 11 13
-8 -9 -8 -5 -5 -4 -6 -9 -13 -13 -13 -13 -13 -14 -15 -18 -18 -11 -9 -11 -18 -5 -0 -1 3 9 10 11 14 14 14 15 13 14 14 12 11 12 10 10 12 12 12 13 13
-8 -9 -9 -7 -6 -6 -6 -6 -7 -8 -11 -13 -15 -15 -15 -19 -4 -2 -3 -10 -16 -9 -3 -1 5 10 10 11 13 14 16 14 14 15 15 14 12 12 10 11 11 11 12 13 13
-8 -9 -9 -9 -7 -7 -6 -5 -5 -6 -5 -7 -11 -15 -16 -10 -2 -1 -4 -6 -17 -12 -3 3 7 9 10 10 12 14 13 13 14 14 14 13 12 12 11 11 10 10 12 13 13
-9 -9 -10 -10 -10 -8 -6 -5 -4 -4 -5 -6 -8 -13 -17 -6 -6 -1 -7 -6 -14 -10 -7 4 8 9 9 7 9 12 12 14 13 12 13 12 13 12 11 11 10 11 12 13 12
-12 -11 -11 -11 -11 -10 -7 -5 -5 -4 -2 -3 -2 -5 -7 -6 0 -4 -9 -10 -6 -7 -9 2 7 8 6 2 9 12 14 15 14 14 13 12 12 13 11 11 11 12 12 12 12
-12 -13 -14 -13 -12 -12 -9 -6 -6 -4 -2 -1 -1 -6 -4 -2 1 -1 -2 -3 -5 -6 -9 -6 3 8 5 1 10 13 15 15 15 14 14 14 14 14 12 12 12 12 12 12 12
-7 -11 -14 -15 -14 -14 -10 -6 -5 -3 -1 -1 -1 -7 -4 0 1 -0 1 1 -4 -6 -9 -8 -1 6 3 -0 10 13 12 14 15 14 15 15 15 14 13 12 12 11 11 12 13
1 -2 -9 -16 -14 -14 -9 -4 -2 -2 -1 -2 -1 0 -5 -7 -3 -3 -1 -1 -5 -7 -10 -10 -1 3 3 2 6 9 9 13 16 15 15 15 16 14 14 13 13 13 11 11 13
3 3 -1 -14 -15 -13 -4 -1 -2 -2 -1 -3 -2 1 -3 -3 -2 -3 -1 -2 -7 -11 -11 -10 -4 1 4 3 4 6 9 11 13 15 15 14 15 14 14 14 13 12 11 10 12
5 4 3 -10 -14 -6 -1 -1 1 2 0 -0 -1 -2 -3 -2 -4 -5 -2 -4 -7 -12 -12 -8 -5 -1 1 2 2 4 6 8 14 14 15 14 14 15 14 14 13 12 12 10 11
4 5 4 -6 -13 -3 -1 -0 -1 -1 -1 -0 -0 -1 -2 -2 -4 -5 -3 -3 -5 -7 -8 -6 -6 -4 -1 -0 3 4 5 8 14 14 14 14 14 12 14 13 13 12 14 11 10
1 5 4 -2 -12 -3 -1 -1 -2 -1 -0 -1 -1 -1 -2 -2 -7 -5 -3 -3 -4 -3 -7 -8 -5 -3 -1 0 2 3 4 5 10 14 13 13 14 14 14 14 14 13 13 12 10
1 2 4 -1 -9 -3 -1 -1 -1 -1 -1 -3 -3 -2 -1 -2 -6 -6 -5 -4 -6 -4 -4 -5 -5 -3 -2 -1 -1 1 2 3 12 12 12 13 11 14 14 15 14 13 13 13 10
3 0 4 3 -5 -5 -2 -1 -1 -0 0 -3 -4 -4 -4 -6 -7 -7 -5 -6 -5 -5 -5 -4 -5 -4 -4 -5 -5 -3 2 4 10 11 11 13 13 8 12 16 15 14 13 12 10
3 3 1 4 -3 -8 -3 -2 -0 1 1 -3 -6 -6 -6 -6 -6 -7 -6 -5 -5 -5 -6 -5 -7 -6 -6 -4 -5 1 5 9 11 11 11 7 12 9 14 13 13 13 13 12 11
-2 4 2 3 -2 -12 -3 -0 2 1 -3 -5 -7 -7 -5 -4 -5 -5 -4 -4 -3 -3 -3 -5 -6 -8 -5 -1 -1 4 4 7 8 9 7 11 11 10 9 10 10 11 12 12 12
-4 3 3 3 -2 -9 -3 -0 4 -2 -4 -9 -7 -6 -4 -3 -3 -4 -3 -3 -4 -4 -3 -3 -2 -4 -1 -1 1 3 1 1 5 3 4 12 11 8 9 8 9 11 12 12 11
-4 3 -4 -8 -13 -4 -1 3 1 -2 -6 -8 -6 -4 -3 -3 -2 -2 -3 -3 -2 -3 -2 -3 -3 -2 2 2 3 3 7 0 2 1 5 4 8 8 8 8 8 9 9 10 10
-1 -0 0 -14 -17 -5 -1 2 2 -2 -5 -9 -6 -6 -4 -4 -2 -4 -1 -1 -0 -1 -1 -1 -0 -3 1 5 6 7 5 5 3 7 7 3 7 8 8 9 9 10 11 11 11
3 -1 -1 -11 -14 -1 -0 -0 1 -2 -4 -9 -10 -10 -10 -7 -5 -3 -1 0 -0 -0 -1 -1 -1 -0 -0 4 1 6 8 6 4 5 6 8 6 6 8 10 10 10 11 12 13
-0 -4 -2 -9 -4 -4 -3 -1 -1 -4 -4 -8 -11 -10 -8 -7 -4 -3 -2 -0 -0 -3 -2 -2 -2 -0 -2 -2 -2 -2 3 3 5 6 6 5 12 9 10 10 9 10 12 12 14
5 -1 -1 1 -2 -2 -3 -2 -2 -3 -6 -9 -10 -10 -7 -5 -3 -5 -5 -0 0 -3 -3 -3 -3 0 -1 -2 0 1 3 4 3 4 12 7 7 7 11 10 11 12 13 14 13
4 -1 1 -0 -1 -2 -4 -2 -1 -3 -4 -6 -10 -9 -5 -2 -3 -4 -4 -2 0 -2 3 -0 -6 -5 -2 -0 5 6 6 6 5 4 2 3 4 2 12 13 12 12 13 14 14
2 -3 5 -1 -2 -3 -4 -6 -2 0 -2 -3 -3 -6 -5 -2 -3 -2 -4 -3 -1 0 1 -0 0 -3 -4 -4 2 4 5 6 6 5 6 1 4 5 12 14 14 13 13 13 14
3 4 5 6 5 -1 -1 -1 -2 -1 1 -3 -2 -4 -5 -3 -4 -4 -3 -1 -3 -0 1 1 3 1 0 -2 1 3 3 4 6 7 7 8 7 12 12 14 15 13 14 13 14
3 4 6 3 5 3 -1 -1 -2 -2 1 -0 -4 -4 -5 -5 -5 -4 -4 -3 -3 -1 0 2 2 4 3 -0 1 2 1 3 4 5 6 8 9 10 13 14 15 14 14 14 15

GFSSW_850_dewp_123.txt.gz
Dewpoint
-9 -8 -7 -5 -5 -5 -7 -11 -14 -14 -14 -13 -14 -16 -15 -16 -16 -11 -4 -6 -7 -10 -3 1 1 6 10 10 12 13 15 17 13 12 12 11 10 11 9 9 8 8 8 10 11
-9 -9 -9 -6 -6 -6 -6 -7 -9 -12 -14 -14 -14 -15 -15 -17 -18 -3 -6 -11 -20 -7 -0 -1 1 7 9 9 13 12 16 15 13 12 12 11 10 10 9 8 9 9 11 11 11
-8 -9 -10 -9 -7 -7 -6 -6 -6 -6 -6 -9 -13 -16 -17 -20 1 0 -4 -12 -21 -6 1 -2 0 8 8 9 12 13 15 12 12 13 14 14 11 10 9 10 8 9 11 11 11
-9 -10 -10 -11 -9 -8 -6 -5 -4 -6 -7 -8 -11 -16 -17 -12 0 3 -4 -9 -18 -4 -5 -2 2 8 8 10 11 13 12 12 12 13 12 11 13 10 10 12 9 9 10 11 11
-12 -12 -12 -12 -12 -10 -7 -5 -5 -4 -3 -3 -4 -13 -14 1 -3 1 -5 -8 -19 -4 -7 0 5 7 8 7 8 12 12 12 13 12 10 10 11 13 11 10 8 9 10 10 11
-12 -13 -14 -14 -13 -13 -9 -5 -5 -4 -3 -2 -2 -9 -2 -4 1 2 -1 -4 -7 -9 -10 0 5 7 6 4 8 11 11 13 12 12 12 10 11 14 10 10 9 10 10 10 11
-6 -8 -12 -15 -15 -14 -12 -6 -5 -4 -2 -1 -3 -11 0 1 2 -1 -4 -8 -10 -10 -10 -4 4 6 5 2 9 10 12 14 14 14 14 11 13 13 11 10 10 9 9 9 10
0 -0 -4 -12 -16 -15 -12 -6 -3 -3 -1 -2 -9 -2 -2 -0 1 -0 -1 -2 -6 -8 -8 -10 1 5 4 2 8 9 10 14 13 13 14 14 16 14 13 11 10 10 9 9 10
3 3 2 -7 -16 -15 -9 -4 -2 -2 -2 -3 0 3 -5 -3 -4 -3 -1 -2 -5 -9 -11 -11 -2 2 3 1 4 7 9 11 14 13 13 14 17 15 14 12 11 11 9 9 11
4 4 4 -3 -15 -13 -3 -2 -2 -3 -2 -3 -2 3 -5 -3 -4 -3 -4 -3 -9 -11 -13 -12 -3 1 2 2 3 4 5 6 11 14 14 14 15 14 14 14 15 11 10 8 10
3 4 4 1 -15 -6 -1 1 5 5 4 -0 -3 -3 -4 -4 -5 -5 -3 -5 -7 -13 -12 -13 -8 -3 -3 0 -1 2 5 5 10 13 14 13 13 14 13 13 13 12 11 8 9
-0 1 4 3 -15 -4 -0 1 -1 -1 -2 -4 -5 -5 -6 -5 -5 -6 -5 -6 -7 -11 -13 -10 -9 -9 -6 -1 -0 1 3 4 10 12 13 11 13 12 14 12 11 15 12 9 9
-1 -1 3 3 -14 -4 -1 -0 -1 -1 -0 -4 -4 -4 -4 -5 -7 -6 -6 -5 -6 -6 -8 -8 -10 -7 -2 -2 -2 -1 2 2 6 12 11 12 12 12 12 13 12 13 13 10 9
-4 1 0 2 -9 -2 -2 -0 -2 -0 1 -4 -5 -4 -4 -3 -7 -8 -5 -6 -6 -5 -7 -9 -7 -4 -3 -3 -4 -2 -2 0 3 10 10 12 10 12 12 13 13 12 13 12 10
-3 -0 0 3 -3 -3 -1 -3 -2 0 4 -5 -5 -4 -4 -5 -6 -6 -7 -6 -5 -8 -6 -6 -5 -5 -5 -5 -6 -4 -3 -1 1 6 7 8 12 6 9 14 13 12 11 13 10
-1 -4 2 4 3 -5 -3 -3 -0 0 1 -3 -7 -6 -6 -7 -7 -6 -7 -6 -6 -6 -7 -6 -7 -8 -8 -8 -8 -7 -3 0 4 6 9 5 7 6 11 12 12 12 12 12 10
1 -4 0 1 2 -4 -5 -2 0 0 -4 -4 -6 -7 -6 -5 -6 -6 -5 -5 -4 -3 -3 -7 -6 -9 -9 -6 -4 -6 -1 4 6 5 6 5 6 5 8 10 9 11 12 13 12
-0 -4 0 1 2 -1 -3 -1 3 -1 -3 -8 -9 -8 -6 -5 -5 -5 -4 -4 -6 -6 -4 -4 -3 -7 -8 -7 -2 -3 -2 1 6 4 11 7 7 8 10 7 6 8 11 12 12
-0 2 3 1 1 -2 -3 -0 0 -1 -6 -8 -9 -6 -5 -6 -4 -4 -4 -4 -4 -5 -1 -3 -4 -6 -4 -5 -5 -0 1 -3 0 -1 0 7 7 4 7 4 6 8 10 11 12
-0 3 1 0 -1 -4 -4 -2 -3 -3 -7 -10 -6 -6 -3 -4 -5 -5 -3 -4 -4 -3 -4 -2 -0 -5 -5 -4 -1 -0 7 5 -0 4 6 2 4 7 8 4 6 8 10 11 12
-1 1 2 -1 -5 -5 -4 -5 -4 -2 -6 -8 -8 -7 -8 -7 -6 -4 -4 -2 -3 -2 -3 -2 -2 -1 -2 0 1 1 1 5 5 7 8 7 9 13 6 7 9 9 8 9 10
4 -2 1 -3 -8 -8 -5 -6 -4 -2 -6 -8 -10 -10 -10 -8 -6 -7 -3 -2 -2 -4 -3 -3 -3 -1 -2 -3 -4 -0 5 4 3 7 8 8 11 10 6 3 9 10 9 10 11
4 1 1 -5 -8 -8 -7 -7 -4 -2 -5 -7 -10 -10 -10 -7 -4 -6 -6 -3 -3 -4 -4 -3 -2 -3 -2 -5 -3 -2 -4 -3 3 5 8 9 8 9 10 3 6 10 13 13 13
4 -0 -0 -3 -5 -5 -4 -4 -2 -3 -5 -8 -10 -10 -7 -5 -5 -4 -6 -6 -5 -7 -3 -4 -7 -6 -6 -5 -2 2 2 6 8 3 5 5 5 9 8 9 7 8 12 14 14
4 -1 2 -0 -5 -5 -3 -5 -3 -2 -4 -7 -6 -9 -7 -3 -3 -3 -6 -6 -4 -2 -5 -4 -1 -3 -6 -9 -8 -6 5 9 10 8 2 3 7 6 10 10 13 12 13 14 12
4 4 4 3 3 -4 -3 -3 -6 -4 -2 -3 -3 -5 -7 -4 -3 -3 -4 -3 -3 -2 -1 -3 1 -1 -1 -4 -6 -5 -2 8 7 3 6 4 4 10 12 14 15 12 13 13 14
6 3 4 2 1 2 -1 -3 -4 -6 -4 -2 -3 -4 -5 -6 -6 -6 -7 -6 -5 -3 -3 -0 0 1 2 -2 0 2 -3 1 2 -0 7 7 5 13 12 14 15 16 14 14 13